[[{"header":{"parameterUnit":"m.s-1","parameterCategory":1,"la1":30.6,"la2":29.2853,"lo1":-89.7004,"lo2":-87.6739,"dy":0.0162,"dx":0.0183,"nx":112,"ny":82,"refTime":"2026-04-18T12:00:00:Z","depth":0,"parameterNumber":2,"parameterNumberName":"U-component_of_WINDS"},"data":[0.0,0.0,0.0,0.0,0.0,0.0,0.0,0.0,0.0,0.0,0.0,0.0,0.0,0.0,0.0,0.0,0.0,0.0,0.0,0.0,0.0,0.0,0.0,0.0,0.0,0.0,0.0,0.0,0.0,0.0,0.0,0.0,0.0,0.0,0.0,0.0,0.0,0.0,0.0,0.0,0.0,0.0,0.0,0.0,0.0,0.0,0.0,0.0,0.0,0.0,0.0,0.0,0.0,0.0,0.0,0.0,0.0,0.0,0.0,0.0,0.0,0.0,0.0,0.0,0.0,0.0,0.0,0.0,0.0,0.0,0.0,0.0,0.0,0.0,0.0,0.0,0.0,0.0,0.0,0.0,0.0,0.0,0.0,0.0,0.0,0.0,0.0,0.0,0.0,0.0,-1.4465,-1.803,-2.0648,-2.2791,-2.4409,-2.118,-1.8242,-1.6256,0.0,0.0,0.0,0.0,0.0,0.0,0.0,0.0,0.0,0.0,0.0,0.0,0.0,0.0,0.0,0.0,0.0,0.0,0.0,0.0,0.0,0.0,0.0,0.0,0.0,0.0,0.0,0.0,0.0,0.0,0.0,0.0,0.0,0.0,0.0,0.0,0.0,0.0,0.0,0.0,0.0,0.0,0.0,0.0,0.0,0.0,0.0,0.0,0.0,0.0,0.0,0.0,0.0,0.0,0.0,0.0,0.0,0.0,0.0,0.0,0.0,0.0,0.0,0.0,0.0,0.0,0.0,0.0,0.0,0.0,0.0,0.0,0.0,0.0,0.0,0.0,0.0,0.0,0.0,0.0,0.0,0.0,0.0,0.0,0.0,0.0,0.0,0.0,0.0,0.0,0.0,0.0,0.0,0.0,0.0,0.0,0.0,0.0,0.0,0.0,0.0,0.0,0.0,0.0,-1.6738,-2.1573,-2.333,-2.4076,-2.3855,-2.1422,-1.8978,-1.6842,0.0,0.0,0.0,0.0,0.0,0.0,0.0,0.0,0.0,0.0,0.0,0.0,0.0,0.0,0.0,0.0,0.0,0.0,0.0,0.0,0.0,0.0,0.0,0.0,0.0,0.0,0.0,0.0,0.0,0.0,0.0,0.0,0.0,0.0,0.0,0.0,0.0,0.0,0.0,0.0,0.0,0.0,0.0,0.0,0.0,0.0,0.0,0.0,0.0,0.0,0.0,0.0,0.0,0.0,0.0,0.0,0.0,0.0,0.0,0.0,0.0,0.0,0.0,0.0,0.0,0.0,0.0,0.0,0.0,0.0,0.0,0.0,0.0,0.0,0.0,0.0,0.0,0.0,0.0,0.0,0.0,0.0,0.0,0.0,0.0,0.0,0.0,0.0,0.0,0.0,0.0,0.0,0.0,0.0,0.0,0.0,0.0,0.0,0.0,0.0,0.0,0.0,0.0,-1.6874,-1.9228,-2.2936,-2.3777,-2.4097,-2.4181,-2.1939,-1.9684,-1.776,-1.4331,0.0,0.0,0.0,0.0,0.0,0.0,0.0,0.0,0.0,0.0,0.0,0.0,0.0,0.0,0.0,0.0,0.0,0.0,0.0,0.0,0.0,0.0,0.0,0.0,0.0,0.0,0.0,0.0,0.0,0.0,0.0,0.0,0.0,0.0,0.0,0.0,0.0,0.0,0.0,0.0,0.0,0.0,0.0,0.0,0.0,0.0,0.0,0.0,0.0,0.0,0.0,0.0,0.0,0.0,0.0,0.0,0.0,0.0,0.0,0.0,0.0,0.0,0.0,0.0,0.0,0.0,0.0,0.0,0.0,0.0,0.0,0.0,0.0,0.0,0.0,0.0,0.0,0.0,0.0,0.0,0.0,0.0,0.0,0.0,0.0,0.0,0.0,0.0,0.0,0.0,0.0,0.0,0.0,0.0,0.0,0.0,0.0,0.0,0.0,0.0,0.0,0.0,-1.9196,-2.0896,-2.3414,-2.3615,-2.3759,-2.4126,-2.2014,-1.9956,-1.8361,-1.5449,0.0,0.0,0.0,0.0,0.0,0.0,0.0,0.0,0.0,0.0,0.0,0.0,0.0,0.0,0.0,0.0,0.0,0.0,0.0,0.0,0.0,0.0,0.0,0.0,0.0,0.0,0.0,0.0,0.0,0.0,0.0,0.0,0.0,0.0,0.0,0.0,0.0,0.0,0.0,0.0,0.0,0.0,0.0,0.0,0.0,0.0,0.0,0.0,0.0,0.0,0.0,0.0,0.0,0.0,0.0,0.0,0.0,0.0,0.0,0.0,0.0,0.0,0.0,0.0,0.0,0.0,0.0,0.0,0.0,0.0,0.0,0.0,0.0,0.0,0.0,0.0,0.0,0.0,0.0,0.0,0.0,0.0,0.0,0.0,0.0,0.0,0.0,0.0,0.0,0.0,0.0,0.0,0.0,0.0,0.0,0.0,0.0,0.0,0.0,0.0,0.0,0.0,-1.9377,-2.0998,-2.3369,-2.3588,-2.34,-2.2882,-2.1055,-1.9421,-1.8176,-1.5242,0.0,0.0,0.0,0.0,0.0,0.0,0.0,0.0,0.0,0.0,0.0,0.0,0.0,0.0,0.0,0.0,0.0,0.0,0.0,0.0,0.0,0.0,0.0,0.0,0.0,0.0,0.0,0.0,0.0,0.0,0.0,0.0,0.0,0.0,0.0,0.0,0.0,0.0,0.0,0.0,0.0,0.0,0.0,0.0,0.0,0.0,0.0,0.0,0.0,0.0,0.0,0.0,0.0,0.0,0.0,0.0,0.0,0.0,0.0,0.0,0.0,0.0,0.0,0.0,0.0,0.0,0.0,0.0,0.0,0.0,0.0,0.0,0.0,0.0,0.0,0.0,0.0,0.0,0.0,0.0,0.0,0.0,0.0,0.0,0.0,0.0,0.0,0.0,0.0,0.0,0.0,0.0,0.0,0.0,0.0,0.0,0.0,0.0,0.0,0.0,0.0,0.0,-1.9492,-2.0893,0.0,-2.361,-2.334,-2.2763,-2.1369,-1.9759,-1.7941,0.0,0.0,0.0,0.0,0.0,0.0,0.0,0.0,0.0,0.0,0.0,0.0,0.0,0.0,0.0,0.0,0.0,0.0,0.0,0.0,0.0,0.0,0.0,0.0,0.0,0.0,0.0,0.0,0.0,0.0,0.0,0.0,0.0,0.0,0.0,0.0,0.0,0.0,0.0,0.0,0.0,0.0,0.0,0.0,0.0,0.0,0.0,0.0,0.0,0.0,0.0,0.0,0.0,0.0,0.0,0.0,0.0,0.0,0.0,0.0,0.0,0.0,0.0,0.0,0.0,0.0,0.0,0.0,0.0,0.0,0.0,0.0,0.0,0.0,0.0,0.0,0.0,0.0,0.0,0.0,0.0,0.0,0.0,0.0,0.0,0.0,0.0,0.0,0.0,0.0,0.0,0.0,0.0,0.0,0.0,0.0,0.0,0.0,0.0,0.0,0.0,0.0,-1.7871,-1.9111,-2.0436,0.0,-2.2732,-2.2498,-2.1854,-2.0546,-1.9027,-1.7276,0.0,0.0,0.0,0.0,0.0,0.0,0.0,0.0,0.0,0.0,0.0,0.0,0.0,0.0,0.0,0.0,0.0,0.0,0.0,0.0,0.0,0.0,0.0,0.0,0.0,0.0,0.0,0.0,0.0,0.0,0.0,0.0,0.0,0.0,0.0,0.0,0.0,0.0,0.0,0.0,0.0,0.0,0.0,0.0,0.0,0.0,0.0,0.0,0.0,0.0,0.0,0.0,0.0,0.0,0.0,0.0,0.0,0.0,0.0,0.0,0.0,0.0,0.0,0.0,0.0,0.0,0.0,0.0,0.0,0.0,0.0,0.0,0.0,0.0,0.0,0.0,0.0,0.0,0.0,0.0,0.0,0.0,0.0,0.0,0.0,0.0,0.0,0.0,0.0,0.0,0.0,0.0,0.0,0.0,0.0,0.0,0.0,0.0,0.0,0.0,0.0,0.0,-1.6391,-1.81,-1.9557,-2.0771,-2.09,-2.0623,-1.9943,-1.8317,-1.6918,0.0,0.0,0.0,0.0,0.0,0.0,0.0,0.0,0.0,0.0,0.0,0.0,0.0,0.0,0.0,0.0,0.0,0.0,0.0,0.0,0.0,0.0,0.0,0.0,0.0,0.0,0.0,0.0,0.0,0.0,0.0,0.0,0.0,0.0,0.0,0.0,0.0,0.0,0.0,0.0,0.0,0.0,0.0,0.0,0.0,0.0,0.0,0.0,0.0,0.0,0.0,0.0,0.0,0.0,0.0,0.0,0.0,0.0,0.0,0.0,0.0,0.0,0.0,0.0,0.0,0.0,0.0,0.0,0.0,0.0,0.0,0.0,0.0,0.0,0.0,0.0,0.0,0.0,0.0,0.0,0.0,0.0,0.0,0.0,0.0,0.0,0.0,0.0,0.0,0.0,0.0,0.0,0.0,0.0,0.0,0.0,0.0,0.0,0.0,0.0,0.0,0.0,0.0,-1.6285,-1.7748,-1.901,-2.0229,-2.0673,-2.0479,-1.9426,-1.8153,-1.6726,-1.5033,0.0,0.0,0.0,0.0,0.0,0.0,0.0,0.0,0.0,0.0,0.0,0.0,0.0,0.0,0.0,0.0,0.0,0.0,0.0,0.0,0.0,0.0,0.0,0.0,0.0,0.0,0.0,0.0,0.0,0.0,0.0,0.0,0.0,0.0,0.0,0.0,0.0,0.0,0.0,0.0,0.0,0.0,0.0,0.0,0.0,0.0,0.0,0.0,0.0,0.0,0.0,0.0,0.0,0.0,0.0,0.0,0.0,0.0,0.0,0.0,0.0,0.0,0.0,0.0,0.0,0.0,0.0,0.0,0.0,0.0,0.0,0.0,0.0,0.0,0.0,0.0,0.0,0.0,0.0,0.0,0.0,0.0,0.0,0.0,0.0,0.0,0.0,0.0,0.0,0.0,0.0,0.0,0.0,0.0,0.0,0.0,0.0,0.0,0.0,0.0,0.0,0.0,-1.5324,-1.6792,-1.7969,-1.8923,-1.9297,-1.9195,-1.8473,-1.7239,-1.5766,-1.4093,0.0,0.0,0.0,0.0,0.0,0.0,0.0,0.0,0.0,0.0,0.0,0.0,0.0,0.0,0.0,0.0,0.0,0.0,0.0,0.0,0.0,0.0,0.0,0.0,0.0,0.0,0.0,0.0,0.0,0.0,0.0,0.0,0.0,0.0,0.0,0.0,0.0,0.0,0.0,0.0,0.0,0.0,0.0,0.0,0.0,0.0,0.0,0.0,0.0,0.0,0.0,0.0,0.0,0.0,0.0,0.0,0.0,0.0,0.0,0.0,0.0,0.0,0.0,0.0,0.0,0.0,0.0,0.0,0.0,0.0,0.0,0.0,0.0,0.0,0.0,0.0,0.0,0.0,0.0,0.0,0.0,0.0,0.0,0.0,0.0,0.0,0.0,0.0,0.0,0.0,0.0,0.0,0.0,0.0,0.0,0.0,0.0,0.0,0.0,0.0,0.0,0.0,-1.3864,-1.5462,-1.6647,-1.725,-1.7373,-1.7373,-1.7322,-1.5773,-1.435,-1.3223,0.0,0.0,0.0,0.0,0.0,0.0,0.0,0.0,0.0,0.0,0.0,0.0,0.0,0.0,0.0,0.0,0.0,0.0,0.0,0.0,0.0,0.0,0.0,0.0,0.0,0.0,0.0,0.0,0.0,0.0,0.0,0.0,0.0,0.0,0.0,0.0,0.0,0.0,0.0,0.0,0.0,0.0,0.0,0.0,0.0,0.0,0.0,0.0,0.0,0.0,0.0,0.0,0.0,0.0,0.0,0.0,0.0,0.0,0.0,0.0,-1.4358,0.0,0.0,0.0,0.0,0.0,0.0,0.0,0.0,0.0,0.0,0.0,0.0,0.0,0.0,0.0,0.0,0.0,0.0,0.0,0.0,0.0,0.0,0.0,0.0,0.0,0.0,0.0,0.0,0.0,0.0,0.0,0.0,0.0,0.0,0.0,0.0,0.0,0.0,0.0,0.0,0.0,-1.3763,-1.5135,-1.6095,-1.6647,-1.7124,-1.72,-1.6748,-1.5217,-1.3847,-1.2875,-1.0767,0.0,0.0,0.0,0.0,0.0,0.0,0.0,0.0,0.0,0.0,0.0,0.0,0.0,0.0,0.0,0.0,0.0,0.0,0.0,0.0,0.0,0.0,0.0,0.0,0.0,0.0,0.0,0.0,0.0,0.0,0.0,0.0,0.0,0.0,0.0,0.0,0.0,0.0,0.0,0.0,0.0,0.0,0.0,0.0,0.0,0.0,0.0,0.0,0.0,0.0,0.0,0.0,0.0,0.0,0.0,0.0,0.0,0.0,0.0,0.0,-1.5408,0.0,0.0,0.0,0.0,0.0,0.0,0.0,0.0,0.0,0.0,0.0,0.0,0.0,0.0,0.0,0.0,0.0,0.0,0.0,0.0,0.0,0.0,0.0,0.0,0.0,0.0,0.0,0.0,0.0,0.0,0.0,0.0,0.0,0.0,0.0,0.0,0.0,0.0,0.0,0.0,-1.377,-1.4828,-1.5618,-1.6421,-1.6547,-1.6446,-1.6145,-1.4893,-1.3604,-1.2389,-1.0758,0.0,0.0,0.0,0.0,0.0,0.0,0.0,0.0,0.0,0.0,0.0,0.0,0.0,0.0,0.0,0.0,0.0,0.0,0.0,0.0,0.0,0.0,0.0,0.0,0.0,0.0,0.0,0.0,0.0,0.0,0.0,0.0,0.0,0.0,0.0,0.0,0.0,0.0,0.0,0.0,0.0,0.0,0.0,0.0,0.0,0.0,0.0,0.0,0.0,0.0,0.0,0.0,0.0,-1.9829,-2.0392,-2.1274,-2.0799,-2.0635,-2.0654,-1.8763,-1.7558,-1.6898,0.0,0.0,0.0,0.0,0.0,0.0,0.0,0.0,0.0,0.0,0.0,0.0,0.0,0.0,0.0,0.0,0.0,0.0,0.0,0.0,0.0,0.0,0.0,0.0,0.0,-1.3838,-1.2839,0.0,0.0,0.0,0.0,0.0,0.0,0.0,0.0,0.0,0.0,0.0,0.0,-1.3688,-1.4519,-1.5286,-1.6271,-1.5969,-1.5602,-1.5441,-1.4518,-1.3332,-1.1859,-1.0808,-0.953,0.0,0.0,0.0,0.0,0.0,0.0,0.0,0.0,0.0,0.0,0.0,0.0,0.0,0.0,0.0,0.0,0.0,0.0,0.0,0.0,0.0,0.0,0.0,0.0,0.0,0.0,0.0,0.0,0.0,0.0,0.0,0.0,-1.1944,-1.2981,0.0,0.0,0.0,0.0,0.0,0.0,0.0,0.0,0.0,0.0,0.0,0.0,0.0,-1.9248,-1.943,-2.0406,-2.0524,-1.9788,-2.0777,-2.1082,-2.0804,-2.1183,-2.1357,-2.1352,-2.1075,0.0,-1.8581,-1.7645,0.0,0.0,0.0,0.0,0.0,0.0,0.0,0.0,0.0,0.0,0.0,0.0,0.0,0.0,0.0,0.0,0.0,0.0,0.0,0.0,0.0,0.0,-1.3626,-1.2828,-1.2843,-1.2847,0.0,-1.1762,-1.1375,-1.0709,0.0,0.0,0.0,0.0,0.0,0.0,0.0,0.0,-1.3246,-1.4266,-1.5135,-1.5743,-1.5743,-1.5306,-1.4393,-1.3737,-1.2794,-1.1381,-1.0705,-0.9876,-0.8777,-0.8044,0.0,0.0,0.0,0.0,0.0,0.0,0.0,0.0,0.0,0.0,0.0,0.0,0.0,0.0,0.0,0.0,0.0,0.0,0.0,0.0,0.0,0.0,0.0,0.0,0.0,0.0,0.0,0.0,0.0,-1.2137,-1.2914,-1.4011,-1.3476,-1.3141,0.0,0.0,0.0,0.0,0.0,0.0,0.0,0.0,0.0,-1.8964,-1.8531,-1.9105,-2.0731,-2.0761,-2.1222,-2.2171,-2.2673,-2.2924,-2.3,-2.2924,-2.2899,-2.2874,-2.2548,-2.1535,-2.0034,-1.9132,-1.799,-1.6779,0.0,0.0,0.0,0.0,0.0,-1.5719,-1.5912,-1.5844,0.0,0.0,0.0,0.0,0.0,0.0,0.0,0.0,0.0,0.0,0.0,0.0,0.0,-1.5725,-1.5531,-1.5423,-1.5162,-1.4301,-1.3094,0.0,-1.1094,-1.0939,-1.0556,0.0,0.0,0.0,0.0,-1.2513,-1.3993,-1.4577,-1.5053,-1.5648,-1.5437,-1.4814,-1.3746,-1.3169,-1.2362,-1.1172,-1.0653,-0.9967,-0.8993,-0.8414,-0.7847,0.0,0.0,0.0,0.0,0.0,0.0,0.0,0.0,0.0,0.0,0.0,0.0,0.0,0.0,0.0,0.0,0.0,0.0,0.0,0.0,0.0,0.0,0.0,0.0,0.0,0.0,0.0,0.0,-1.3233,-1.3989,-1.5166,-1.4778,-1.4511,0.0,0.0,0.0,0.0,0.0,0.0,-1.7661,-1.8106,-1.8784,-1.9813,-1.9065,-1.9634,-2.1749,-2.1021,-2.1718,-2.3832,-2.3577,-2.3676,-2.4042,-2.3652,-2.3457,-2.3433,-2.2872,-2.2015,-2.0995,-2.0232,-1.8911,-1.7363,-1.7387,-1.6765,-1.596,-1.6401,-1.6564,-1.656,-1.6657,-1.6632,-1.6635,-1.6822,0.0,-1.6645,-1.5887,0.0,0.0,0.0,0.0,-1.7005,-1.7316,0.0,-1.7918,-1.7774,-1.7432,-1.7089,-1.6942,-1.608,-1.4707,0.0,-1.2313,-1.2315,-1.1791,0.0,0.0,0.0,0.0,-1.2831,-1.4265,-1.4518,-1.4707,-1.502,-1.4694,-1.3987,-1.2807,-1.2467,-1.1891,-1.0886,-1.0649,-1.0087,-0.904,-0.8727,-0.8145,-0.7271,0.0,0.0,0.0,0.0,0.0,0.0,0.0,0.0,0.0,0.0,0.0,0.0,0.0,0.0,0.0,0.0,0.0,0.0,0.0,0.0,0.0,0.0,0.0,0.0,0.0,0.0,0.0,0.0,0.0,-1.6286,-1.5792,0.0,0.0,0.0,0.0,-1.7879,-1.7574,-1.8025,-1.956,-2.0239,-2.0385,-2.0003,-2.1454,-2.2312,-2.2455,-2.2036,-2.2309,-2.3309,-2.2411,-2.2024,-2.2047,-2.2024,-2.2024,-2.198,-2.1487,-2.1263,-2.1139,-2.0467,-1.9339,-1.7994,-1.7507,-1.7252,-1.7203,-1.7225,-1.7247,-1.7313,-1.7827,-1.7847,-1.7685,-1.8064,-1.8024,-1.7809,-1.7763,-1.7849,0.0,0.0,-1.8078,-1.801,-1.746,-1.7339,-1.7217,-1.6625,-1.6453,-1.6268,-1.5718,-1.5986,-1.5866,0.0,-1.3127,-1.2375,-1.2278,0.0,-1.1727,-1.2235,-1.2347,-1.2595,-1.3106,-1.3631,-1.3779,-1.3371,-1.3303,-1.2698,-1.1238,-1.1564,-1.1394,-1.039,-1.0733,-1.0378,-0.906,-0.8984,-0.8558,-0.7686,-0.6653,0.0,0.0,0.0,0.0,0.0,0.0,0.0,0.0,0.0,0.0,0.0,0.0,0.0,0.0,0.0,0.0,0.0,0.0,0.0,0.0,0.0,0.0,0.0,0.0,0.0,0.0,0.0,0.0,-1.6443,-1.6582,0.0,-1.6991,-1.7016,-1.7022,-1.7042,-1.7788,-1.8321,-1.8523,-1.9527,-2.0281,-2.0628,-2.0491,-2.1142,-2.2594,-2.1936,-2.2213,-2.3416,-2.3095,-2.2916,-2.2916,-2.2568,-2.2412,-2.239,-2.1865,-2.1335,-2.0797,-2.0552,-1.9673,-1.8419,-1.8342,-1.805,-1.7629,-1.7629,-1.7629,-1.765,-1.785,-1.7828,-1.781,-1.8171,-1.8008,-1.7588,-1.7273,-1.6993,-1.6969,-1.7796,-1.7668,-1.7436,-1.8047,-1.7856,-1.7568,-1.783,-1.7599,-1.7319,-1.7107,-1.6692,-1.5963,-1.4568,-1.4181,-1.4052,-1.3922,-1.3515,-1.3365,-1.3903,-1.3643,-1.3578,-1.4131,-1.3982,-1.3672,-1.3246,-1.3199,-1.2595,-1.1141,-1.1188,-1.0874,-0.992,-1.0012,-0.9651,-0.8649,-0.8333,-0.7906,-0.7314,-0.6432,-0.5808,0.0,0.0,0.0,0.0,0.0,0.0,0.0,0.0,0.0,0.0,0.0,0.0,0.0,0.0,0.0,0.0,0.0,0.0,0.0,0.0,0.0,0.0,0.0,0.0,0.0,-1.5266,-1.5908,-1.673,-1.7222,-1.7492,-1.7566,-1.7858,-1.7999,-1.776,-1.8833,-1.9397,-1.918,-2.0194,-2.0895,-2.1081,-2.0509,-2.0953,-2.2455,-2.1597,-2.1744,-2.2988,-2.2675,-2.2526,-2.2504,-2.2167,-2.1981,-2.1959,-2.1453,-2.0904,-2.0365,-2.0221,-1.9629,-1.8836,-1.8817,-1.8416,-1.7868,-1.7868,-1.7868,-1.7859,-1.7999,-1.7874,-1.7719,-1.8029,-1.7817,-1.7331,-1.7032,-1.6757,-1.6714,-1.7551,-1.7459,-1.7261,-1.8113,-1.7988,-1.7715,-1.8232,-1.8057,-1.7708,-1.7385,-1.6803,-1.5981,-1.4733,-1.4562,-1.4491,-1.4205,-1.378,-1.3699,-1.4405,-1.3847,-1.3585,-1.4359,-1.388,-1.3271,-1.2722,-1.2657,-1.215,-1.0874,-1.0753,-1.0498,-0.9863,-0.9689,-0.9299,-0.863,-0.8133,-0.768,-0.7314,-0.6503,-0.5785,-0.512,0.0,0.0,0.0,0.0,0.0,0.0,0.0,0.0,0.0,0.0,0.0,0.0,0.0,0.0,0.0,0.0,0.0,0.0,0.0,0.0,0.0,0.0,0.0,-1.514,-1.5908,-1.663,-1.725,-1.7629,-1.7889,-1.8123,-1.9003,-1.9815,-2.0333,-2.0732,-2.1217,-2.1806,-2.2329,-2.2201,-2.1219,-2.1695,-2.1962,-2.1962,-2.1049,-2.1049,-2.1962,-2.1049,-2.0605,-2.0605,-2.0605,-2.0605,-2.0586,-2.0117,-1.9941,-1.9902,-1.9492,-1.9316,-1.9258,-1.8773,-1.8344,-1.8027,-1.8008,-1.8008,-1.8051,-1.8385,-1.8015,-1.7455,-1.7708,-1.753,-1.7184,-1.7164,-1.7349,-1.7545,-1.755,-1.755,-1.755,-1.755,-1.755,-1.755,-1.755,-1.7578,-1.731,-1.6375,-1.6199,-1.5861,-1.4875,-1.4188,-1.36,-1.3041,-1.2567,-1.2619,-1.3658,-1.2926,0.0,-1.3679,-1.3262,-1.2563,-1.1724,-1.1626,-1.1273,-1.0391,-1.0312,-1.0293,-1.0273,-0.9825,-0.9378,-0.8967,-0.8434,-0.7983,-0.7632,-0.685,-0.5844,-0.4584,0.0,0.0,0.0,0.0,0.0,0.0,0.0,0.0,0.0,0.0,0.0,0.0,0.0,0.0,0.0,0.0,0.0,0.0,0.0,0.0,0.0,-1.4255,-1.5303,-1.5993,-1.6392,-1.6894,-1.7725,-1.8155,-1.854,-1.8946,-1.9222,-1.9439,-1.9596,-1.9985,-2.0289,-2.0447,-2.091,-2.104,-2.0793,-2.0913,-2.0972,-2.0972,-2.0722,-2.0722,-2.0972,-2.0702,-2.0605,-2.0605,-2.0605,-2.0605,-2.0605,-2.0468,-2.0429,-2.041,-2.0292,-2.0019,-1.9668,-1.889,-1.8539,-1.8383,-1.8125,-1.8008,-1.8022,-1.8107,-1.8,-1.7807,-1.7585,-1.7432,-1.7213,-1.6587,-1.6437,-1.657,-1.6736,-1.6425,-1.614,-1.6652,-1.6425,-1.614,-1.668,-1.6793,-1.665,-1.6085,-1.5725,-1.5144,-1.4026,-1.3459,-1.3382,-1.4095,-1.4103,-1.4108,-1.44,-1.3827,0.0,-1.3747,-1.3262,-1.268,-1.2109,-1.2051,-1.168,-1.082,-1.0742,-1.0332,-0.9414,-0.9238,-0.8694,-0.7667,-0.7195,-0.6655,-0.5967,-0.5734,-0.5188,0.0,0.0,0.0,0.0,0.0,0.0,0.0,0.0,0.0,0.0,0.0,0.0,0.0,0.0,0.0,0.0,0.0,0.0,0.0,0.0,0.0,0.0,-1.5117,-1.6215,-1.6971,-1.7157,-1.7486,-1.8149,-1.8617,-1.9004,-1.9258,-1.9453,-1.9551,-1.9551,-1.9941,-2.0195,-2.0195,-2.0468,-2.0605,-2.0605,-2.0605,-2.0605,-2.0605,-2.0605,-2.0605,-2.0605,-2.0605,-2.0605,-2.0605,-2.0605,-2.0605,0.0,-2.0605,-2.0605,-2.0605,-2.0605,-2.0449,0.0,0.0,0.0,0.0,0.0,-1.8008,-1.8008,-1.8008,-1.8008,-1.7969,-1.7734,-1.7519,-1.7318,-1.6809,-1.6378,-1.6117,-1.6274,-1.5869,-1.5497,-1.5911,-1.5729,-1.5497,-1.596,-1.6026,-1.5891,-1.5267,-1.492,-1.4449,-1.3435,0.0,0.0,-1.3836,-1.3954,-1.4025,-1.4283,-1.3813,-1.3505,0.0,-1.3262,-1.2715,-1.2262,-1.2047,-1.166,-1.0977,-1.0742,0.0,0.0,0.0,-0.833,-0.7032,-0.6684,0.0,0.0,0.0,0.0,0.0,0.0,0.0,0.0,-0.3169,-0.3138,0.0,0.0,0.0,0.0,0.0,0.0,0.0,0.0,0.0,0.0,0.0,0.0,0.0,0.0,0.0,0.0,-1.6055,-1.7116,-1.7935,-1.8164,-1.8359,-1.8695,-1.9121,-1.9375,-1.9434,-1.9766,-1.998,-1.998,-2.0352,-2.0605,-2.0605,0.0,0.0,0.0,0.0,-2.0605,-2.0605,-2.0605,-2.0605,-2.0605,-2.0605,-2.0605,-2.0605,-2.0605,-2.0605,-2.0605,-2.0605,-2.0605,-2.0605,-2.0605,-2.0605,-2.0566,-2.0039,-1.9319,-1.8559,-1.8164,-1.8008,0.0,0.0,0.0,0.0,-1.8008,-1.7754,-1.7441,-1.7402,-1.6868,-1.6222,-1.6124,-1.5811,-1.5469,-1.543,-1.541,-1.541,-1.541,-1.541,-1.5195,-1.4348,-1.4133,-1.388,-1.313,-1.2935,-1.2915,-1.2915,-1.2915,-1.3089,-1.3624,-1.3238,0.0,-1.3647,-1.3238,-1.2734,-1.232,0.0,0.0,-1.1016,-1.0605,-1.0097,-0.9455,-0.8885,-0.8037,-0.6858,-0.6574,-0.6379,-0.6201,-0.6194,-0.5594,-0.4428,-0.4911,-0.4364,-0.293,-0.3098,-0.332,0.0,0.0,0.0,0.0,0.0,0.0,0.0,0.0,0.0,0.0,0.0,0.0,0.0,0.0,0.0,-1.618,-1.7116,-1.7896,-1.8403,-1.9065,-1.957,-1.9668,-1.9746,-1.9922,-2.0331,-2.0429,-2.0468,-2.0468,-2.0566,-2.0605,-2.0605,-2.0605,-2.0605,-2.0605,-2.0605,-2.0605,-2.0605,-2.0605,-2.0605,-2.0605,0.0,0.0,-2.0605,-2.0605,-2.0605,-2.0605,-2.0605,-2.0605,-2.0605,-2.0605,-2.0605,-2.0527,-1.9744,-1.9082,-1.8559,-1.8164,-1.8008,-1.8008,-1.8008,-1.8008,-1.8008,-1.8008,-1.7949,-1.7832,-1.748,-1.7298,0.0,-1.63,-1.6026,-1.5889,-1.5508,-1.541,-1.541,-1.541,-1.541,-1.5273,-1.4766,-1.4375,-1.3958,-1.3477,-1.3105,-1.2915,-1.2915,-1.2915,-1.2944,-1.3065,-1.2968,-1.2944,-1.3065,-1.2968,-1.2876,-1.2754,-1.2363,-1.1914,-1.1486,-1.1056,-1.027,-0.9018,-0.7836,-0.7082,-0.6807,-0.6453,-0.6237,-0.6214,-0.5726,-0.5192,-0.4551,-0.4252,-0.3739,-0.308,-0.3467,-0.3505,0.0,0.0,0.0,0.0,0.0,0.0,0.0,0.0,0.0,0.0,0.0,-1.4668,-1.5284,0.0,-1.668,-1.7506,-1.8223,-1.8789,-1.9182,-1.9648,-1.9922,-1.9922,-2.0117,-2.0332,-2.0586,-2.0605,-2.0605,-2.0605,-2.0605,-2.0605,-2.0605,-2.0781,-2.0801,-2.0605,-2.0781,-2.0801,-2.0605,-2.0605,-2.0605,-2.0605,-2.0605,-2.0605,-2.0605,-2.0605,-2.0605,-2.0605,-2.0605,-2.0605,-2.0605,-2.0605,-2.0605,-2.0507,-1.9629,-1.916,-1.8887,-1.8242,-1.8008,-1.8008,-1.8008,-1.8008,-1.8008,-1.8008,-1.8008,-1.7969,-1.7754,-1.7559,-1.7246,-1.6582,-1.6261,-1.5987,-1.5527,-1.541,-1.541,-1.541,-1.541,-1.5177,-1.4383,-1.416,-1.3871,-1.3058,-1.2915,-1.2915,-1.2915,-1.2915,-1.2915,-1.2915,-1.2915,-1.2915,-1.2915,-1.2915,-1.272,-1.2182,-1.1779,-1.121,-1.0498,-0.9804,-0.9089,-0.8396,-0.7314,-0.6701,-0.6701,-0.6375,-0.6196,-0.6196,-0.5602,-0.5066,-0.4593,-0.4139,-0.3675,-0.3256,-0.3563,-0.3515,0.0,0.0,0.0,0.0,0.0,0.0,0.0,-1.3013,-1.367,-1.4063,-1.4795,-1.5613,-1.6341,-1.6845,-1.7335,-1.7977,-1.8485,-1.89,-1.9241,-1.9354,-1.9411,-1.9411,-2.012,-2.0605,-2.0605,-2.0605,-2.0605,-2.0605,-2.0683,-2.0742,-2.0742,-2.1113,-2.1152,-2.0742,-2.1055,-2.1016,-2.0605,-2.0605,-2.0605,-2.0605,-2.0411,-2.0294,-2.0274,-2.0079,-1.9962,-1.9962,-1.9962,-1.9962,-1.9962,-1.9962,-1.9962,-1.9867,-1.9032,-1.8709,-1.8651,-1.8182,-1.8008,-1.7974,-1.7803,-1.7837,-1.7974,-1.7784,-1.7872,-1.8008,-1.8008,-1.7673,-1.7152,-1.66,-1.6102,-1.5598,-1.5056,-1.5059,-1.5147,-1.4952,-1.504,-1.4876,-1.3729,-1.3589,-1.3391,-1.2396,-1.2372,-1.2486,-1.2486,-1.2486,-1.2535,-1.2676,-1.27,-1.2632,-1.251,-1.2486,-1.2183,-1.1357,-1.0862,-1.022,-0.9274,-0.8391,-0.7899,-0.7899,-0.7125,-0.6667,-0.6667,-0.6376,-0.6187,-0.6187,-0.5498,-0.4947,-0.4568,-0.4143,-0.3769,-0.344,-0.3542,-0.3514,-1.1993,-1.0765,-0.9994,-1.1073,-1.1262,-1.1589,0.0,-1.3487,-1.3786,-1.4213,-1.4891,-1.5419,-1.5538,-1.5889,-1.6192,-1.6259,-1.6668,-1.6996,-1.7047,-1.7389,-1.759,-1.759,-1.9356,-2.0605,-2.0605,-2.0605,-2.0605,-2.0605,-2.0937,-2.1112,-2.1112,-2.1582,-2.1621,-2.1132,-2.1171,-2.1016,-2.0605,-2.0605,-2.0605,-2.0605,-1.9648,-1.9195,-1.9155,-1.8141,-1.7658,-1.7658,-1.7658,-1.7658,-1.7658,-1.7658,-1.7658,-1.759,-1.6834,-1.6569,-1.6672,-1.764,-1.8008,-1.7872,-1.7063,-1.7304,-1.7872,-1.7026,-1.732,-1.8008,-1.8008,-1.7404,-1.6565,-1.583,-1.4995,-1.4158,-1.345,-1.3795,-1.4154,-1.3433,-1.3825,-1.4106,-1.3262,-1.2572,-1.2108,-1.1975,-1.145,-1.1015,-1.1015,-1.1015,-1.1241,-1.1814,-1.1913,-1.1715,-1.1116,-1.1015,-1.0973,-1.0889,-1.0231,-0.9526,-0.884,-0.8245,-0.7899,-0.7899,-0.7314,-0.6953,-0.6953,-0.6466,-0.6202,-0.6202,-0.5078,-0.4479,-0.4414,-0.3905,-0.362,-0.3576,-0.359,-0.359,-1.1946,-1.1471,-1.128,-1.1675,-1.2055,-1.2542,-1.3381,-1.3816,-1.4219,-1.4819,-1.5357,-1.5837,-1.6087,-1.6288,-1.6491,-1.672,-1.6924,-1.7063,-1.7063,-1.7053,-1.7083,-1.7083,-1.7874,-1.853,-1.8643,-1.8661,-1.8661,-1.8661,-1.8993,-1.9224,-1.9224,-1.9809,-1.9908,-1.9477,-1.9519,-1.9365,-1.8975,-1.8785,-1.8661,-1.8661,-1.8221,-1.802,-1.798,-1.7496,-1.7293,-1.7293,-1.7293,-1.7293,-1.7293,-1.7293,-1.7293,-1.7227,-1.647,-1.619,-1.6204,-1.6332,-1.6367,-1.6298,-1.5913,-1.6053,-1.6298,-1.5895,-1.6053,-1.6367,-1.6367,-1.6123,-1.5635,-1.4878,-1.441,-1.3917,-1.319,-1.3252,-1.3433,-1.307,-1.3252,-1.3282,-1.2473,-1.2241,-1.1996,-1.1334,-1.1139,-1.1035,-1.0821,-1.0788,-1.0762,-1.0636,-1.0965,-1.1116,-1.0838,-1.0788,-1.0596,-1.0037,-0.9057,-0.8298,-0.8033,-0.761,-0.7384,-0.7384,-0.7154,-0.6859,-0.6541,-0.6307,-0.6029,-0.5674,-0.4843,-0.4408,-0.4387,-0.3854,-0.3604,-0.3604,-0.3236,-0.3072,-1.1595,-1.1547,-1.1698,-1.1767,-1.2318,-1.2915,-1.3218,-1.3741,-1.4231,-1.4704,-1.508,-1.5436,-1.5709,-1.5818,-1.5959,-1.6224,-1.6349,-1.6412,-1.6412,-1.618,-1.5984,-1.5984,-1.5984,-1.6054,-1.628,-1.692,-1.7293,-1.7293,-1.7722,-1.7985,-1.7985,-1.8617,-1.8802,-1.8414,-1.8387,-1.8199,-1.7811,-1.7475,-1.7293,-1.7293,-1.7009,-1.6846,-1.6846,-1.6576,-1.6412,-1.6412,-1.6412,-1.6412,-1.6412,-1.6412,-1.6412,-1.6333,-1.5631,-1.5365,-1.5272,-1.4637,-1.4728,-1.5171,-1.4887,-1.4994,-1.5155,-1.4887,-1.4994,-1.519,-1.519,-1.5029,-1.4619,-1.3961,-1.3553,-1.3197,-1.2508,-1.2489,-1.2612,-1.2397,-1.252,-1.2458,-1.1655,-1.1616,-1.1521,-1.0697,-1.0639,-1.0654,-1.0389,-1.0306,-1.009,-0.9588,-0.9935,-1.0244,-1.0244,-1.0244,-0.9967,-0.92,-0.8296,-0.7665,-0.7504,-0.7268,-0.7086,-0.7006,-0.6859,-0.6605,-0.6221,-0.5879,-0.5502,-0.506,-0.4482,-0.4176,-0.4176,-0.3796,-0.3506,-0.3343,-0.2903,-0.2525,-1.0764,-1.0279,-0.9989,-1.0819,-1.1478,-1.2024,-1.2284,-1.2998,-1.3548,-1.3333,-1.3467,-1.3588,-1.3346,-1.3534,-1.3682,-1.3695,-1.3978,-1.4208,-1.4208,-1.3911,-1.3682,-1.3682,-1.3682,-1.3682,-1.3695,-1.5884,-1.7293,-1.7293,-1.7952,-1.8407,-1.8407,-1.9084,-1.927,-1.8863,-1.8562,-1.8199,-1.7811,-1.7475,-1.7293,-1.7293,-1.6232,-1.5737,-1.5696,-1.4657,-1.4208,-1.4208,-1.4208,-1.4208,-1.4208,-1.4208,-1.4208,-1.4154,-1.3521,-1.3279,-1.3212,-1.2593,-1.3593,-1.5065,-1.4099,-1.4386,-1.5029,-1.4063,-1.4422,-1.519,-1.519,-1.453,-1.3639,-1.3097,-1.2241,-1.1357,-1.0798,-1.1264,-1.1655,-1.087,-1.1264,-1.1624,-1.0807,-1.0389,-1.0174,-1.0131,-0.9662,-0.926,-0.926,-0.9045,-0.8857,-0.8831,-0.8857,-0.8857,-0.8857,-0.8857,-0.875,-0.8454,-0.8414,-0.8134,-0.7544,-0.7477,-0.7357,-0.702,-0.652,-0.6221,-0.62,-0.5091,-0.4452,-0.443,-0.3899,-0.3626,-0.3626,-0.3604,-0.3304,-0.2717,-0.2717,-0.2078,-1.0877,-1.103,-1.1283,-1.1744,-1.2318,-1.2839,-1.308,-1.324,-1.3347,-1.344,-1.3253,-1.308,-1.3186,-1.312,-1.3186,-1.3533,-1.3693,-1.3868,-1.4055,-1.3786,-1.36,-1.36,-1.36,-1.36,-1.36,-1.4559,-1.5186,-1.5186,-1.5778,-1.6139,-1.6139,-1.673,-1.6973,-1.6872,-1.6569,-1.6253,-1.5936,-1.5619,-1.5346,-1.5186,-1.4824,-1.4657,-1.4615,-1.425,-1.4082,-1.4082,-1.4082,-1.4082,-1.4082,-1.4082,-1.4082,-1.4028,-1.344,-1.3213,-1.3133,-1.2532,-1.2696,-1.323,-1.2879,-1.2989,-1.323,-1.2879,-1.2989,-1.3266,-1.3266,-1.3062,-1.2644,-1.2068,-1.1662,-1.1289,-1.0747,-1.0807,-1.0919,-1.0649,-1.0807,-1.0933,-1.0649,-1.0519,-1.0385,-1.0154,-0.9923,-0.967,-0.9284,-0.9138,-0.9004,-0.8831,-0.8804,-0.8804,-0.8804,-0.8804,-0.8764,-0.8671,-0.8509,-0.8109,-0.7438,-0.7093,-0.6654,-0.6046,-0.5739,-0.5416,-0.5017,-0.4604,-0.4242,-0.3884,-0.3685,-0.3604,-0.3604,-0.3192,-0.2902,-0.268,-0.1875,-0.1286,-1.1222,-1.165,-1.2118,-1.2518,-1.2999,-1.3347,-1.3427,-1.3387,-1.328,-1.3147,-1.2852,-1.2623,-1.2572,-1.2492,-1.2663,-1.3227,-1.3467,-1.3706,-1.4041,-1.3921,-1.372,-1.3613,-1.3693,-1.372,-1.3613,-1.4001,-1.4202,-1.4095,-1.4673,-1.5008,-1.5008,-1.5511,-1.5784,-1.5784,-1.5551,-1.5311,-1.5124,-1.4723,-1.4376,-1.4082,-1.4082,-1.4082,-1.4082,-1.4082,-1.4082,-1.4082,-1.4082,-1.4082,-1.4082,-1.4082,-1.4082,-1.4028,-1.344,-1.3213,-1.3133,-1.2532,-1.2305,-1.2305,-1.2305,-1.2305,-1.2305,-1.2305,-1.2305,-1.2305,-1.2305,-1.2305,-1.2171,-1.1549,-1.1389,-1.1289,-1.0747,-1.0586,-1.0586,-1.0586,-1.0586,-1.0586,-1.0586,-1.0364,-1.0059,-0.9867,-0.9721,-0.95,-0.9131,-0.8943,-0.8754,-0.8446,-0.8182,-0.8103,-0.8368,-0.8182,-0.8023,-0.8023,-0.7864,-0.7513,-0.6959,-0.6634,-0.618,-0.5536,-0.524,-0.4882,-0.4417,-0.422,-0.3943,-0.3604,-0.3604,-0.349,-0.3265,-0.2879,-0.2475,-0.2027,-0.1269,-0.0786,-1.1792,-1.2131,-1.2505,-1.3093,-1.34,-1.3533,-1.3293,-1.3373,-1.3293,-1.2452,-1.2238,-1.2037,-1.1455,-1.1623,-1.206,-1.2663,-1.3227,-1.3693,-1.4068,-1.4108,-1.4015,-1.3706,-1.3961,-1.4015,-1.3693,-1.4173,-1.4429,-1.4148,0.0,-1.5022,-1.5035,-1.5524,-1.5784,-1.5784,-1.5565,-1.5404,-1.5391,-1.4816,-1.4389,-1.4108,-1.4095,-1.4082,-1.4082,-1.4082,-1.4082,-1.4082,-1.4082,-1.4082,-1.4082,-1.4082,-1.4082,-1.4028,-1.3454,-1.3227,-1.3133,-1.2545,-1.2318,-1.2305,-1.2305,-1.2305,-1.2305,-1.2305,-1.2305,-1.2305,-1.2305,-1.2305,-1.2184,-1.1575,-1.1415,-1.1316,-1.076,-1.0613,-1.0613,-1.0568,-1.0523,-1.0523,-1.0491,-0.9824,-0.9236,-0.9236,-0.8951,-0.8734,-0.8734,-0.8416,-0.8023,-0.7695,-0.7031,-0.6804,-0.7557,-0.702,-0.6588,-0.6588,-0.6588,-0.6471,-0.62,-0.617,-0.5932,-0.546,-0.4935,-0.4565,-0.4373,-0.3884,-0.3604,-0.361,-0.3566,-0.3271,-0.2708,-0.2642,-0.2006,-0.0905,-0.088,-0.0544,-1.2395,-1.2906,-1.3293,-1.3453,-1.3547,-1.3586,-1.3507,-1.3027,-1.2518,-1.2114,-1.1497,-1.0988,-1.0841,-1.1055,-1.1476,-1.2291,-1.2919,-1.3574,-1.4309,-1.4402,-1.4469,-1.4616,-1.474,-1.4754,-1.4629,-1.4763,-1.4816,-1.4794,-1.4928,-1.5102,-1.5271,-1.5631,-1.5784,-1.5784,-1.5704,-1.5618,-1.5404,-1.4816,-1.4482,-1.4402,-1.4188,-1.4082,-1.4082,-1.4082,-1.4082,-1.4082,-1.4082,-1.4082,-1.4082,-1.4082,-1.4082,-1.4055,-1.3681,-1.336,-1.316,-1.2811,-1.2529,-1.2305,-1.2305,-1.2305,-1.2305,-1.2305,-1.2305,-1.2305,-1.2305,-1.2305,-1.2225,-1.1864,-1.1757,-1.1658,-1.1035,-1.0908,-1.0692,-0.9829,-0.9632,-0.946,-0.8807,-0.8484,-0.8323,-0.8323,-0.807,-0.784,-0.784,-0.7495,-0.72,-0.7109,-0.6349,-0.6036,-0.6777,-0.6723,-0.6588,-0.6588,-0.6588,-0.6342,-0.5739,-0.5589,-0.52,-0.4434,-0.4162,-0.3954,-0.3803,-0.3663,-0.3651,-0.3761,-0.3199,-0.2903,-0.2844,-0.1836,-0.1201,-0.088,-0.0438,-0.0139,-1.3013,-1.348,-1.3841,-1.3841,-1.3693,-1.3493,-1.3107,-1.2572,-1.1917,-1.1236,-1.0715,-1.0327,-1.0224,-1.0546,-1.1122,-1.1971,-1.2732,-1.352,-1.4402,-1.4133,-1.3907,-1.4103,-1.3717,-1.3421,-1.3302,-1.3397,-1.3469,-1.3469,-1.4546,-1.5217,-1.5391,-1.5671,-1.5784,-1.5784,-1.5784,-1.5685,-1.5404,-1.4937,-1.4656,-1.4522,-1.4229,-1.4082,-1.4082,-1.4082,-1.4082,-1.4082,0.0,-1.3294,-1.3252,-1.2772,-1.2559,-1.2535,-1.223,-1.204,-1.1821,-1.148,-1.1242,-1.1061,-1.0992,-1.0981,-1.1056,-1.1502,-1.1663,-1.1539,-1.113,-1.0981,-1.0934,-1.0623,-1.0551,-1.0432,-0.9908,-0.9777,-0.9585,-0.8895,-0.871,-0.8581,-0.8096,-0.7697,-0.7437,-0.7437,-0.7278,-0.7239,-0.7456,-0.7058,-0.6631,-0.6454,-0.5684,-0.5286,-0.5645,-0.5691,-0.5691,-0.5691,-0.5691,-0.5527,-0.5081,-0.5004,-0.4696,-0.4131,-0.4011,-0.3927,-0.3778,-0.3771,-0.3664,-0.3405,-0.2989,-0.2529,-0.2008,-0.1263,-0.0752,-0.0491,-0.0167,0.0,-1.3586,-1.3921,-1.4135,-1.4095,-1.3828,-1.332,-1.2492,-1.2011,-1.1471,-1.0287,-1.0003,-0.9913,-0.9619,-1.0104,-1.0763,-1.1488,-1.2332,-1.3197,-1.3952,-1.3338,-1.2814,-1.2837,-1.2088,-1.1472,-1.1235,-1.1432,-1.1542,-1.1542,-1.3637,-1.4934,-1.4934,-1.5167,-1.5296,-1.5296,-1.5296,-1.518,-1.4934,-1.4657,-1.4371,-1.4081,-1.3758,-1.3646,-1.3646,-1.3646,-1.3646,-1.3561,0.0,0.0,-1.198,-1.0994,-1.0605,-1.0595,-1.0361,-1.0228,-1.0148,-0.9727,-0.9547,-0.9467,-0.9364,-0.9322,-0.9442,-1.0297,-1.0596,-1.0447,-0.9556,-0.9301,-0.9251,-0.8938,-0.8878,-0.8788,-0.8389,-0.8259,-0.8189,-0.7926,-0.7847,-0.7795,-0.7674,-0.7046,-0.6523,-0.6523,-0.6523,-0.6668,-0.7138,-0.6683,-0.6119,-0.5747,-0.5137,-0.4667,-0.4539,-0.4505,-0.4491,-0.4491,-0.4491,-0.4491,-0.4491,-0.4491,-0.4402,-0.4207,-0.4194,-0.4127,-0.4004,-0.3891,-0.3549,-0.2933,-0.2732,-0.2063,-0.0938,-0.0831,-0.0517,0.0,0.0,0.0,-1.4001,-1.4229,-1.4389,-1.4148,-1.3681,-1.3106,-1.2452,-1.1703,-1.0875,-0.9953,-0.9566,-0.9271,-0.9005,-0.9633,-1.016,-1.0111,-1.0822,-1.1503,-1.1801,-1.171,-1.1739,-1.2076,-1.1956,-1.1821,-1.1781,-1.1811,-1.1841,-1.1841,-1.2228,-1.2517,-1.2517,-1.2549,-1.2581,-1.2581,-1.2581,-1.256,-1.2517,-1.2138,-1.1903,-1.186,-1.1422,-1.1219,-1.1219,-1.1219,-1.1219,-1.1219,0.0,0.0,-1.0864,-1.0692,-1.0605,-1.0605,-1.0565,-1.0401,-1.0188,-1.0108,-0.9847,-0.9487,-0.9496,-0.9404,-0.9339,-0.9518,-0.9556,-0.9518,-0.9339,-0.9301,-0.9291,-0.9251,-0.9193,-0.9133,-0.8788,-0.8624,-0.827,-0.7308,-0.6996,-0.6719,-0.6013,-0.5723,-0.5624,-0.5624,-0.5624,-0.565,-0.5745,-0.5531,-0.5297,-0.5248,-0.5013,-0.4823,-0.4674,-0.4566,-0.4491,-0.4491,-0.4491,-0.4491,-0.4491,-0.4491,-0.4402,-0.4207,-0.4194,-0.4127,-0.4004,-0.3412,-0.3085,-0.3073,-0.1868,-0.1179,-0.1054,-0.0444,-0.0111,0.0,0.0,0.0,-1.4309,-1.4416,-1.4482,-1.4349,-1.3761,-1.2856,-1.1616,-1.0734,-0.9832,-0.8396,-0.796,-0.7816,-0.7687,-0.8246,-0.8788,-0.892,-0.9526,-1.0226,-1.0864,-1.0425,-1.0241,-1.0752,-1.0227,-0.9846,-0.9846,-0.9846,-0.9846,-0.9846,-0.9846,-1.0485,-1.1853,-1.1901,-1.1901,-1.1901,-1.1901,-1.1901,-1.1901,-1.1569,-1.1394,-1.1283,-1.0905,-1.0683,-1.0605,-1.0605,-1.0605,-1.0562,-0.9966,0.0,-0.9662,-0.9052,-0.879,-0.879,-0.879,-0.8696,-0.8562,-0.8513,-0.833,-0.8106,-0.7997,-0.7911,-0.7827,-0.7774,-0.8084,-0.8428,-0.7893,-0.7748,-0.7748,-0.7748,-0.7748,-0.766,-0.743,-0.7277,-0.7097,-0.6467,-0.629,-0.6112,-0.5596,-0.5515,-0.5487,-0.5412,-0.5392,-0.5392,-0.5392,-0.533,-0.5223,-0.511,-0.5042,-0.4941,-0.483,-0.4748,-0.4668,-0.4505,-0.4491,-0.4491,-0.4491,-0.4491,-0.4464,-0.4362,-0.395,-0.3732,-0.3694,-0.2949,-0.2382,-0.207,-0.1365,-0.0853,-0.0532,-0.0168,0.0,0.0,0.0,0.0,-1.3711,-1.3762,-1.3787,-1.3736,-1.3092,-1.2053,-1.0373,-0.9599,-0.8683,-0.6963,-0.6588,-0.6588,-0.6588,-0.7051,-0.7511,-0.778,-0.8297,-0.8945,-0.9717,-0.9104,-0.8779,-0.9322,-0.8574,-0.7988,-0.7988,-0.7988,-0.7988,-0.7988,-0.7988,-0.8924,-1.0974,-1.1072,-1.1072,-1.1072,-1.1072,-1.1072,-1.1072,-1.0809,-1.0651,-1.05,-1.0203,-0.9988,-0.9826,-0.9826,-0.9826,-0.9792,-0.8886,0.0,0.0,-0.7489,-0.7098,-0.7098,-0.7098,-0.7098,-0.7085,-0.697,-0.691,-0.6849,-0.6654,-0.6546,-0.6545,-0.6429,-0.6885,-0.7326,-0.6532,-0.63,-0.63,-0.63,-0.63,-0.6272,-0.6112,-0.602,-0.5952,-0.584,-0.58,-0.5772,-0.5657,-0.5637,-0.5589,-0.5474,-0.5446,-0.5433,-0.5399,-0.5392,-0.5351,-0.5196,-0.4983,-0.4804,-0.4671,-0.4498,-0.4285,-0.4039,-0.4328,-0.4525,-0.4491,-0.4346,-0.4263,-0.4263,-0.3511,-0.3095,-0.3151,-0.2369,-0.1704,-0.1118,-0.095,-0.0588,0.0,0.0,0.0,0.0,0.0,0.0,-1.1172,-1.1372,-1.1521,-1.1224,-1.0656,-0.9943,-0.897,-0.8449,-0.784,-0.6824,-0.6588,-0.6588,-0.6588,-0.69,-0.7013,-0.6634,-0.6975,-0.729,-0.7238,-0.7391,-0.7646,-0.7966,-0.7992,-0.7988,-0.7988,-0.7988,-0.7988,-0.7988,-0.7988,0.0,-0.8329,-0.8386,-0.8386,-0.8386,-0.8386,-0.8386,-0.8386,-0.8223,-0.8067,-0.7919,-0.7809,-0.76,-0.7401,-0.7401,-0.7401,-0.7401,-0.7312,0.0,0.0,-0.7143,-0.7098,-0.7098,-0.7098,-0.7098,-0.7092,-0.7085,-0.6997,-0.6883,-0.6856,-0.6797,-0.6675,-0.6661,-0.6558,-0.6416,-0.6338,-0.63,-0.63,-0.63,-0.63,-0.6293,-0.6279,-0.6132,-0.5952,-0.584,-0.58,-0.58,-0.5786,-0.5779,-0.5739,-0.5596,-0.5569,-0.5562,-0.5419,-0.5392,-0.5392,-0.5378,-0.4638,-0.4055,-0.3908,-0.3198,-0.2656,-0.2444,-0.3771,-0.4641,-0.4505,-0.3876,-0.3511,-0.3511,-0.2758,-0.2313,-0.2313,-0.1592,-0.1174,-0.109,-0.0448,-0.0056,0.0,0.0,0.0,0.0,0.0,0.0,-1.104,-1.1156,-1.1181,-1.1096,-1.0492,-0.9548,-0.825,-0.7638,-0.6958,-0.5623,-0.5336,-0.5336,-0.5336,-0.5448,-0.5522,-0.5492,-0.567,-0.5868,-0.6197,-0.6512,-0.6878,-0.7353,-0.7624,-0.7841,-0.7975,-0.7988,-0.7988,-0.7988,-0.7988,0.0,-0.7988,-0.7988,-0.7988,-0.7988,-0.7988,-0.7988,-0.7988,-0.7928,-0.7875,-0.7726,-0.7577,-0.7428,-0.7278,-0.7139,-0.7098,-0.7098,-0.7098,0.0,0.0,-0.7098,-0.7098,-0.7098,-0.7098,-0.7098,-0.7098,-0.7098,-0.7058,-0.6997,-0.6916,-0.6849,-0.6824,-0.6729,-0.662,-0.6512,-0.6457,-0.6429,-0.6409,-0.6327,-0.63,-0.63,-0.63,-0.6252,-0.6152,-0.6129,-0.6115,-0.6051,-0.5962,-0.5935,-0.5895,-0.5745,-0.5181,-0.4751,-0.4688,-0.4188,-0.3789,-0.3789,-0.3447,-0.3197,-0.3132,-0.2832,-0.2575,-0.2407,-0.2856,-0.3184,-0.3108,-0.2842,-0.2679,-0.2679,-0.1952,-0.1536,-0.1536,-0.0827,-0.0433,-0.0433,-0.0147,0.0,0.0,0.0,0.0,0.0,0.0,0.0273,-0.9938,-1.003,-1.0047,-1.0095,-0.9529,-0.8604,-0.7317,-0.6728,-0.6077,-0.4784,-0.4491,-0.4491,-0.4491,-0.4491,-0.4593,-0.487,-0.4921,-0.5157,-0.5786,-0.6132,-0.6512,-0.697,-0.7346,-0.7631,-0.7833,-0.7941,-0.7988,-0.7988,-0.7988,0.0,-0.7988,-0.7988,-0.7988,-0.7988,-0.7988,-0.7988,-0.7988,-0.7988,-0.7914,-0.7807,-0.7712,-0.7556,-0.7412,-0.7258,-0.7139,-0.7098,0.0,0.0,0.0,-0.7098,-0.7098,-0.7098,-0.7098,-0.7098,-0.7098,-0.7098,-0.7098,-0.7085,-0.6984,-0.695,-0.693,-0.6865,-0.6831,-0.6803,-0.6654,-0.6546,-0.6491,-0.6388,-0.6334,-0.63,-0.63,-0.63,-0.63,-0.63,-0.63,-0.6188,-0.5695,-0.5601,-0.5482,-0.5048,-0.4327,-0.3785,-0.3759,-0.3178,-0.2694,-0.269,-0.2473,-0.2299,-0.2278,-0.2078,-0.1862,-0.1764,-0.1631,-0.1741,-0.2178,-0.1991,-0.1886,-0.1871,-0.1179,-0.0778,-0.0778,-0.0265,0.0,0.0,0.0,0.0,0.0,0.0,0.0,0.0,0.0249,0.1003,-0.7061,-0.7303,-0.7419,-0.7419,-0.7078,-0.6586,-0.5972,-0.561,-0.5253,-0.4614,-0.4491,-0.4491,-0.4491,-0.4491,-0.4593,-0.487,-0.5009,-0.5305,-0.5905,-0.6281,-0.6586,-0.6849,-0.719,-0.7434,-0.759,-0.782,-0.7988,-0.7988,-0.7988,0.0,-0.7988,-0.7988,-0.7988,-0.7988,-0.7988,-0.7988,-0.7988,-0.7988,-0.7914,-0.7814,-0.7807,-0.7651,-0.7419,-0.7412,-0.7285,0.0,0.0,0.0,0.0,-0.7098,-0.7098,-0.7098,-0.7098,-0.7098,-0.7098,-0.7098,-0.7098,-0.7098,-0.7092,-0.7092,-0.7092,-0.7092,-0.7092,-0.7065,-0.6923,-0.6715,-0.6511,-0.6511,-0.6409,-0.63,-0.63,-0.63,-0.63,-0.63,-0.63,-0.6022,-0.4957,-0.4724,-0.4342,-0.3143,-0.2904,-0.2881,-0.2733,-0.272,-0.2697,-0.2697,-0.1918,-0.1313,-0.1311,-0.0572,-0.0034,-0.0034,-0.0034,-0.0624,-0.2068,-0.1537,-0.1107,-0.1107,-0.0431,0.0,0.0,0.0,0.0,0.0,0.0,0.0,0.0,0.0,0.0,0.0031,0.089,0.225,-0.6607,-0.6715,-0.6798,-0.6798,-0.6498,-0.6139,-0.5745,-0.542,-0.5094,-0.4701,-0.4559,-0.4491,-0.4491,-0.4491,-0.4662,-0.5173,-0.5289,-0.546,-0.5925,-0.6376,-0.6702,-0.6862,-0.7556,-0.7963,-0.7909,-0.8079,-0.8153,-0.7995,-0.7988,0.0,-0.7988,-0.7988,-0.7988,-0.7988,-0.7988,-0.7988,-0.7988,-0.7988,-0.7968,-0.7914,-0.7862,-0.776,-0.7672,-0.757,0.0,0.0,0.0,0.0,0.0,-0.7098,-0.7098,-0.701,-0.6251,-0.5935,-0.5847,-0.4999,-0.522,-0.5935,-0.5935,-0.6428,-0.7098,-0.7098,-0.6561,-0.593,-0.589,-0.6288,-0.6763,-0.6661,-0.66,-0.6539,-0.647,-0.5888,-0.5303,-0.5218,-0.4647,-0.4021,-0.3671,-0.3593,-0.3507,-0.3095,-0.2474,-0.1998,-0.1949,-0.1343,-0.0852,-0.0866,-0.0611,-0.0427,-0.0417,-0.0173,0.0,0.0,0.0,-0.0199,-0.0669,-0.0477,-0.0347,-0.034,-0.0123,0.0,0.0,0.0,0.0,0.0,0.0,0.0,0.0,0.0,0.0295,0.0915,0.2435,0.3454,-0.6227,-0.6349,-0.6429,-0.6429,-0.6213,-0.5912,-0.5657,-0.5399,-0.5114,-0.4762,-0.466,-0.4627,-0.4511,-0.4539,-0.4723,-0.5153,-0.5196,-0.5393,-0.5912,-0.6322,-0.6695,-0.7129,-0.7726,-0.8106,-0.8126,-0.8262,-0.8289,-0.814,0.0,0.0,-0.7995,-0.7988,-0.7988,-0.7988,-0.7988,-0.7988,-0.7988,-0.7988,-0.7988,-0.7988,-0.7894,-0.7868,-0.7807,-0.7719,0.0,0.0,0.0,0.0,0.0,-0.598,-0.5799,-0.5708,-0.4981,-0.4732,-0.4651,-0.3882,-0.4088,-0.4732,-0.4732,-0.5176,-0.5797,-0.5797,-0.5309,-0.4732,-0.4732,-0.5102,-0.5513,-0.5393,-0.5355,-0.5339,-0.5222,-0.4711,-0.4209,-0.4107,-0.3584,-0.3008,-0.2616,-0.2518,-0.2423,-0.1994,-0.1409,-0.1015,-0.0999,-0.046,0.0,0.0,0.0,0.0,0.0,0.0,0.0,0.0,0.0,0.0,0.0,0.0,0.0,0.0,0.0,0.0,0.0,0.0,0.0,0.0,0.0,0.0,0.0,0.0337,0.094,0.1874,0.3313,0.4205,0.0,-0.6098,-0.6245,-0.6238,-0.6091,-0.5908,-0.5637,-0.5487,0.0,-0.4796,-0.4823,-0.483,-0.4573,-0.4641,-0.4769,-0.4921,-0.4961,-0.5218,-0.5925,-0.6234,-0.6716,-0.7543,-0.778,-0.7984,-0.8306,-0.8418,-0.8431,-0.8333,0.0,0.0,-0.7895,-0.7839,-0.7839,-0.7733,-0.7733,-0.7789,-0.7988,-0.7988,-0.7939,-0.7839,-0.7839,-0.7766,-0.753,-0.753,0.0,0.0,0.0,0.0,0.0,-0.4127,-0.3607,-0.3607,-0.3512,-0.3471,-0.346,-0.3368,-0.3419,-0.3451,-0.3492,-0.3534,-0.3578,-0.3482,-0.3482,-0.3438,-0.3349,-0.3348,-0.3283,-0.3173,-0.3154,-0.3154,-0.3109,-0.3064,-0.3022,-0.3016,-0.2926,-0.2637,-0.1668,-0.148,-0.1181,-0.0197,0.0,0.0,0.0,0.0,0.0,0.0,0.0,0.0,0.0,0.0,0.0,0.0,0.0,0.0,0.0,0.0,0.0,0.0,0.0,0.0,0.0,0.0,0.0,0.0,0.0068,0.0102,0.0102,0.108,0.1987,0.2861,0.3737,0.4676,-0.5535,0.0,-0.5754,-0.5638,-0.5576,-0.5535,0.0,-0.5298,-0.5121,-0.4911,-0.4867,-0.4897,-0.4823,-0.4843,-0.5026,-0.5515,-0.5691,-0.5908,-0.6308,-0.6898,-0.7489,-0.8045,-0.8343,-0.8479,-0.8438,-0.8567,-0.8547,-0.834,0.0,-0.7737,-0.6537,-0.6481,-0.5977,-0.4968,-0.4918,-0.5922,-0.7988,-0.7988,-0.7484,-0.6481,-0.6481,-0.5912,-0.4885,-0.4885,0.0,0.0,0.0,0.0,-0.4033,-0.3749,-0.3607,-0.3512,-0.2566,-0.2228,-0.2126,-0.1181,-0.1414,-0.2245,-0.221,-0.2838,-0.3464,-0.2516,-0.2236,-0.2057,-0.1121,-0.2096,-0.3541,-0.348,-0.3473,-0.3463,-0.3366,-0.2706,-0.2097,-0.1978,-0.1337,-0.0667,-0.0418,-0.0374,-0.0288,-0.004,0.0,0.0,0.0,0.0,0.0,0.0,0.0,0.0,0.0,0.0,0.0,0.0,0.0,0.0,0.0,0.0,0.0,0.0,0.0,0.0,0.0,0.0,0.0,0.0,0.0822,0.1215,0.1215,0.2921,0.3878,0.4091,0.498,0.5499,-0.5292,-0.5508,-0.5569,-0.5521,-0.5501,-0.5501,-0.5501,-0.5014,-0.454,-0.4415,-0.4119,-0.3835,-0.3702,-0.3742,-0.3904,-0.4227,-0.4328,-0.48,-0.5942,-0.6535,-0.702,-0.7415,-0.7588,-0.7396,0.0,-0.6736,-0.6699,0.0,0.0,-0.6036,-0.5103,-0.5061,-0.4731,-0.4018,-0.3984,-0.4718,-0.6171,-0.6176,-0.5822,-0.5072,-0.5072,-0.4718,-0.4014,-0.4014,-0.3944,0.0,0.0,0.0,-0.2828,-0.2197,-0.1953,-0.1904,-0.1223,-0.0973,-0.0917,-0.0242,-0.0432,-0.0951,-0.0988,-0.1405,-0.1821,-0.1202,-0.0962,-0.0864,-0.0182,-0.0903,-0.1968,-0.1968,-0.1968,-0.1919,-0.1855,-0.141,-0.0966,-0.0868,-0.043,0.0,0.0,0.0,0.0,0.0,0.0,0.0,0.0,0.0,0.0,0.0,0.0,0.0,0.0,0.0,0.0,0.0,0.0,0.0,0.0,0.0,0.0,0.0,0.0,0.0,0.0,0.0,0.0219,0.0728,0.131,0.1816,0.2288,0.3768,0.4493,0.4529,0.5398,0.584,-0.477,-0.5089,-0.5218,-0.5328,-0.5271,-0.5152,-0.5142,-0.4462,-0.3751,-0.3645,-0.3128,-0.2622,-0.234,-0.2411,-0.2532,-0.2562,-0.2581,-0.323,-0.5045,-0.5538,-0.5831,-0.6114,-0.6162,-0.5768,-0.463,-0.4526,-0.4439,0.0,0.0,-0.4054,-0.3716,-0.3711,-0.3578,-0.3371,-0.3372,-0.3394,-0.3394,-0.3786,-0.3883,-0.3682,-0.3682,-0.3575,-0.3366,-0.3366,-0.3366,0.0,0.0,0.0,-0.1611,-0.0454,0.0,0.0,0.0,0.0,0.0,0.0,0.0,0.0,0.0,0.0,0.0,0.0,0.0,0.0,0.0,0.0,0.0,0.0,0.0,0.0,0.0,0.0,0.0,0.0,0.0,0.0,0.0,0.0,0.0,0.0,0.0,0.0,0.0,0.0,0.0,0.0,0.0,0.0,0.0,0.0,0.0,0.0,0.0,0.0,0.0,0.0,0.0,0.0,0.0,0.0074,0.0221,0.0258,0.0736,0.1801,0.1985,0.2498,0.3345,0.4291,0.4764,0.4801,0.554,0.5942,-0.308,-0.3216,-0.3451,-0.4081,-0.37,-0.3137,-0.3131,-0.3021,-0.2854,-0.2713,-0.2713,-0.2696,-0.2641,-0.266,-0.27,-0.2802,-0.2926,-0.3252,-0.3981,-0.4208,-0.4351,-0.4507,-0.4687,-0.4734,-0.4526,-0.4526,0.0,0.0,0.0,-0.3622,-0.2392,-0.2331,-0.18,-0.0637,-0.0635,-0.0634,-0.0634,-0.2853,-0.3446,-0.2317,-0.2317,-0.1687,-0.0605,-0.0605,-0.0605,0.0,0.0,-0.0303,-0.0303,-0.0101,0.0,0.0,0.0,0.0,0.0,0.0,0.0,0.0,0.0,0.0,0.0,0.0,0.0,0.0,0.0,0.0,0.0,0.0,0.0,0.0,0.0,0.0,0.0,0.0,0.0,0.0,0.0,0.0,0.0,0.0,0.0,0.0,0.0,0.0,0.0,0.0,0.0,0.0,0.0,0.0,0.0,0.0,0.0,0.0,0.0,0.0,0.0,0.0,0.0,0.0388,0.1318,0.1357,0.182,0.2857,0.3746,0.4289,0.4443,0.5529,0.6033,0.6033,0.6155,0.6238,-0.2554,-0.2391,-0.2126,-0.2447,-0.2685,-0.2797,-0.2806,-0.236,-0.193,-0.1874,-0.1539,-0.1229,-0.1229,-0.1253,-0.1245,-0.1318,-0.1365,-0.1794,-0.2785,-0.2969,-0.3036,-0.3086,-0.3226,-0.2961,-0.2125,-0.2069,0.0,0.0,0.0,0.0,-0.0931,-0.0923,-0.0648,0.0,0.0,0.0,0.0,-0.1232,-0.1538,-0.0894,-0.0894,-0.0574,0.0,0.0,0.0,0.0,0.0,0.0,0.0,0.0,0.0,0.0,0.0,0.0,0.0,0.0,0.0,0.0,0.0,0.0,0.0,0.0,0.0,0.0,0.0,0.0,0.0,0.0,0.0,0.0,0.0,0.0,0.0,0.0,0.0,0.0,0.0,0.0,0.0,0.0,0.0,0.0,0.0,0.0,0.0,0.0,0.0,0.0,0.0,0.0,0.0,0.0,0.0579,0.0988,0.0978,0.1587,0.165,0.0904,0.0863,0.1333,0.2384,0.2423,0.2891,0.3943,0.4453,0.5002,0.555,0.606,0.634,0.6416,0.6416,0.6457,-0.1856,-0.1551,-0.0979,-0.1003,-0.1614,-0.2239,-0.2237,-0.1598,-0.0986,-0.1009,-0.0446,0.0,0.0,0.0,0.0,0.0,0.0,-0.037,-0.1549,-0.1684,-0.171,-0.1676,-0.1678,-0.1231,-0.0112,0.0,0.0,0.0,0.0,0.0,0.0,0.0,0.0,0.0,0.0,0.0,0.0,0.0,0.0,0.0,0.0,0.0,0.0,0.0,0.0,0.0,0.0,0.0,0.0,0.0,0.0,0.0,0.0,0.0,0.0,0.0,0.0,0.0,0.0,0.0,0.0,0.0,0.0,0.0,0.0,0.0,0.0,0.0,0.0,0.0,0.0,0.0,0.0,0.0,0.0,0.0,0.0,0.0,0.0,0.0,0.0,0.0,0.0,0.0,0.0,0.0,0.0,0.0,0.0,0.0,0.0,0.0,0.11,0.1898,0.2181,0.3058,0.3261,0.2474,0.219,0.2505,0.3533,0.3572,0.4086,0.5162,0.5162,0.5562,0.6402,0.6402,0.6457,0.6566,0.6566,0.6586,-0.0185,-0.0151,-0.0076,-0.0078,-0.0154,-0.0194,-0.0207,-0.0162,-0.0081,-0.0088,-0.0045,0.0,0.0,0.0,0.0,0.0,0.0,-0.0055,-0.0164,-0.0166,-0.0168,-0.0168,-0.0168,-0.0112,0.0,0.0,0.0,0.0,0.0,0.0,0.0,0.0,0.0,0.0,0.0,0.0,0.0,0.0,0.0,0.0,0.0,0.0,0.0,0.0,0.0,0.0,0.0,0.0,0.0,0.0,0.0,0.0,0.0,0.0,0.0,0.0,0.0,0.0,0.0,0.0,0.0,0.0,0.0,0.0,0.0,0.0,0.0,0.0,0.0,0.0,0.0,0.0,0.0,0.0,0.0,0.0,0.0,0.0,0.0,0.0,0.0,0.0,0.0,0.0,0.0,0.0,0.0,0.0,0.0,0.0,0.0,0.0,0.1082,0.2271,0.3357,0.3562,0.3972,0.4785,0.396,0.3918,0.4909,0.495,0.5452,0.6544,0.6544,0.6585,0.6668,0.6668,0.6675,0.6681,0.6681,0.6688,0.0,0.0,0.0,0.0,0.0,0.0,0.0,0.0,0.0,0.0,0.0,0.0,0.0,0.0,0.0,0.0,0.0,0.0,0.0,0.0,0.0,0.0,0.0,0.0,0.0,0.0,0.0,0.0,0.0,0.0,0.0,0.0,0.0,0.0,0.0,0.0,0.0,0.0,0.0,0.0,0.0,0.0,0.0,0.0,0.0,0.0,0.0,0.0,0.0,0.0,0.0,0.0,0.0,0.0,0.0,0.0,0.0,0.0,0.0,0.0,0.0,0.0,0.0,0.0,0.0,0.0,0.0,0.0,0.0,0.0,0.0,0.0,0.0,0.0,0.0,0.0,0.0,0.0,0.0,0.0,0.0,0.0,0.0,0.0,0.0,0.0,0.0,0.0,0.0,0.0645,0.1139,0.113,0.285,0.4529,0.567,0.5794,0.5924,0.6319,0.5225,0.5017,0.6067,0.6108,0.628,0.6702,0.6702,0.6702,0.6702,0.6702,0.6749,0.6844,0.6844,0.6892,0.0,0.0,0.0,0.0,0.0,0.0,0.0,0.0,0.0,0.0,0.0,0.0,0.0,0.0,0.0,0.0,0.0,0.0,0.0,0.0,0.0,0.0,0.0,0.0,0.0,0.0,0.0,0.0,0.0,0.0,0.0,0.0,0.0,0.0,0.0,0.0,0.0,0.0,0.0,0.0,0.0,0.0,0.0,0.0,0.0,0.0,0.0,0.0,0.0,0.0,0.0,0.0,0.0,0.0,0.0,0.0,0.0,0.0,0.0,0.0,0.0,0.0,0.0,0.0,0.0,0.0,0.0,0.0,0.0,0.0,0.0,0.0,0.0,0.0,0.0,0.0,0.0,0.0,0.0,0.0,0.0,0.0,0.0,0.0,0.0,0.0,0.0381,0.0619,0.0619,0.1739,0.2653,0.3025,0.4522,0.5953,0.7077,0.7125,0.7098,0.7098,0.6251,0.6063,0.6795,0.6837,0.6837,0.6837,0.6837,0.6837,0.6837,0.6837,0.6892,0.695,0.695,0.7004,0.0,0.0,0.0,0.0,0.0,0.0,0.0,0.0,0.0,0.0,0.0,0.0,0.0,0.0,0.0,0.0,0.0,0.0,0.0,0.0,0.0,0.0,0.0,0.0,0.0,0.0,0.0,0.0,0.0,0.0,0.0,0.0,0.0,0.0,0.0,0.0,0.0,0.0,0.0,0.0,0.0,0.0,0.0,0.0,0.0,0.0,0.0,0.0,0.0,0.0,0.0,0.0,0.0,0.0,0.0,0.0,0.0,0.0,0.0,0.0,0.0,0.0,0.0,0.0,0.0,0.0,0.0,0.0,0.0,0.0,0.0,0.0,0.0,0.0,0.0,0.0,0.0,0.0,0.0,0.0,0.0,0.0,0.0,0.0048,0.0048,0.0048,0.1191,0.2,0.2048,0.3183,0.4462,0.569,0.5686,0.6082,0.7282,0.7231,0.7098,0.7098,0.7098,0.7098,0.7098,0.7098,0.7098,0.7098,0.7098,0.7098,0.7098,0.7098,0.7098,0.7098,0.7098,0.7098,0.0,0.0,0.0,0.0,0.0,0.0,0.0,0.0,0.0,0.0,0.0,0.0,0.0,0.0,0.0,0.0,0.0,0.0,0.0,0.0,0.0,0.0,0.0,0.0,0.0,0.0,0.0,0.0,0.0,0.0,0.0,0.0,0.0,0.0,0.0,0.0,0.0,0.0,0.0,0.0,0.0,0.0,0.0,0.0,0.0,0.0,0.0,0.0,0.0,0.0,0.0,0.0,0.0,0.0,0.0,0.0,0.0,0.0,0.0,0.0,0.0,0.0,0.0,0.0,0.0,0.0,0.0,0.0,0.0,0.0,0.0,0.0,0.0,0.0,0.0,0.0,0.0,0.0,0.0,0.0,0.075,0.1396,0.1389,0.2176,0.2818,0.2818,0.3164,0.3736,0.4562,0.5037,0.5734,0.6938,0.7035,0.7156,0.7529,0.7489,0.7461,0.7461,0.7461,0.7366,0.7105,0.7098,0.7098,0.7098,0.7098,0.7098,0.7098,0.7098,0.7152,0.7299,0.7299,0.736,0.0,0.0,0.0,0.0,0.0,0.0,0.0,0.0,0.0,0.0,0.0,0.0,0.0,0.0,0.0,0.0,0.0,0.0,0.0,0.0,0.0,0.0,0.0,0.0,0.0,0.0,0.0,0.0,0.0,0.0,0.0,0.0,0.0,0.0,0.0,0.0,0.0,0.0,0.0,0.0,0.0,0.0,0.0,0.0,0.0,0.0,0.0,0.0,0.0,0.0,0.0,0.0,0.0,0.0,0.0,0.0,0.0,0.0,0.0,0.0,0.0,0.0,0.0,0.0,0.0,0.0,0.0,0.0,0.0435,0.0869,0.0869,0.1304,0.1619,0.1001,0.0891,0.1042,0.1534,0.168,0.1677,0.1614,0.2264,0.2814,0.2814,0.3466,0.4014,0.4014,0.4468,0.525,0.653,0.6666,0.6936,0.7684,0.7719,0.7685,0.7685,0.7631,0.7597,0.7597,0.7597,0.7516,0.7287,0.7265,0.7258,0.7274,0.7265,0.7265,0.7274,0.7274,0.7373,0.7461,0.7461,0.778,0.0,0.0,0.0,0.0,0.0,0.0,0.0,0.0,0.0,0.0,0.0,0.0,0.0,0.0,0.0,0.0,0.0,0.0,0.0,0.0,0.0,0.0,0.0,0.0,0.0,0.0,0.0,0.0,0.0,0.0,0.0,0.0,0.0,0.0,0.0,0.0,0.0,0.0,0.0,0.0,0.0,0.0,0.0,0.0,0.0,0.0,0.0,0.0,0.0,0.0,0.0,0.0,0.0,0.0,0.0,0.0,0.0,0.0,0.0,0.0,0.0,0.0,0.0,0.0,0.0168,0.0224,0.0224,0.0392,0.1399,0.2403,0.2403,0.3463,0.4159,0.2904,0.2506,0.2755,0.395,0.4243,0.4167,0.4041,0.4128,0.4225,0.4168,0.4268,0.4368,0.4368,0.5422,0.6631,0.7839,0.7988,0.7988,0.7988,0.7916,0.7834,0.7834,0.7712,0.7638,0.7638,0.7638,0.7638,0.7638,0.7482,0.7455,0.7597,0.7461,0.7461,0.7597,0.7597,0.7604,0.7617,0.7759,0.841,0.0,0.0,0.0,0.0,0.0,0.0,0.0,0.0,0.0,0.0,0.0,0.0,0.0,0.0,0.0,0.0,0.0,0.0,0.0,0.0,0.0,0.0,0.0,0.0,0.0,0.0,0.0,0.0,0.0,0.0,0.0,0.0,0.0,0.0,0.0,0.0,0.0,0.0,0.0,0.0,0.0,0.0,0.0,0.0,0.0,0.0,0.0,0.0,0.0,0.0,0.0,0.0,0.0,0.0,0.0,0.0,0.0,0.0,0.0,0.0,0.0,0.0,0.0,0.0224,0.1399,0.1733,0.1956,0.3187,0.3745,0.4024,0.4024,0.4247,0.4686,0.5533,0.4865,0.4098,0.4394,0.4432,0.4355,0.4171,0.5026,0.5768,0.5591,0.6426,0.7129,0.7129,0.7385,0.769,0.7939,0.7988,0.7988,0.7988,0.7961,0.7941,0.7941,0.7914,0.7894,0.7894,0.7894,0.7894,0.7894,0.7692,0.7563,0.7597,0.757,0.7563,0.7597,0.7597,0.7658,0.7767,0.8854,0.9548,0.0,0.0,0.0,0.0,0.0,0.0,0.0,0.0,0.0,0.0,0.0,0.0,0.0,0.0,0.0,0.0,0.0,0.0,0.0,0.0,0.0,0.0,0.0,0.0,0.0,0.0,0.0,0.0,0.0,0.0,0.0,0.0,0.0,0.0,0.0,0.0,0.0,0.0,0.0,0.0,0.0,0.0,0.0,0.0,0.0,0.0,0.0,0.0,0.0,0.0,0.0,0.0,0.0,0.0,0.0,0.0,0.0,0.0,0.0,0.0,0.0,0.0,0.0,0.0168,0.0896,0.1622,0.2347,0.3185,0.4414,0.5528,0.5528,0.6089,0.6811,0.7593,0.6599,0.5704,0.6358,0.6498,0.6447,0.6225,0.6765,0.7184,0.7004,0.7534,0.7988,0.7988,0.7988,0.7988,0.7988,0.7988,0.7988,0.7988,0.7988,0.7988,0.7988,0.7988,0.7988,0.7988,0.7988,0.7988,0.7988,0.784,0.7807,0.7807,0.774,0.774,0.7807,0.7807,0.8132,0.8886,0.9559,1.0581,0.0,0.0,0.0,0.0,0.0,0.0,0.0,0.0,0.0,0.0,0.0,0.0,0.0,0.0,0.0,0.0,0.0,0.0,0.0,0.0,0.0,0.0,0.0,0.0,0.0,0.0,0.0,0.0,0.0,0.0,0.0,0.0,0.0,0.0,0.0,0.0,0.0,0.0,0.0,0.0,0.0,0.0294,0.0762,0.053,0.0295,0.0,0.0,0.0,0.0,0.0,0.0,0.0,0.0,0.0175,0.0402,0.0402,0.0568,0.0784,0.0784,0.0784,0.0784,0.0784,0.0784,0.084,0.1064,0.2014,0.3015,0.3294,0.5135,0.7093,0.7093,0.7986,0.8885,0.8885,0.7986,0.7398,0.8499,0.875,0.8669,0.8397,0.8354,0.8221,0.8015,0.7988,0.7988,0.7988,0.7988,0.7988,0.7988,0.7988,0.8029,0.8137,0.8143,0.8123,0.8069,0.8083,0.8062,0.7995,0.8015,0.8015,0.7988,0.7988,0.8002,0.8029,0.7929,0.7916,0.7988,0.8237,0.8939,1.0094,1.0538,1.1913,0.0,0.0,0.0,0.0,0.0,0.0,0.0,0.0,0.0,0.0,0.0,0.0,0.0,0.0,0.0,0.0,0.0,0.0,0.0,0.0,0.0,0.0,0.0,0.0,0.0,0.0,0.0,0.0,0.0,0.0,0.0,0.0,0.0,0.0,0.0,0.0,0.0,0.0,0.0,0.0,0.0,0.1343,0.3851,0.2721,0.137,0.0,0.0,0.0,0.0,0.0,0.0,0.0,0.0,0.0757,0.1892,0.1892,0.278,0.3913,0.3913,0.3913,0.3913,0.3913,0.3913,0.4136,0.5417,0.5917,0.6366,0.7648,0.8318,0.8602,0.8602,0.8768,0.8885,0.8885,0.8768,0.865,0.8858,0.8851,0.8804,0.8682,0.8445,0.8221,0.8015,0.7988,0.7988,0.7988,0.7988,0.7988,0.7988,0.7988,0.819,0.871,0.8763,0.871,0.8445,0.8506,0.8359,0.8008,0.8167,0.818,0.7995,0.7988,0.8106,0.8235,0.8085,0.7968,0.7988,0.9164,0.9929,1.0381,1.267,1.4071,0.0,0.0,0.0,0.0,0.0,0.0,0.0,0.0,0.0,0.0,0.0,0.0,0.0,0.0,0.0,0.0,0.0,0.0,0.0,0.0,0.0,0.0,0.0,0.0,0.0,0.0,0.0,0.0,0.0,0.0,0.0,0.0,0.0,0.0,0.0925,0.1418,0.1418,0.2198,0.2592,0.2492,0.2533,0.323,0.4588,0.3999,0.3353,0.262,0.2703,0.2701,0.2618,0.2618,0.2618,0.2618,0.2618,0.308,0.3702,0.3611,0.402,0.4581,0.454,0.4526,0.4526,0.4526,0.4526,0.4637,0.525,0.6033,0.6811,0.7482,0.8269,0.8885,0.8885,0.8885,0.8885,0.8885,0.8885,0.8885,0.8885,0.8885,0.8838,0.8743,0.8533,0.835,0.8177,0.8157,0.8116,0.8008,0.7988,0.7988,0.7988,0.7988,0.8217,0.8817,0.8885,0.8831,0.875,0.8723,0.8676,0.8501,0.8397,0.8303,0.8289,0.8289,0.8316,0.8384,0.8241,0.8208,0.8289,0.9697,1.0797,1.1693,1.3668,1.5044,0.0731,0.0755,0.0712,0.0445,0.0406,0.0357,0.0061,0.0,0.0,0.0,0.0,0.0,0.0,0.0,0.0,0.0,0.0,0.0,0.0,0.0,0.0,0.0,0.0,0.0,0.0,0.0,0.0,0.0,0.0,0.0,0.0,0.0432,0.0617,0.0617,0.2216,0.3071,0.3058,0.409,0.4795,0.5067,0.4657,0.4973,0.5777,0.5385,0.5467,0.5852,0.5179,0.4825,0.4771,0.4771,0.4771,0.4771,0.4771,0.5047,0.542,0.5299,0.5495,0.5729,0.5665,0.5639,0.5639,0.5639,0.5639,0.5639,0.5639,0.6442,0.736,0.736,0.8171,0.9049,0.9049,0.9049,0.9049,0.9049,0.9022,0.8981,0.8892,0.8885,0.8838,0.8743,0.8608,0.8486,0.8312,0.8244,0.8164,0.8015,0.8116,0.8217,0.8217,0.8217,0.8386,0.8838,0.8885,0.8885,0.8885,0.8885,0.8885,0.8885,0.8568,0.8445,0.8479,0.8479,0.8709,0.9113,0.8997,0.8976,0.9048,1.0491,1.1906,1.3307,1.4742,1.5973,0.2698,0.2827,0.2693,0.1739,0.1607,0.1418,0.0235,0.0,0.0,0.0,0.0,0.0,0.0,0.0,0.0,0.0,0.0,0.0,0.0,0.0,0.0,0.0,0.0,0.0,0.0,0.0,0.0,0.0,0.0,0.0,0.0,0.1479,0.2339,0.2339,0.3935,0.4699,0.4571,0.4555,0.5238,0.6578,0.5154,0.5964,0.8641,0.7341,0.7629,0.8994,0.6125,0.4913,0.4909,0.4909,0.4909,0.4909,0.4909,0.5662,0.6803,0.6798,0.7584,0.867,0.8663,0.8657,0.8657,0.8657,0.8657,0.8657,0.8657,0.8861,0.9087,0.9087,0.9188,0.9361,0.9361,0.9361,0.9361,0.9361,0.9303,0.9103,0.8967,0.8885,0.8838,0.8743,0.8669,0.8514,0.8319,0.813,0.8002,0.7988,0.8474,0.8838,0.8838,0.8838,0.8851,0.8878,0.8885,0.8885,0.8885,0.8885,0.8885,0.8885,0.8784,0.8628,0.8486,0.8479,0.9226,1.0752,1.0743,1.0712,1.0595,1.1878,1.338,1.5087,1.6446,1.7275,0.2801,0.2941,0.3011,0.2661,0.2771,0.2909,0.2648,0.2742,0.2934,0.3024,0.2262,0.1602,0.1602,0.0734,0.0,0.0,0.0,0.0,0.0,0.0,0.0,0.0,0.0,0.0,0.0,0.0,0.0,0.0,0.0,0.0,0.3136,0.3689,0.4057,0.4057,0.5536,0.6693,0.7564,0.7519,0.7726,0.8109,0.76,0.7959,0.9083,0.8711,0.8852,0.9478,0.8455,0.8,0.7922,0.7844,0.7855,0.7922,0.7838,0.8206,0.8743,0.8663,0.8929,0.9354,0.9259,0.9225,0.9225,0.9225,0.9225,0.9225,0.9225,0.9259,0.9357,0.9357,0.934,0.9381,0.9381,0.9381,0.9381,0.9381,0.9388,0.9361,0.9245,0.9076,0.8865,0.8811,0.879,0.8757,0.8683,0.8608,0.8561,0.8561,0.8743,0.8885,0.8885,0.8885,0.8885,0.8885,0.8885,0.8885,0.8885,0.8885,0.8966,0.9211,0.9117,0.9055,0.9055,0.9023,0.921,0.9813,1.0631,1.1451,1.2385,1.371,1.4714,1.5335,1.6781,1.7527,0.3697,0.3872,0.4025,0.3803,0.3871,0.3987,0.4115,0.4262,0.4419,0.4657,0.3952,0.3323,0.3323,0.1955,0.0668,0.0122,0.0,0.0,0.0,0.0,0.0,0.0,0.0,0.0,0.0,0.0,0.0,0.0,0.0,0.0,0.4119,0.5161,0.5941,0.6463,0.7383,0.8288,0.9214,0.9159,0.9035,0.8885,0.8885,0.9015,0.9214,0.9316,0.9415,0.9612,0.9707,0.9727,0.9673,0.9571,0.9591,0.9673,0.9571,0.9618,0.9741,0.9646,0.9578,0.9517,0.9415,0.9381,0.9381,0.9381,0.9381,0.9381,0.9381,0.9415,0.9456,0.9456,0.949,0.953,0.953,0.953,0.9517,0.9469,0.9503,0.9517,0.9408,0.9225,0.9089,0.9089,0.8952,0.8885,0.8885,0.8885,0.8885,0.8885,0.8885,0.8885,0.8885,0.8885,0.8885,0.8885,0.8885,0.8885,0.8885,0.8885,0.9049,0.932,0.9252,0.9259,0.9374,0.9853,1.0269,1.0659,1.2027,1.3389,1.4716,1.5198,1.5636,1.618,1.7251,1.7796,0.0,0.0,0.0,0.5287,0.494,0.4736,0.4636,0.4335,0.4233,0.4746,0.4912,0.4967,0.4977,0.3628,0.2033,0.0432,0.0062,0.0,0.0,0.0,0.0,0.0062,0.0,0.0,0.0,0.0,0.0,0.0,0.0,0.2706,0.2708,0.577,0.8104,0.9552,0.9462,0.9313,0.9221,0.9022,0.8898,0.8898,0.8898,0.9022,0.9214,0.9221,0.9327,0.9612,0.9612,0.9693,0.9822,0.9815,0.9815,0.9822,0.9815,0.9734,0.9618,0.9618,0.9523,0.9395,0.9395,0.9395,0.9395,0.9395,0.9395,0.9395,0.9395,0.9496,0.9618,0.9618,0.9713,0.9822,0.9822,0.9822,0.9788,0.9646,0.9618,0.9578,0.9429,0.9395,0.9395,0.9381,0.915,0.8898,0.8898,0.8905,0.8912,0.8912,0.8912,0.8912,0.8912,0.8892,0.8885,0.8885,0.8885,0.8892,0.8905,0.8898,0.8986,0.9181,0.9198,0.9289,0.9504,1.0993,1.2323,1.3517,1.5098,1.6451,1.7543,1.6127,1.6221,1.7595,1.7889,1.8129,0.5806,0.0,0.0,0.0,0.0,0.0,0.6549,0.6606,0.6805,0.756,0.6863,0.617,0.6635,0.5341,0.4057,0.3628,0.154,0.0,0.0,0.0,0.0432,0.1663,0.0,0.0,0.0,0.0,0.0,0.0,0.6747,0.7708,0.7789,0.8653,0.9265,0.9612,0.9571,0.9469,0.932,0.9279,0.9259,0.9259,0.9259,0.9279,0.932,0.9435,0.953,0.9612,0.972,0.9781,0.9815,0.9707,0.9727,0.9808,0.9707,0.9707,0.9761,0.9761,0.9734,0.97,0.97,0.97,0.97,0.97,0.97,0.97,0.97,0.9727,0.9761,0.9761,0.9788,0.9822,0.9822,0.9822,0.9808,0.9774,0.9761,0.9747,0.9707,0.97,0.9639,0.9422,0.9313,0.9259,0.9259,0.9435,0.9578,0.9578,0.9578,0.9578,0.9578,0.9148,0.8885,0.8885,0.8885,0.9053,0.9537,0.9381,0.9374,0.9646,0.9551,1.0075,1.1343,1.1753,1.2641,1.4141,1.5322,1.6048,1.6355,1.6813,1.7199,1.7582,1.7675,1.7756,0.6078,0.6265,0.6538,0.66,0.0,0.0,0.7603,0.7672,0.7855,0.8696,0.8152,0.7657,0.8171,0.6865,0.5738,0.5835,0.3674,0.2033,0.2033,0.2033,0.2401,0.3384,0.0,0.0,0.0,0.5669,0.6202,0.632,0.779,0.8998,0.9754,0.9822,0.9754,0.9612,0.9612,0.9537,0.9381,0.9381,0.9381,0.9381,0.9381,0.9415,0.9483,0.9571,0.9639,0.97,0.9788,0.9822,0.9815,0.9734,0.9747,0.9815,0.9727,0.9747,0.9822,0.9822,0.9822,0.9822,0.9822,0.9822,0.9822,0.9822,0.9863,0.9856,0.9856,0.9964,1.0012,1.0012,1.0012,1.0012,1.0012,1.0012,1.0012,1.0012,1.0012,1.0012,1.0012,0.9978,0.9869,0.9612,0.9564,0.9564,0.9564,0.9707,0.9822,0.9822,0.9822,0.9822,0.9822,0.9517,0.9249,0.9249,0.9249,0.9449,0.9788,0.9659,0.9612,0.9727,1.0301,1.1082,1.2148,1.3405,1.4463,1.525,1.641,1.6867,1.663,1.7278,1.7649,1.7769,1.7769,1.7836,0.6477,0.6504,0.0,0.0,0.6736,0.0,0.7883,0.7801,0.7767,0.8561,0.8737,0.8893,0.9218,0.8071,0.7122,0.721,0.621,0.5262,0.4977,0.4916,0.4977,0.5161,0.0,0.0,0.5406,0.5468,0.5468,0.5468,0.6813,0.8282,0.97,0.9822,0.9761,0.9639,0.9632,0.9564,0.9435,0.9429,0.9429,0.9429,0.9429,0.9503,0.9632,0.9632,0.97,0.9822,0.9822,0.9822,0.9822,0.9822,0.9822,0.9822,0.9822,0.9822,0.9822,0.9822,0.9829,0.9842,0.9842,0.9856,0.9869,0.9869,0.9964,1.0011,1.0011,1.0175,1.0283,1.0283,1.0283,1.0283,1.0283,1.0283,1.0283,1.0283,1.0283,1.0283,1.0283,1.0215,1.01,0.9924,0.9849,0.9822,0.9822,0.9822,0.9822,0.9822,0.9822,0.9822,0.9822,0.9822,0.9822,0.9822,0.9822,0.9822,0.9822,0.9822,0.9828,0.9877,1.1205,1.2217,1.268,1.5478,1.6914,1.6805,1.7935,1.8263,1.7689,1.7609,1.7729,1.7942,1.7942,1.8143,0.7021,0.7082,0.7156,0.7007,0.0,0.0,0.7,0.7034,0.721,0.7753,0.7862,0.8024,0.856,0.8486,0.8314,0.8224,0.8389,0.7697,0.5265,0.4916,0.5406,0.6747,0.0,0.0,0.8714,0.8836,0.8836,0.8836,0.9147,0.9451,0.9761,0.9822,0.9808,0.9781,0.9781,0.9768,0.9734,0.9734,0.9734,0.9734,0.9734,0.9747,0.9781,0.9781,0.9795,0.9822,0.9822,0.9822,0.9822,0.9822,0.9822,0.9822,0.9822,0.9822,0.9822,0.9822,0.9897,0.9943,0.9943,1.0086,1.0188,1.0188,1.0209,1.0236,1.0236,1.0256,1.0283,1.0283,1.0283,1.0283,1.0283,1.0283,1.0283,1.0283,1.0283,1.0283,1.0283,1.0324,1.0351,1.031,1.0046,0.9822,0.9822,0.9822,0.9822,0.9822,0.9822,0.9822,0.9822,0.9822,0.9822,0.9822,0.9822,0.9822,0.9822,0.9822,1.0347,1.1627,1.1987,1.3301,1.595,1.6668,1.7594,1.8803,1.8814,1.8664,1.8317,1.7822,1.7609,1.7675,1.7675,1.7702,0.7428,0.7428,0.7468,0.7387,0.0,0.0,0.0,0.7143,0.7139,0.7712,0.7645,0.7645,0.8167,0.8262,0.8289,0.8364,0.8934,0.8711,0.7142,0.7165,0.7673,0.8526,0.0,0.0,0.97,0.9822,0.9822,0.9822,0.9822,0.9822,0.9822,0.9822,0.9822,0.9822,0.9822,0.9822,0.9822,0.9822,0.9822,0.9822,0.9822,0.9822,0.9822,0.9822,0.9822,0.9822,0.9903,0.9876,0.9876,1.0019,1.0053,1.0039,0.9964,0.9876,0.9883,1.0019,1.01,1.0168,1.0168,1.0215,1.0283,1.0283,1.0331,1.0385,1.0385,1.0439,1.05,1.05,1.05,1.05,1.05,1.05,1.05,1.05,1.05,1.05,1.05,1.0534,1.0568,1.0568,1.0324,1.0107,1.0059,1.0053,0.9998,0.9842,0.9822,0.9822,0.9822,0.9822,0.9822,0.9822,0.9822,0.9822,0.9822,0.9822,1.0482,1.2097,1.2928,1.448,1.6903,1.7747,1.8513,1.9145,1.8998,1.8784,1.849,1.8183,1.8036,1.8036,1.8036,1.8036,0.0,0.0,0.0,0.0,0.0,0.7361,0.0,0.0,0.0,0.7685,0.7556,0.7434,0.7752,0.7787,0.7801,0.8018,0.0,0.0,0.0,0.9252,0.0,0.9686,0.0,0.0,0.0,0.9727,0.9727,0.9815,0.9741,0.9727,0.9815,0.9822,0.9822,0.9822,0.9822,0.9822,0.9822,0.9822,0.9822,0.9822,0.9849,0.9863,0.9869,0.9897,0.991,0.9917,1.0039,1.0031,1.0038,1.0229,1.0283,1.027,1.0141,1.0031,1.0107,1.0236,1.0297,1.0324,1.0324,1.0337,1.0365,1.0365,1.0439,1.0534,1.0534,1.0622,1.0717,1.0717,1.0717,1.0717,1.0717,1.0717,1.0717,1.0717,1.0717,1.0717,1.0717,1.0717,1.0717,1.0717,1.0588,1.0446,1.0337,1.0317,1.0215,0.9951,0.9958,0.9992,0.9992,0.9944,0.9917,0.993,0.9917,0.9897,0.9869,1.0107,1.0997,1.2577,1.4183,1.5784,1.7384,1.8706,1.9252,1.9011,1.9011,1.8891,1.8664,1.8664,1.8597,1.849,1.849,1.849,0.0,0.0,0.0,0.0,0.7977,0.0,0.0,0.0,0.7292,0.7051,0.0,0.7139,0.7186,0.0,0.0,0.0,0.0,0.0,0.811,0.854,0.8933,0.9255,0.0,0.0,0.0,0.9388,0.9395,0.9788,0.9456,0.9401,0.9802,0.9822,0.9822,0.9822,0.9822,0.9822,0.9822,0.9822,0.9822,0.9822,0.9896,0.9963,0.9963,1.0168,1.0229,1.0229,1.0249,1.0256,1.0256,1.0276,1.0283,1.0276,1.0263,1.0256,1.0256,1.0276,1.0358,1.0466,1.0466,1.0555,1.067,1.067,1.0683,1.0697,1.0697,1.0704,1.0717,1.0717,1.0717,1.0717,1.0717,1.0717,1.0717,1.0717,1.0717,1.0717,1.0717,1.0717,1.0717,1.0717,1.0704,1.0636,1.0493,1.0432,1.0365,1.0249,1.0453,1.0616,1.0616,1.0392,1.0263,1.0344,1.0276,1.0175,0.997,1.131,1.276,1.4252,1.5843,1.7443,1.9068,1.9301,1.9359,1.9319,1.9319,1.9305,1.9323,1.9323,1.8998,1.849,1.849,1.849,0.0,0.0,0.0,0.0,0.0,0.0,0.7441,0.0,0.7224,0.0,0.0,0.0,0.0,0.0,0.0,0.0,0.7624,0.0,0.0,0.0,0.8601,0.0,0.0,0.0,0.0,0.0,0.0,0.0,0.0,0.9347,0.9795,0.9822,0.9822,0.9822,0.9822,0.9822,0.9822,0.9849,0.9889,0.9896,1.0107,1.0181,1.0188,1.0249,1.0283,1.0283,1.0365,1.0405,1.0412,1.05,1.0534,1.0534,1.0534,1.048,1.0412,1.05,1.0575,1.0622,1.0622,1.0663,1.0717,1.0717,1.0717,1.0717,1.0717,1.0717,1.0717,1.0717,1.0785,1.0853,1.0853,1.0853,1.0853,1.0853,1.0785,1.0717,1.0717,1.0717,1.0717,1.0717,1.0717,1.0697,1.0636,1.0609,1.0582,1.0541,1.0643,1.0717,1.0717,1.0514,1.0378,1.0419,1.128,1.1752,1.1674,1.3208,1.4838,1.6453,1.7961,1.9125,1.9867,1.9867,1.9867,1.9867,1.9867,1.9786,1.9626,1.9626,1.9399,1.8998,1.8998,1.8998,0.8716,0.0,0.0,0.0,0.0,0.0,0.0,0.0,0.0,0.0,0.0,0.0,0.0,0.0,0.0,0.0,0.0,0.776,0.0,0.7848,0.0,0.0,0.0,0.0,0.0,0.0,0.0,0.0,0.0,0.0,0.9734,0.9761,0.9781,0.9822,0.9863,0.9883,0.9883,1.0039,1.0051,1.0051,1.0263,1.0337,1.0337,1.0385,1.0399,1.0405,1.0507,1.0555,1.0561,1.0677,1.0717,1.0717,1.0717,1.0677,1.0622,1.0697,1.0717,1.0717,1.0717,1.0751,1.0785,1.0785,1.0812,1.0839,1.0839,1.0839,1.0839,1.0839,1.0921,1.1009,1.1009,1.1009,1.1009,1.1009,1.0921,1.0839,1.0839,1.0819,1.0806,1.0806,1.0826,1.0853,1.088,1.0792,1.0717,1.0717,1.0717,1.0717,1.0717,1.0595,1.05,1.05,1.2026,1.2965,1.2978,1.4982,1.6881,1.8423,1.9607,2.0167,2.0167,2.0167,2.0167,2.0167,2.0167,2.0134,1.992,1.992,1.9813,1.9599,1.9439,1.943,0.0,0.0,0.0,0.8217,0.0,0.0,0.0,0.0,0.7794,0.0,0.0,0.0,0.0,0.0,0.0,0.0,0.0,0.0,0.0,0.0,0.0,0.0,0.0,0.0,0.0,0.0,0.0,0.0,0.0,0.0,0.9578,0.9618,0.968,0.9815,0.9903,0.9977,0.9977,1.0195,1.0276,1.0276,1.0419,1.0487,1.0487,1.0636,1.0704,1.0704,1.0711,1.0711,1.0711,1.0717,1.0717,1.0717,1.0717,1.0806,1.0847,1.0772,1.0717,1.0717,1.0717,1.0752,1.0873,1.0873,1.1036,1.1151,1.1151,1.1151,1.1151,1.1151,1.122,1.1158,1.1158,1.1158,1.1158,1.1158,1.122,1.1151,1.1151,1.1077,1.1009,1.1009,1.1084,1.1179,1.128,1.0975,1.0717,1.0717,1.0717,1.0717,1.0717,1.0717,1.0711,1.0711,1.2266,1.3232,1.311,1.6139,1.8641,2.0059,2.0167,2.0167,2.0167,2.0167,2.0167,2.0167,2.0167,2.0227,2.0214,2.0214,2.0153,2.0127,1.9626,1.943,0.0,0.0,0.9632,0.8777,0.0,0.0,0.0,0.0,0.0,0.0,0.0,0.0,0.0,0.0,0.0,0.0,0.0,0.0,0.0,0.0,0.0,0.0,0.7916,0.8187,0.0,0.0,0.0,0.0,0.8621,0.0,0.0,0.9612,0.972,0.9903,0.9963,1.0038,1.0202,1.0344,1.0419,1.0419,1.0568,1.0643,1.0643,1.0697,1.0717,1.0717,1.0717,1.0717,1.0717,1.0717,1.0778,1.0806,1.0806,1.0962,1.107,1.0928,1.0934,1.1009,1.1009,1.105,1.109,1.109,1.1124,1.1234,1.1234,1.1234,1.1234,1.1234,1.124,1.1314,1.1314,1.1314,1.1314,1.1314,1.124,1.1234,1.1234,1.1138,1.1118,1.1118,1.1138,1.1241,1.1212,1.1104,1.1009,1.1009,1.0934,1.0806,1.0806,1.0785,1.1108,1.2281,1.397,1.5495,1.6583,1.8764,2.0281,2.0753,2.0815,2.0815,2.0815,2.0815,2.0815,2.0815,2.0815,2.0722,2.0521,2.0521,2.0428,2.0227,2.0027,1.984,0.9802,0.9842,0.0,0.9259,0.9096,0.0,0.835,0.0,0.0,0.0,0.0,0.0,0.0,0.0,0.0,0.0,0.0,0.0,0.0,0.7333,0.0,0.0,0.7706,0.7882,0.7889,0.7889,0.8072,0.852,0.8411,0.8628,0.0,0.0,0.9666,0.9896,1.0011,1.0202,1.0351,1.05,1.0575,1.0575,1.067,1.0717,1.0717,1.0717,1.0717,1.0724,1.0778,1.0799,1.0806,1.0853,1.0934,1.1023,1.1023,1.1111,1.1226,1.1077,1.1084,1.1234,1.1234,1.1199,1.1246,1.1246,1.128,1.1321,1.1321,1.1321,1.1321,1.1321,1.1396,1.147,1.147,1.147,1.147,1.147,1.1396,1.1321,1.1321,1.1321,1.1321,1.1321,1.1321,1.1321,1.1321,1.1321,1.1566,1.2138,1.2096,1.2233,1.2903,1.2933,1.3319,1.444,1.608,1.7859,1.9573,2.076,2.1376,2.1269,2.1269,2.1216,2.1109,2.1109,2.1109,2.1109,2.1109,2.1015,2.0828,2.0828,2.0735,2.0548,2.0548,2.0388]},{"header":{"parameterUnit":"m.s-1","parameterCategory":1,"la1":30.6,"la2":29.2853,"lo1":-89.7004,"lo2":-87.6739,"dy":0.0162,"dx":0.0183,"nx":112,"ny":82,"refTime":"2026-04-18T12:00:00:Z","depth":0,"parameterNumber":3,"parameterNumberName":"V-component_of_WINDS"},"data":[0.0,0.0,0.0,0.0,0.0,0.0,0.0,0.0,0.0,0.0,0.0,0.0,0.0,0.0,0.0,0.0,0.0,0.0,0.0,0.0,0.0,0.0,0.0,0.0,0.0,0.0,0.0,0.0,0.0,0.0,0.0,0.0,0.0,0.0,0.0,0.0,0.0,0.0,0.0,0.0,0.0,0.0,0.0,0.0,0.0,0.0,0.0,0.0,0.0,0.0,0.0,0.0,0.0,0.0,0.0,0.0,0.0,0.0,0.0,0.0,0.0,0.0,0.0,0.0,0.0,0.0,0.0,0.0,0.0,0.0,0.0,0.0,0.0,0.0,0.0,0.0,0.0,0.0,0.0,0.0,0.0,0.0,0.0,0.0,0.0,0.0,0.0,0.0,0.0,0.0,1.9327,2.0245,2.1058,2.1722,2.222,2.2174,2.1406,1.9808,0.0,0.0,0.0,0.0,0.0,0.0,0.0,0.0,0.0,0.0,0.0,0.0,0.0,0.0,0.0,0.0,0.0,0.0,0.0,0.0,0.0,0.0,0.0,0.0,0.0,0.0,0.0,0.0,0.0,0.0,0.0,0.0,0.0,0.0,0.0,0.0,0.0,0.0,0.0,0.0,0.0,0.0,0.0,0.0,0.0,0.0,0.0,0.0,0.0,0.0,0.0,0.0,0.0,0.0,0.0,0.0,0.0,0.0,0.0,0.0,0.0,0.0,0.0,0.0,0.0,0.0,0.0,0.0,0.0,0.0,0.0,0.0,0.0,0.0,0.0,0.0,0.0,0.0,0.0,0.0,0.0,0.0,0.0,0.0,0.0,0.0,0.0,0.0,0.0,0.0,0.0,0.0,0.0,0.0,0.0,0.0,0.0,0.0,0.0,0.0,0.0,0.0,0.0,0.0,1.8306,2.0338,2.0732,2.1068,2.1668,2.0778,1.9955,1.9417,0.0,0.0,0.0,0.0,0.0,0.0,0.0,0.0,0.0,0.0,0.0,0.0,0.0,0.0,0.0,0.0,0.0,0.0,0.0,0.0,0.0,0.0,0.0,0.0,0.0,0.0,0.0,0.0,0.0,0.0,0.0,0.0,0.0,0.0,0.0,0.0,0.0,0.0,0.0,0.0,0.0,0.0,0.0,0.0,0.0,0.0,0.0,0.0,0.0,0.0,0.0,0.0,0.0,0.0,0.0,0.0,0.0,0.0,0.0,0.0,0.0,0.0,0.0,0.0,0.0,0.0,0.0,0.0,0.0,0.0,0.0,0.0,0.0,0.0,0.0,0.0,0.0,0.0,0.0,0.0,0.0,0.0,0.0,0.0,0.0,0.0,0.0,0.0,0.0,0.0,0.0,0.0,0.0,0.0,0.0,0.0,0.0,0.0,0.0,0.0,0.0,0.0,0.0,1.7859,1.8608,2.0879,2.0578,2.0445,2.1066,2.0059,1.9092,1.8472,1.7346,0.0,0.0,0.0,0.0,0.0,0.0,0.0,0.0,0.0,0.0,0.0,0.0,0.0,0.0,0.0,0.0,0.0,0.0,0.0,0.0,0.0,0.0,0.0,0.0,0.0,0.0,0.0,0.0,0.0,0.0,0.0,0.0,0.0,0.0,0.0,0.0,0.0,0.0,0.0,0.0,0.0,0.0,0.0,0.0,0.0,0.0,0.0,0.0,0.0,0.0,0.0,0.0,0.0,0.0,0.0,0.0,0.0,0.0,0.0,0.0,0.0,0.0,0.0,0.0,0.0,0.0,0.0,0.0,0.0,0.0,0.0,0.0,0.0,0.0,0.0,0.0,0.0,0.0,0.0,0.0,0.0,0.0,0.0,0.0,0.0,0.0,0.0,0.0,0.0,0.0,0.0,0.0,0.0,0.0,0.0,0.0,0.0,0.0,0.0,0.0,0.0,0.0,1.8864,1.9231,2.099,2.0348,1.9936,2.0289,1.9391,1.8407,1.7424,1.5652,0.0,0.0,0.0,0.0,0.0,0.0,0.0,0.0,0.0,0.0,0.0,0.0,0.0,0.0,0.0,0.0,0.0,0.0,0.0,0.0,0.0,0.0,0.0,0.0,0.0,0.0,0.0,0.0,0.0,0.0,0.0,0.0,0.0,0.0,0.0,0.0,0.0,0.0,0.0,0.0,0.0,0.0,0.0,0.0,0.0,0.0,0.0,0.0,0.0,0.0,0.0,0.0,0.0,0.0,0.0,0.0,0.0,0.0,0.0,0.0,0.0,0.0,0.0,0.0,0.0,0.0,0.0,0.0,0.0,0.0,0.0,0.0,0.0,0.0,0.0,0.0,0.0,0.0,0.0,0.0,0.0,0.0,0.0,0.0,0.0,0.0,0.0,0.0,0.0,0.0,0.0,0.0,0.0,0.0,0.0,0.0,0.0,0.0,0.0,0.0,0.0,0.0,1.8959,1.9752,1.9915,1.9837,1.9635,1.9158,1.8587,1.7718,1.6474,1.4751,0.0,0.0,0.0,0.0,0.0,0.0,0.0,0.0,0.0,0.0,0.0,0.0,0.0,0.0,0.0,0.0,0.0,0.0,0.0,0.0,0.0,0.0,0.0,0.0,0.0,0.0,0.0,0.0,0.0,0.0,0.0,0.0,0.0,0.0,0.0,0.0,0.0,0.0,0.0,0.0,0.0,0.0,0.0,0.0,0.0,0.0,0.0,0.0,0.0,0.0,0.0,0.0,0.0,0.0,0.0,0.0,0.0,0.0,0.0,0.0,0.0,0.0,0.0,0.0,0.0,0.0,0.0,0.0,0.0,0.0,0.0,0.0,0.0,0.0,0.0,0.0,0.0,0.0,0.0,0.0,0.0,0.0,0.0,0.0,0.0,0.0,0.0,0.0,0.0,0.0,0.0,0.0,0.0,0.0,0.0,0.0,0.0,0.0,0.0,0.0,0.0,0.0,1.8217,1.9061,0.0,1.9811,1.9585,1.9058,1.8823,1.7752,1.5562,0.0,0.0,0.0,0.0,0.0,0.0,0.0,0.0,0.0,0.0,0.0,0.0,0.0,0.0,0.0,0.0,0.0,0.0,0.0,0.0,0.0,0.0,0.0,0.0,0.0,0.0,0.0,0.0,0.0,0.0,0.0,0.0,0.0,0.0,0.0,0.0,0.0,0.0,0.0,0.0,0.0,0.0,0.0,0.0,0.0,0.0,0.0,0.0,0.0,0.0,0.0,0.0,0.0,0.0,0.0,0.0,0.0,0.0,0.0,0.0,0.0,0.0,0.0,0.0,0.0,0.0,0.0,0.0,0.0,0.0,0.0,0.0,0.0,0.0,0.0,0.0,0.0,0.0,0.0,0.0,0.0,0.0,0.0,0.0,0.0,0.0,0.0,0.0,0.0,0.0,0.0,0.0,0.0,0.0,0.0,0.0,0.0,0.0,0.0,0.0,0.0,0.0,1.7145,1.8335,1.9266,0.0,2.0112,1.9904,1.9335,1.8745,1.7397,1.5018,0.0,0.0,0.0,0.0,0.0,0.0,0.0,0.0,0.0,0.0,0.0,0.0,0.0,0.0,0.0,0.0,0.0,0.0,0.0,0.0,0.0,0.0,0.0,0.0,0.0,0.0,0.0,0.0,0.0,0.0,0.0,0.0,0.0,0.0,0.0,0.0,0.0,0.0,0.0,0.0,0.0,0.0,0.0,0.0,0.0,0.0,0.0,0.0,0.0,0.0,0.0,0.0,0.0,0.0,0.0,0.0,0.0,0.0,0.0,0.0,0.0,0.0,0.0,0.0,0.0,0.0,0.0,0.0,0.0,0.0,0.0,0.0,0.0,0.0,0.0,0.0,0.0,0.0,0.0,0.0,0.0,0.0,0.0,0.0,0.0,0.0,0.0,0.0,0.0,0.0,0.0,0.0,0.0,0.0,0.0,0.0,0.0,0.0,0.0,0.0,0.0,0.0,1.7616,1.9495,2.0699,2.0771,2.0809,2.0533,1.9943,1.8198,1.6445,0.0,0.0,0.0,0.0,0.0,0.0,0.0,0.0,0.0,0.0,0.0,0.0,0.0,0.0,0.0,0.0,0.0,0.0,0.0,0.0,0.0,0.0,0.0,0.0,0.0,0.0,0.0,0.0,0.0,0.0,0.0,0.0,0.0,0.0,0.0,0.0,0.0,0.0,0.0,0.0,0.0,0.0,0.0,0.0,0.0,0.0,0.0,0.0,0.0,0.0,0.0,0.0,0.0,0.0,0.0,0.0,0.0,0.0,0.0,0.0,0.0,0.0,0.0,0.0,0.0,0.0,0.0,0.0,0.0,0.0,0.0,0.0,0.0,0.0,0.0,0.0,0.0,0.0,0.0,0.0,0.0,0.0,0.0,0.0,0.0,0.0,0.0,0.0,0.0,0.0,0.0,0.0,0.0,0.0,0.0,0.0,0.0,0.0,0.0,0.0,0.0,0.0,0.0,1.7502,1.9075,2.0033,2.0097,2.0538,2.0345,1.9299,1.8635,1.7245,1.4741,0.0,0.0,0.0,0.0,0.0,0.0,0.0,0.0,0.0,0.0,0.0,0.0,0.0,0.0,0.0,0.0,0.0,0.0,0.0,0.0,0.0,0.0,0.0,0.0,0.0,0.0,0.0,0.0,0.0,0.0,0.0,0.0,0.0,0.0,0.0,0.0,0.0,0.0,0.0,0.0,0.0,0.0,0.0,0.0,0.0,0.0,0.0,0.0,0.0,0.0,0.0,0.0,0.0,0.0,0.0,0.0,0.0,0.0,0.0,0.0,0.0,0.0,0.0,0.0,0.0,0.0,0.0,0.0,0.0,0.0,0.0,0.0,0.0,0.0,0.0,0.0,0.0,0.0,0.0,0.0,0.0,0.0,0.0,0.0,0.0,0.0,0.0,0.0,0.0,0.0,0.0,0.0,0.0,0.0,0.0,0.0,0.0,0.0,0.0,0.0,0.0,0.0,1.7057,1.8731,1.9826,2.0116,2.0514,2.0449,1.968,1.8854,1.7395,1.5113,0.0,0.0,0.0,0.0,0.0,0.0,0.0,0.0,0.0,0.0,0.0,0.0,0.0,0.0,0.0,0.0,0.0,0.0,0.0,0.0,0.0,0.0,0.0,0.0,0.0,0.0,0.0,0.0,0.0,0.0,0.0,0.0,0.0,0.0,0.0,0.0,0.0,0.0,0.0,0.0,0.0,0.0,0.0,0.0,0.0,0.0,0.0,0.0,0.0,0.0,0.0,0.0,0.0,0.0,0.0,0.0,0.0,0.0,0.0,0.0,0.0,0.0,0.0,0.0,0.0,0.0,0.0,0.0,0.0,0.0,0.0,0.0,0.0,0.0,0.0,0.0,0.0,0.0,0.0,0.0,0.0,0.0,0.0,0.0,0.0,0.0,0.0,0.0,0.0,0.0,0.0,0.0,0.0,0.0,0.0,0.0,0.0,0.0,0.0,0.0,0.0,0.0,1.6413,1.8386,1.9839,2.0557,2.0658,2.0658,2.0598,1.8839,1.7178,1.5829,0.0,0.0,0.0,0.0,0.0,0.0,0.0,0.0,0.0,0.0,0.0,0.0,0.0,0.0,0.0,0.0,0.0,0.0,0.0,0.0,0.0,0.0,0.0,0.0,0.0,0.0,0.0,0.0,0.0,0.0,0.0,0.0,0.0,0.0,0.0,0.0,0.0,0.0,0.0,0.0,0.0,0.0,0.0,0.0,0.0,0.0,0.0,0.0,0.0,0.0,0.0,0.0,0.0,0.0,0.0,0.0,0.0,0.0,0.0,0.0,1.6087,0.0,0.0,0.0,0.0,0.0,0.0,0.0,0.0,0.0,0.0,0.0,0.0,0.0,0.0,0.0,0.0,0.0,0.0,0.0,0.0,0.0,0.0,0.0,0.0,0.0,0.0,0.0,0.0,0.0,0.0,0.0,0.0,0.0,0.0,0.0,0.0,0.0,0.0,0.0,0.0,0.0,1.6293,1.7997,1.9181,1.9839,2.0408,2.0498,1.9959,1.8791,1.7486,1.6113,1.4288,0.0,0.0,0.0,0.0,0.0,0.0,0.0,0.0,0.0,0.0,0.0,0.0,0.0,0.0,0.0,0.0,0.0,0.0,0.0,0.0,0.0,0.0,0.0,0.0,0.0,0.0,0.0,0.0,0.0,0.0,0.0,0.0,0.0,0.0,0.0,0.0,0.0,0.0,0.0,0.0,0.0,0.0,0.0,0.0,0.0,0.0,0.0,0.0,0.0,0.0,0.0,0.0,0.0,0.0,0.0,0.0,0.0,0.0,0.0,0.0,1.7453,0.0,0.0,0.0,0.0,0.0,0.0,0.0,0.0,0.0,0.0,0.0,0.0,0.0,0.0,0.0,0.0,0.0,0.0,0.0,0.0,0.0,0.0,0.0,0.0,0.0,0.0,0.0,0.0,0.0,0.0,0.0,0.0,0.0,0.0,0.0,0.0,0.0,0.0,0.0,0.0,1.6338,1.7593,1.8612,1.957,1.972,1.96,1.9241,1.8148,1.718,1.6441,1.4538,0.0,0.0,0.0,0.0,0.0,0.0,0.0,0.0,0.0,0.0,0.0,0.0,0.0,0.0,0.0,0.0,0.0,0.0,0.0,0.0,0.0,0.0,0.0,0.0,0.0,0.0,0.0,0.0,0.0,0.0,0.0,0.0,0.0,0.0,0.0,0.0,0.0,0.0,0.0,0.0,0.0,0.0,0.0,0.0,0.0,0.0,0.0,0.0,0.0,0.0,0.0,0.0,0.0,2.1033,2.163,2.2516,2.2158,2.247,2.3243,2.1161,2.0243,2.0139,0.0,0.0,0.0,0.0,0.0,0.0,0.0,0.0,0.0,0.0,0.0,0.0,0.0,0.0,0.0,0.0,0.0,0.0,0.0,0.0,0.0,0.0,0.0,0.0,0.0,1.7791,1.6884,0.0,0.0,0.0,0.0,0.0,0.0,0.0,0.0,0.0,0.0,0.0,0.0,1.6458,1.7342,1.8177,1.939,1.9031,1.8676,1.8607,1.7495,1.6798,1.6779,1.4841,1.3642,0.0,0.0,0.0,0.0,0.0,0.0,0.0,0.0,0.0,0.0,0.0,0.0,0.0,0.0,0.0,0.0,0.0,0.0,0.0,0.0,0.0,0.0,0.0,0.0,0.0,0.0,0.0,0.0,0.0,0.0,0.0,0.0,1.4046,1.5266,0.0,0.0,0.0,0.0,0.0,0.0,0.0,0.0,0.0,0.0,0.0,0.0,0.0,2.0238,2.1297,2.2416,2.3045,2.3169,2.4327,2.4683,2.4304,2.4802,2.5116,2.5222,2.4894,0.0,2.2194,2.0889,0.0,0.0,0.0,0.0,0.0,0.0,0.0,0.0,0.0,0.0,0.0,0.0,0.0,0.0,0.0,0.0,0.0,0.0,0.0,0.0,0.0,0.0,1.9596,1.9335,1.8996,1.8519,0.0,1.6079,1.4758,1.3988,0.0,0.0,0.0,0.0,0.0,0.0,0.0,0.0,1.6915,1.75,1.7997,1.8762,1.8762,1.8567,1.8299,1.7622,1.7211,1.7154,1.6289,1.5244,1.4046,1.3487,0.0,0.0,0.0,0.0,0.0,0.0,0.0,0.0,0.0,0.0,0.0,0.0,0.0,0.0,0.0,0.0,0.0,0.0,0.0,0.0,0.0,0.0,0.0,0.0,0.0,0.0,0.0,0.0,0.0,1.4496,1.5425,1.6697,1.6024,1.5489,0.0,0.0,0.0,0.0,0.0,0.0,0.0,0.0,0.0,2.0291,2.2134,2.3383,2.3954,2.4852,2.5688,2.6422,2.7021,2.732,2.741,2.732,2.729,2.726,2.6871,2.624,2.5243,2.3158,2.1872,2.1094,0.0,0.0,0.0,0.0,0.0,1.994,2.0878,2.0978,0.0,0.0,0.0,0.0,0.0,0.0,0.0,0.0,0.0,0.0,0.0,0.0,0.0,2.0774,2.0333,1.9874,1.9582,1.847,1.7181,0.0,1.5164,1.4451,1.4104,0.0,0.0,0.0,0.0,1.5802,1.7319,1.8203,1.8672,1.8689,1.8356,1.8011,1.7714,1.7123,1.6898,1.7244,1.6602,1.5835,1.4967,1.4356,1.3421,0.0,0.0,0.0,0.0,0.0,0.0,0.0,0.0,0.0,0.0,0.0,0.0,0.0,0.0,0.0,0.0,0.0,0.0,0.0,0.0,0.0,0.0,0.0,0.0,0.0,0.0,0.0,0.0,1.6124,1.7121,1.8074,1.7888,1.7603,0.0,0.0,0.0,0.0,0.0,0.0,2.005,2.1674,2.2736,2.3096,2.53,2.6533,2.662,2.7395,2.8239,2.9104,2.9311,2.9632,3.009,2.9602,2.9358,2.9327,2.8625,2.8306,2.8052,2.5435,2.3989,2.3305,2.2305,2.1848,2.1817,2.2317,2.2488,2.2636,2.3624,2.3642,2.3161,2.2734,0.0,2.1497,1.9706,0.0,0.0,0.0,0.0,2.0355,2.096,0.0,2.1881,2.1998,2.1671,2.1245,2.1063,2.0352,1.934,0.0,1.7223,1.6642,1.6492,0.0,0.0,0.0,0.0,1.7183,1.83,1.9092,1.934,1.8799,1.8309,1.7823,1.7347,1.6772,1.6709,1.738,1.6837,1.6221,1.5619,1.5078,1.4107,1.2626,0.0,0.0,0.0,0.0,0.0,0.0,0.0,0.0,0.0,0.0,0.0,0.0,0.0,0.0,0.0,0.0,0.0,0.0,0.0,0.0,0.0,0.0,0.0,0.0,0.0,0.0,0.0,0.0,0.0,1.9581,2.0032,0.0,0.0,0.0,0.0,2.1355,2.0897,2.1386,2.3259,2.4066,2.5061,2.6305,2.8342,2.9408,2.9397,3.068,3.1061,3.0514,3.1131,3.1454,3.1486,3.1454,3.1454,3.139,3.0686,3.0366,3.0119,2.7471,2.6314,2.6121,2.5413,2.5161,2.5148,2.518,2.5212,2.5309,2.5999,2.5079,2.3845,2.55,2.4808,2.3262,2.315,2.2339,0.0,0.0,2.1545,2.1703,2.2099,2.2243,2.2387,2.283,2.2907,2.2702,2.2087,2.1555,2.0912,0.0,1.8705,1.8133,1.9134,0.0,1.7345,1.9022,1.8435,1.8455,2.0133,2.0113,1.9679,1.8963,1.8867,1.8432,1.7388,1.6984,1.7052,1.7726,1.7429,1.673,1.5653,1.5561,1.486,1.3379,1.2919,0.0,0.0,0.0,0.0,0.0,0.0,0.0,0.0,0.0,0.0,0.0,0.0,0.0,0.0,0.0,0.0,0.0,0.0,0.0,0.0,0.0,0.0,0.0,0.0,0.0,0.0,0.0,0.0,2.2528,2.3247,0.0,2.3386,2.3367,2.37,2.4452,2.4881,2.5508,2.6515,2.8148,2.9099,2.9188,3.1032,3.1867,3.1529,3.2369,3.27,3.2526,3.2755,3.288,3.288,3.2456,3.2232,3.2199,3.1518,3.1408,3.172,3.0758,2.9513,2.8094,2.7066,2.6886,2.721,2.721,2.721,2.7243,2.7486,2.7127,2.6529,2.6378,2.554,2.4544,2.4049,2.3335,2.2673,2.2778,2.3026,2.3349,2.3572,2.3912,2.4125,2.3932,2.3568,2.3192,2.2961,2.2051,2.1377,2.1649,2.0112,1.8904,1.9338,1.8475,1.7857,1.8283,1.8865,1.9391,1.9765,2.0536,2.0462,1.905,1.8893,1.8455,1.7404,1.7187,1.711,1.7096,1.6997,1.6303,1.4943,1.5032,1.4598,1.3542,1.3637,1.3278,0.0,0.0,0.0,0.0,0.0,0.0,0.0,0.0,0.0,0.0,0.0,0.0,0.0,0.0,0.0,0.0,0.0,0.0,0.0,0.0,0.0,0.0,0.0,0.0,0.0,2.2213,2.3807,2.4572,2.5654,2.6178,2.5799,2.6167,2.6685,2.7218,2.8053,2.8757,2.9324,3.0947,3.1795,3.1625,3.3062,3.3613,3.3291,3.39,3.4131,3.3921,3.4178,3.4276,3.4244,3.3811,3.3606,3.3573,3.2878,3.2813,3.3151,3.2918,3.1953,3.0514,2.9465,2.9118,2.9229,2.9229,2.9229,2.9143,2.8734,2.8674,2.8633,2.7369,2.6477,2.5816,2.5311,2.4553,2.3871,2.3992,2.4252,2.4537,2.4646,2.493,2.5125,2.4752,2.4347,2.3877,2.3387,2.2554,2.1946,2.2102,2.099,2.0083,2.0334,1.9726,1.9161,1.903,1.9822,2.0332,2.0178,2.1121,2.1187,1.9451,1.926,1.8798,1.7572,1.7462,1.7343,1.7084,1.6824,1.6147,1.4909,1.5097,1.4674,1.3542,1.3906,1.3924,1.3558,0.0,0.0,0.0,0.0,0.0,0.0,0.0,0.0,0.0,0.0,0.0,0.0,0.0,0.0,0.0,0.0,0.0,0.0,0.0,0.0,0.0,0.0,0.0,2.2393,2.4555,2.6041,2.5635,2.721,2.7879,2.6742,2.7844,2.8898,2.9585,3.0306,3.1015,3.1654,3.2337,3.2991,3.3631,3.4301,3.464,3.464,3.5293,3.5293,3.464,3.5293,3.56,3.56,3.56,3.56,3.5566,3.4844,3.4539,3.4472,3.3761,3.3457,3.3355,3.2598,3.1853,3.1224,3.119,3.119,3.103,2.9782,2.9688,2.993,2.8685,2.7783,2.717,2.7137,2.6273,2.5291,2.524,2.524,2.524,2.524,2.524,2.524,2.524,2.5221,2.4836,2.344,2.3135,2.2704,2.1343,2.1385,2.1764,2.2194,2.1657,2.1264,2.1543,2.1353,0.0,2.1576,2.2017,2.1705,2.0204,2.0035,1.9427,1.7952,1.7817,1.7783,1.7749,1.7061,1.6326,1.5571,1.5778,1.5133,1.3455,1.3739,1.4153,1.4651,0.0,0.0,0.0,0.0,0.0,0.0,0.0,0.0,0.0,0.0,0.0,0.0,0.0,0.0,0.0,0.0,0.0,0.0,0.0,0.0,0.0,2.42,2.5531,2.5104,2.6881,2.8538,2.9499,3.0516,3.1241,3.1453,3.1834,3.2114,3.2293,3.3016,3.3517,3.3695,3.4374,3.4843,3.5037,3.5238,3.5339,3.5339,3.5532,3.5532,3.5339,3.5498,3.56,3.56,3.56,3.56,3.56,3.5363,3.5295,3.5261,3.5059,3.4675,3.4066,3.2801,3.2192,3.1921,3.1393,3.119,3.1137,3.0816,3.0788,3.0765,2.9854,2.9446,2.9076,2.7949,2.7356,2.6909,2.602,2.6033,2.621,2.5888,2.6033,2.621,2.587,2.5797,2.5517,2.4533,2.3928,2.3375,2.2833,2.24,2.1945,2.1447,2.1207,2.1064,2.1149,2.1342,0.0,2.1579,2.2017,2.1907,2.0974,2.0873,2.023,1.8741,1.8606,1.7896,1.6306,1.6001,1.5367,1.4195,1.4352,1.4395,1.4187,1.4282,1.4157,0.0,0.0,0.0,0.0,0.0,0.0,0.0,0.0,0.0,0.0,0.0,0.0,0.0,0.0,0.0,0.0,0.0,0.0,0.0,0.0,0.0,0.0,2.6184,2.7805,2.8174,2.92,3.0364,3.1515,3.2327,3.2916,3.3355,3.3694,3.3863,3.3863,3.4539,3.4979,3.4979,3.5363,3.56,3.56,3.56,3.56,3.56,3.56,3.56,3.56,3.56,3.56,3.56,3.56,3.56,0.0,3.56,3.56,3.56,3.56,3.5329,0.0,0.0,0.0,0.0,0.0,3.119,3.119,3.119,3.119,3.1123,3.0717,3.0345,2.992,2.9041,2.8297,2.7636,2.6952,2.6739,2.6641,2.635,2.6504,2.6641,2.6366,2.628,2.5996,2.4913,2.4347,2.3811,2.3095,0.0,0.0,2.1615,2.1539,2.1493,2.1275,2.163,2.1823,0.0,2.2017,2.2023,2.1292,2.0919,2.0196,1.9012,1.8606,0.0,0.0,0.0,1.5833,1.4909,1.4253,0.0,0.0,0.0,0.0,0.0,0.0,0.0,0.0,1.4221,1.4228,0.0,0.0,0.0,0.0,0.0,0.0,0.0,0.0,0.0,0.0,0.0,0.0,0.0,0.0,0.0,0.0,2.7807,2.9721,3.1142,3.1461,3.1799,3.2462,3.3119,3.3558,3.366,3.4235,3.4607,3.4607,3.525,3.56,3.56,0.0,0.0,0.0,0.0,3.56,3.56,3.56,3.56,3.56,3.56,3.56,3.56,3.56,3.56,3.56,3.56,3.56,3.56,3.56,3.56,3.5532,3.4709,3.3546,3.2226,3.1461,3.119,0.0,0.0,0.0,0.0,3.119,3.0751,3.0209,3.0142,2.9142,2.8027,2.7858,2.7317,2.6793,2.6725,2.6691,2.6691,2.6691,2.6691,2.6319,2.4914,2.4541,2.4101,2.2685,2.2347,2.2313,2.2313,2.2313,2.2166,2.1749,2.2032,0.0,2.1735,2.2032,2.2057,2.1393,0.0,0.0,1.908,1.8369,1.7984,1.8066,1.7437,1.6897,1.6608,1.5074,1.5073,1.6865,1.6032,1.5797,1.6243,1.6919,1.7028,1.6619,1.5753,1.5788,0.0,0.0,0.0,0.0,0.0,0.0,0.0,0.0,0.0,0.0,0.0,0.0,0.0,0.0,0.0,2.8096,2.9721,3.1075,3.1955,3.3106,3.3897,3.4066,3.4201,3.4506,3.5126,3.5295,3.5363,3.5363,3.5532,3.56,3.56,3.56,3.56,3.56,3.56,3.56,3.56,3.56,3.56,3.56,0.0,0.0,3.56,3.56,3.56,3.56,3.56,3.56,3.56,3.56,3.56,3.5464,3.4112,3.3051,3.2226,3.1461,3.119,3.119,3.119,3.119,3.119,3.119,3.1089,3.0886,3.0277,2.9886,0.0,2.8162,2.7689,2.7452,2.686,2.6691,2.6691,2.6691,2.6691,2.6454,2.5575,2.4898,2.4237,2.3342,2.2699,2.2313,2.2313,2.2313,2.2251,2.218,2.2237,2.2251,2.218,2.2237,2.2245,2.209,2.1414,2.0636,1.9845,1.9101,1.8291,1.7369,1.6948,1.6684,1.6587,1.6435,1.6518,1.6902,1.6867,1.6916,1.706,1.7378,1.7496,1.7465,1.7233,1.7225,0.0,0.0,0.0,0.0,0.0,0.0,0.0,0.0,0.0,0.0,0.0,2.5406,2.6539,0.0,2.889,3.0398,3.1562,3.2544,3.3309,3.4032,3.4506,3.4506,3.4844,3.5216,3.5566,3.56,3.56,3.56,3.56,3.56,3.56,3.5994,3.6028,3.56,3.5994,3.6028,3.56,3.56,3.56,3.56,3.56,3.56,3.56,3.56,3.56,3.56,3.56,3.56,3.56,3.56,3.56,3.543,3.3998,3.3186,3.2713,3.1596,3.119,3.119,3.119,3.119,3.119,3.119,3.119,3.1123,3.0751,3.0412,2.9871,2.8721,2.8094,2.7621,2.6894,2.6691,2.6691,2.6691,2.6691,2.6555,2.6015,2.5156,2.4331,2.3802,2.2943,2.2313,2.2313,2.2313,2.2313,2.2313,2.2313,2.2313,2.2313,2.2313,2.22,2.192,2.125,2.0538,1.9901,1.9293,1.8688,1.8109,1.7603,1.7344,1.7344,1.705,1.6908,1.6908,1.7114,1.724,1.7291,1.7927,1.8267,1.8346,1.8766,1.8736,0.0,0.0,0.0,0.0,0.0,0.0,0.0,2.3782,2.4981,2.5701,2.7037,2.8459,2.9709,3.0546,3.1435,3.2598,3.3433,3.4096,3.4711,3.4916,3.5019,3.5019,3.5382,3.56,3.56,3.56,3.56,3.56,3.5735,3.5836,3.5836,3.6569,3.6637,3.5836,3.6468,3.64,3.56,3.56,3.56,3.56,3.5711,3.5778,3.5744,3.5854,3.592,3.592,3.592,3.592,3.592,3.592,3.592,3.5749,3.4247,3.3666,3.3475,3.1811,3.119,3.121,3.1308,3.1288,3.121,3.1274,3.1269,3.119,3.119,3.0842,3.024,2.934,2.8679,2.8066,2.7161,2.6891,2.6841,2.6906,2.6856,2.6769,2.6586,2.5557,2.4599,2.4329,2.3329,2.2467,2.2467,2.2467,2.244,2.2405,2.2391,2.2385,2.2453,2.2467,2.2321,2.1876,2.1033,2.022,1.9553,1.9183,1.901,1.901,1.8562,1.8317,1.8317,1.7757,1.741,1.741,1.7639,1.7762,1.7822,1.8687,1.9164,1.9265,1.9962,1.9927,2.2379,2.1651,2.1372,2.3412,2.4014,2.4853,0.0,2.8924,2.9819,3.0568,3.1933,3.3066,3.3226,3.3881,3.4429,3.4571,3.5241,3.5734,3.584,3.6456,3.6879,3.6879,3.6117,3.56,3.56,3.56,3.56,3.56,3.6265,3.666,3.666,3.7381,3.7449,3.6694,3.6761,3.64,3.56,3.56,3.56,3.56,3.6092,3.6291,3.6312,3.6786,3.702,3.702,3.702,3.702,3.702,3.702,3.702,3.6879,3.5292,3.464,3.4373,3.207,3.119,3.1269,3.1673,3.1542,3.1269,3.1604,3.1488,3.119,3.119,3.1397,3.1319,2.9851,2.9668,2.9601,2.8121,2.7517,2.7334,2.7695,2.7502,2.7315,2.7648,2.6506,2.5385,2.5319,2.4141,2.3093,2.3093,2.3093,2.2984,2.2695,2.2643,2.2746,2.3045,2.3093,2.307,2.3023,2.1693,2.0255,1.885,1.8905,1.901,1.901,1.9117,1.9168,1.9168,1.9256,1.9302,1.9302,1.9546,1.9692,1.9707,1.9973,2.0146,2.0154,2.0231,2.0231,2.4292,2.439,2.4608,2.5544,2.653,2.7682,2.9446,3.0493,3.1382,3.2611,3.3697,3.4551,3.4995,3.5332,3.5669,3.6166,3.6502,3.6696,3.6696,3.6571,3.6427,3.6427,3.6046,3.5977,3.649,3.6525,3.6525,3.6525,3.7276,3.7728,3.7728,3.8877,3.9177,3.8432,3.8411,3.8007,3.7241,3.6768,3.6525,3.6525,3.6746,3.6845,3.6865,3.7097,3.7192,3.7192,3.7192,3.7192,3.7192,3.7192,3.7192,3.705,3.5421,3.4818,3.4553,3.2668,3.195,3.1986,3.2179,3.2109,3.1986,3.2144,3.2109,3.195,3.195,3.2074,3.188,3.0337,3.0043,2.9844,2.8287,2.7783,2.7695,2.7869,2.7783,2.7768,2.8098,2.7175,2.6171,2.5911,2.4801,2.3732,2.3271,2.32,2.3212,2.3271,2.3117,2.3045,2.3177,2.32,2.3117,2.2811,2.1532,2.0409,1.9758,1.938,1.9174,1.9174,1.9261,1.9368,1.9478,1.9555,1.9642,1.9707,1.9887,1.9988,1.9993,2.0182,2.0308,2.0308,2.029,2.0553,2.5666,2.6244,2.6903,2.7554,2.8932,3.0334,3.1139,3.2275,3.3425,3.4327,3.5101,3.5713,3.602,3.6271,3.6593,3.7202,3.7488,3.7632,3.7632,3.688,3.6326,3.6326,3.6326,3.6594,3.722,3.7234,3.7192,3.7192,3.8113,3.8679,3.8679,4.0152,4.0668,3.9944,3.9656,3.914,3.8415,3.7581,3.7192,3.7192,3.7323,3.7396,3.7396,3.756,3.7632,3.7632,3.7632,3.7632,3.7632,3.7632,3.7632,3.7453,3.5841,3.5233,3.5018,3.3462,3.2695,3.2535,3.2666,3.2617,3.25,3.2666,3.2617,3.2483,3.2483,3.2601,3.2359,3.0813,3.044,3.017,2.8595,2.8134,2.8079,2.8174,2.812,2.8147,2.8489,2.7787,2.6979,2.6644,2.5528,2.4503,2.3894,2.3632,2.3555,2.3806,2.3621,2.3488,2.3488,2.3488,2.3268,2.2699,2.1753,2.0988,2.0548,1.9968,1.9536,1.9315,1.9368,1.9456,1.9582,1.9688,1.9756,1.9833,2.0012,2.0078,2.0078,2.0233,2.0404,2.0669,2.0656,2.1139,2.6068,2.6347,2.7167,2.9525,3.1323,3.2703,3.3523,3.5591,3.7096,3.6384,3.6876,3.7206,3.6421,3.6934,3.7463,3.7499,3.8145,3.8643,3.8643,3.7961,3.7463,3.7463,3.7463,3.7463,3.7499,3.7306,3.7192,3.7192,3.8608,3.9474,3.9474,4.0925,4.1442,4.0683,3.9919,3.914,3.8415,3.7581,3.7192,3.7192,3.7667,3.7876,3.7893,3.8433,3.8643,3.8643,3.8643,3.8643,3.8643,3.8643,3.8643,3.8496,3.6897,3.6237,3.6054,3.4367,3.3225,3.2584,3.3014,3.289,3.2601,3.3029,3.2874,3.2483,3.2483,3.2827,3.2826,3.1232,3.1074,3.0992,2.9367,2.8688,2.8489,2.8881,2.8688,2.8502,2.8905,2.8352,2.7765,2.7739,2.6455,2.5354,2.5354,2.4684,2.417,2.418,2.417,2.417,2.417,2.417,2.3877,2.307,2.296,2.2272,2.0658,2.0474,2.0144,1.9352,1.9485,1.9582,1.9589,1.9866,1.9979,1.9984,2.0174,2.0304,2.0304,2.0308,2.0715,2.1548,2.1548,2.209,2.8336,2.9698,3.0895,3.2265,3.3844,3.5275,3.606,3.6501,3.6795,3.7052,3.6413,3.5936,3.6229,3.6046,3.6229,3.7309,3.7749,3.8102,3.8615,3.8006,3.7492,3.7492,3.7492,3.7492,3.7492,3.7927,3.8185,3.8185,3.9673,4.058,4.058,4.2069,4.2813,4.2559,4.1796,4.0997,4.0199,3.94,3.871,3.8185,3.8368,3.8433,3.8449,3.8627,3.8689,3.8689,3.8689,3.8689,3.8689,3.8689,3.8689,3.8542,3.6927,3.6303,3.6083,3.4431,3.362,3.3372,3.355,3.3508,3.3372,3.355,3.3508,3.3357,3.3357,3.348,3.3264,3.1644,3.1296,3.1017,2.9427,2.8905,2.8821,2.8964,2.8905,2.8858,2.8964,2.8803,2.8436,2.7897,2.7357,2.666,2.5595,2.5191,2.4824,2.4263,2.419,2.419,2.419,2.419,2.408,2.3823,2.3299,2.2821,2.2391,2.1353,2.0633,2.0494,2.0014,1.978,1.9844,1.9944,2.0064,2.0216,2.0253,2.0308,2.0308,2.089,2.1327,2.1631,2.2265,2.3089,3.0418,3.2008,3.3293,3.4394,3.5716,3.6795,3.7015,3.6905,3.6611,3.6244,3.5312,3.4564,3.4541,3.4321,3.4674,3.634,3.7125,3.7786,3.8579,3.8248,3.7823,3.7529,3.7749,3.7823,3.7529,3.8469,3.9019,3.8726,4.0178,4.1095,4.1095,4.2616,4.3515,4.3515,4.2727,4.2066,4.1552,4.0451,3.9496,3.8689,3.8689,3.8689,3.8689,3.8689,3.8689,3.8689,3.8689,3.8689,3.8689,3.8689,3.8689,3.8542,3.6927,3.6303,3.6083,3.4431,3.3807,3.3807,3.3807,3.3807,3.3807,3.3807,3.3807,3.3807,3.3807,3.3807,3.344,3.1837,3.1397,3.1017,2.9427,2.8987,2.8987,2.8987,2.8987,2.8987,2.8987,2.9067,2.9008,2.8455,2.8133,2.759,2.6519,2.5881,2.5244,2.4441,2.4366,2.4393,2.4303,2.4366,2.4419,2.4419,2.3937,2.3558,2.3401,2.2397,2.1553,2.1122,2.0634,2.024,2.0026,2.0069,2.0165,2.0308,2.0308,2.0446,2.076,2.133,2.1931,2.2605,2.3247,2.4011,3.2289,3.333,3.4357,3.5973,3.6942,3.7309,3.6523,3.6868,3.6648,3.4211,3.3623,3.3073,3.158,3.1935,3.3023,3.4674,3.634,3.7749,3.8652,3.8762,3.8505,3.7786,3.8358,3.8505,3.7749,3.9071,3.9643,3.8872,0.0,4.1132,4.1168,4.2653,4.3515,4.3515,4.2763,4.2323,4.2286,4.0708,3.9533,3.8762,3.8726,3.8689,3.8689,3.8689,3.8689,3.8689,3.8689,3.8689,3.8689,3.8689,3.8689,3.8542,3.6964,3.634,3.6083,3.4468,3.3844,3.3807,3.3807,3.3807,3.3807,3.3807,3.3807,3.3807,3.3807,3.3807,3.3476,3.1911,3.147,3.1091,2.9464,2.906,2.906,2.9035,2.901,2.901,2.9021,2.9254,2.9404,2.9404,2.8715,2.8128,2.8128,2.6795,2.5445,2.4688,2.4723,2.4746,2.4526,2.4685,2.4804,2.4804,2.4804,2.4471,2.3654,2.3541,2.2836,2.1304,2.1271,2.0914,2.0036,2.0216,2.0308,2.0346,2.0354,2.0799,2.1667,2.1715,2.2646,2.4397,2.4437,2.4916,3.394,3.5459,3.6648,3.7088,3.7345,3.7456,3.7235,3.5913,3.4394,3.317,3.1482,3.0087,2.9684,3.0271,3.1531,3.377,3.5495,3.7294,3.9313,3.957,3.9753,4.0157,4.0361,4.0398,4.0194,4.0561,4.0708,4.0508,4.0875,4.1352,4.1956,4.2947,4.3515,4.3515,4.3294,4.291,4.2323,4.0708,3.979,3.957,3.8982,3.8689,3.8689,3.8689,3.8689,3.8689,3.8689,3.8689,3.8689,3.8689,3.8689,3.8615,3.7588,3.6831,3.6156,3.5078,3.4307,3.3807,3.3807,3.3807,3.3807,3.3807,3.3807,3.3807,3.3807,3.3807,3.3587,3.2596,3.2302,3.1922,3.032,2.9867,2.9779,2.9376,2.9318,2.9332,2.9494,2.9589,2.9635,2.9635,2.8975,2.839,2.839,2.7027,2.5852,2.5634,2.5229,2.4904,2.4753,2.4768,2.4804,2.4804,2.4804,2.4747,2.4613,2.4087,2.3334,2.2417,2.1794,2.1078,2.0271,2.0257,2.0577,2.1192,2.1245,2.1682,2.2556,2.3326,2.3915,2.4437,2.5074,2.5507,3.5752,3.7037,3.8028,3.8028,3.7749,3.7199,3.6134,3.4541,3.2742,3.087,2.9439,2.8374,2.7996,2.8877,3.0454,3.2889,3.4981,3.7147,3.957,4.033,4.0821,4.1249,4.175,4.1928,4.1556,4.1853,4.2076,4.2076,4.1799,4.1809,4.2286,4.3057,4.3515,4.3515,4.3515,4.3094,4.2323,4.1038,4.0267,3.99,3.9093,3.8689,3.8689,3.8689,3.8689,3.8689,0.0,3.8884,3.8898,3.9017,3.9087,3.9012,3.8207,3.7612,3.7067,3.5864,3.512,3.4685,3.4338,3.4177,3.4153,3.4006,3.3992,3.3993,3.4129,3.4177,3.4029,3.3185,3.2962,3.259,3.0953,3.0544,3.04,2.9672,2.9523,2.9561,2.9697,2.9763,2.9829,2.9829,2.9466,2.9033,2.8574,2.779,2.697,2.625,2.5907,2.5553,2.5075,2.5025,2.5025,2.5025,2.5025,2.5062,2.5116,2.4733,2.4157,2.3428,2.2893,2.2274,2.1427,2.1389,2.1606,2.2122,2.2143,2.2633,2.3547,2.4107,2.4598,2.4995,2.5468,2.5703,3.7456,3.8248,3.8836,3.8726,3.7991,3.6721,3.4321,3.2999,3.1408,2.8264,2.7578,2.7236,2.6429,2.7666,2.9671,3.2108,3.4586,3.7139,3.9813,4.1051,4.175,4.1988,4.2859,4.319,4.2485,4.3039,4.3454,4.3454,4.2925,4.2615,4.2615,4.3279,4.3647,4.3647,4.3647,4.3316,4.2615,4.1678,4.0867,4.0182,3.9261,3.8803,3.8803,3.8803,3.8803,3.8833,0.0,0.0,3.9186,3.9474,3.958,3.9542,3.8837,3.8508,3.8206,3.6782,3.6103,3.5801,3.51,3.4788,3.4634,3.4349,3.4258,3.4304,3.4603,3.4713,3.4524,3.3799,3.3572,3.3233,3.1722,3.1231,3.0967,3.0107,2.9805,2.9738,2.9809,2.9924,3.0042,3.0042,3.0042,2.977,2.8897,2.8805,2.8331,2.6893,2.6738,2.6467,2.5577,2.5385,2.5308,2.5308,2.5308,2.5308,2.5308,2.5308,2.4966,2.4168,2.4091,2.3706,2.2855,2.2795,2.2891,2.3056,2.3081,2.3582,2.4552,2.4556,2.4956,2.5703,2.5703,2.5703,3.8469,3.9093,3.9533,3.8872,3.7588,3.6009,3.4211,3.2155,2.9879,2.7346,2.6282,2.5558,2.474,2.6465,2.8891,3.1585,3.4064,3.7044,4.1154,4.187,4.251,4.3917,4.4233,4.431,4.4159,4.4272,4.4385,4.4385,4.428,4.4199,4.4199,4.4312,4.4425,4.4425,4.4425,4.4349,4.4199,4.2682,4.1856,4.1706,4.0165,3.9451,3.9451,3.9451,3.9451,3.9451,0.0,0.0,3.951,3.9557,3.958,3.958,3.9429,3.8988,3.8357,3.8055,3.7074,3.5876,3.5752,3.5251,3.4703,3.4614,3.4603,3.4614,3.4703,3.4713,3.4675,3.4524,3.4459,3.4232,3.3233,3.2468,3.1834,3.1186,3.0457,2.9999,3.0228,3.0324,3.0343,3.0343,3.0343,3.0298,3.0081,2.9486,2.8933,2.8664,2.8071,2.7351,2.6505,2.5731,2.5308,2.5308,2.5308,2.5308,2.5308,2.5308,2.4966,2.4168,2.4091,2.3706,2.2855,2.2832,2.3234,2.3944,2.4068,2.4542,2.5408,2.5465,2.5547,2.5703,2.5703,2.5703,3.9313,3.9606,3.979,3.9423,3.7808,3.5684,3.3264,3.1172,2.8963,2.6228,2.5342,2.4978,2.4568,2.6153,2.8193,3.0357,3.2418,3.5225,3.951,4.0677,4.1851,4.3938,4.4744,4.511,4.511,4.511,4.511,4.511,4.511,4.4966,4.4624,4.4612,4.4612,4.4612,4.4612,4.4612,4.4612,4.3366,4.2523,4.2108,4.0875,4.0045,3.958,3.958,3.958,3.9592,3.9786,0.0,3.9861,4.0004,4.0063,4.0063,4.0063,3.9843,3.9433,3.9004,3.8364,3.7533,3.6637,3.6056,3.5675,3.5247,3.5016,3.4935,3.506,3.5132,3.5132,3.5132,3.5132,3.4912,3.4042,3.3516,3.3035,3.2328,3.1806,3.1443,3.1142,3.1077,3.0923,3.05,3.0385,3.0385,3.0385,3.0038,2.9621,2.9165,2.878,2.8203,2.739,2.6928,2.6308,2.5385,2.5308,2.5308,2.5308,2.5308,2.5154,2.4736,2.4765,2.4601,2.4173,2.4235,2.4455,2.4914,2.5002,2.522,2.5658,2.5663,2.5703,2.5703,2.5703,2.5703,4.0104,4.0251,4.0325,4.0178,3.8293,3.5634,3.2527,3.0559,2.8512,2.5431,2.4804,2.4804,2.4804,2.5974,2.7549,2.9418,3.11,3.3676,3.7915,3.9632,4.1304,4.3624,4.4892,4.5594,4.5594,4.5594,4.5594,4.5594,4.5594,4.5381,4.4849,4.4825,4.4825,4.4825,4.4825,4.4825,4.4825,4.3964,4.3118,4.231,4.1498,4.0626,3.9781,3.9781,3.9781,3.9829,4.0081,0.0,0.0,4.0406,4.0516,4.0516,4.0516,4.0516,4.0439,3.9785,3.9438,3.9092,3.7738,3.7123,3.6885,3.6231,3.563,3.5223,3.5458,3.55,3.55,3.55,3.55,3.5346,3.4661,3.4359,3.3975,3.3122,3.2891,3.2737,3.2083,3.1968,3.1698,3.0846,3.0692,3.0615,3.0423,3.0385,3.0154,2.9467,2.9385,2.9098,2.8289,2.8198,2.7639,2.6056,2.5693,2.55,2.5308,2.5293,2.5307,2.5307,2.5383,2.5437,2.5431,2.5476,2.5568,2.5601,2.5607,2.5657,2.5703,2.5703,2.5703,2.5703,2.5898,2.5977,4.0803,4.1356,4.172,4.0991,3.8919,3.6158,3.2901,3.0856,2.8755,2.5469,2.4804,2.4804,2.4804,2.5529,2.6995,2.9618,3.1463,3.4113,3.8585,4.0622,4.2283,4.4051,4.5038,4.5594,4.5594,4.5594,4.5594,4.5594,4.5594,0.0,4.5494,4.5523,4.5523,4.5523,4.5523,4.5523,4.5523,4.4639,4.3794,4.2988,4.2134,4.1259,4.0422,4.0422,4.0422,4.0422,4.0438,0.0,0.0,4.0508,4.0516,4.0516,4.0516,4.0516,4.0477,4.0439,3.9938,3.9284,3.913,3.8546,3.7853,3.7777,3.6724,3.5479,3.5493,3.55,3.55,3.55,3.55,3.5462,3.5385,3.4776,3.3975,3.3122,3.2891,3.2891,3.2814,3.2776,3.2545,3.1737,3.1583,3.1346,3.0538,3.0385,3.0385,3.0308,3.0351,3.004,2.9193,2.92,2.8902,2.794,2.7043,2.6154,2.5385,2.537,2.5383,2.5383,2.5437,2.5481,2.5481,2.5575,2.5598,2.5602,2.566,2.5703,2.5703,2.5703,2.5703,2.5703,2.6523,2.6875,4.1203,4.1455,4.1367,4.1592,3.9328,3.6264,3.3089,3.1067,2.8981,2.5761,2.5103,2.5103,2.5103,2.5359,2.6262,2.8419,2.934,3.1092,3.4923,3.693,3.9008,4.17,4.3239,4.447,4.5518,4.5594,4.5594,4.5594,4.5594,0.0,4.5594,4.5594,4.5594,4.5594,4.5594,4.5594,4.5594,4.5248,4.4662,4.3816,4.297,4.2124,4.1277,4.0746,4.0516,4.0516,4.0516,0.0,0.0,4.0516,4.0516,4.0516,4.0516,4.0516,4.0516,4.0516,4.0285,3.9938,3.9477,3.9092,3.87,3.8161,3.7546,3.693,3.6385,3.6231,3.6115,3.5654,3.55,3.55,3.55,3.5231,3.4891,3.4538,3.4462,3.4314,3.3814,3.366,3.343,3.2583,3.248,3.2269,3.137,3.1283,3.1137,3.0586,3.0548,3.0418,3.0111,3.0101,2.9811,2.8963,2.8058,2.7158,2.6262,2.6214,2.6034,2.5485,2.5511,2.5579,2.5579,2.612,2.6442,2.6442,2.6992,2.7266,2.7266,2.7266,2.7266,2.7266,2.7617,2.7772,4.1,4.138,4.1255,4.1846,3.9692,3.654,3.3347,3.1317,2.9218,2.5969,2.5308,2.5308,2.5308,2.5308,2.5885,2.7621,2.8088,2.9434,3.2814,3.4776,3.693,3.9785,4.1662,4.3278,4.471,4.5325,4.5594,4.5594,4.5594,0.0,4.5594,4.5594,4.5594,4.5594,4.5594,4.5594,4.5594,4.5594,4.5171,4.4278,4.3739,4.2854,4.1769,4.1162,4.0746,4.0516,0.0,0.0,0.0,4.0516,4.0516,4.0516,4.0516,4.0516,4.0516,4.0516,4.0516,4.0439,3.9861,3.9669,3.9554,3.8931,3.8738,3.8584,3.7738,3.7123,3.6577,3.6,3.5692,3.55,3.55,3.55,3.55,3.55,3.55,3.5321,3.4731,3.4628,3.437,3.3528,3.3432,3.3222,3.2361,3.2266,3.1996,3.1134,3.0995,3.093,3.0658,3.0672,3.0451,2.9909,2.929,2.8462,2.7296,2.7193,2.6965,2.634,2.6341,2.6395,2.6395,2.703,2.7383,2.7383,2.8008,2.8281,2.8281,2.8281,2.8281,2.832,2.8554,2.8732,4.0046,4.1154,4.1808,4.1808,3.9885,3.7115,3.3654,3.1615,2.9417,2.6,2.5308,2.5308,2.5308,2.5308,2.5885,2.7621,2.8588,3.0281,3.3705,3.5622,3.7353,3.9092,4.0777,4.2162,4.3047,4.4633,4.5594,4.5594,4.5594,0.0,4.5594,4.5594,4.5594,4.5594,4.5594,4.5594,4.5594,4.5594,4.5171,4.4316,4.4278,4.3393,4.1808,4.1769,4.1316,0.0,0.0,0.0,0.0,4.0516,4.0516,4.0516,4.0516,4.0516,4.0516,4.0516,4.0516,4.0516,4.0477,4.0477,4.0477,4.0477,4.0477,4.0323,3.9515,3.8084,3.6692,3.6692,3.6115,3.55,3.55,3.55,3.55,3.55,3.55,3.5509,3.5554,3.5586,3.5359,3.4623,3.4487,3.4215,3.3326,3.317,3.2897,3.2035,3.1935,3.1652,3.0792,3.0815,3.0898,3.0898,3.0898,3.0111,2.8245,2.8161,2.8181,2.8181,2.8239,2.8281,2.8281,2.8281,2.8281,2.8281,2.8281,2.8281,2.8281,2.8281,2.8281,2.832,2.9127,2.9837,3.7469,3.8084,3.8308,3.8308,3.6853,3.4814,3.2583,3.0737,2.889,2.6659,2.5692,2.5308,2.5308,2.5308,2.6269,2.9154,2.9808,3.0968,3.3821,3.6161,3.8007,3.9169,4.2854,4.5163,4.4855,4.5817,4.624,4.5633,4.5594,0.0,4.5594,4.5594,4.5594,4.5594,4.5594,4.5594,4.5594,4.5594,4.5479,4.5171,4.4586,4.4008,4.3508,4.2931,0.0,0.0,0.0,0.0,0.0,4.0516,4.0516,4.0531,4.0615,4.0623,4.0636,4.071,4.0682,4.0623,4.0623,4.0588,4.0516,4.0516,4.0566,4.0585,4.0314,3.9423,3.8354,3.7777,3.743,3.7084,3.6462,3.6402,3.6294,3.5714,3.5596,3.5633,3.5671,3.5679,3.5609,3.5373,3.5382,3.5178,3.432,3.4192,3.3935,3.3075,3.2924,3.2653,3.1833,3.1757,3.1562,3.0976,3.0898,3.0429,2.9211,2.9137,2.8904,2.8318,2.8281,2.8281,2.8281,2.8867,2.918,2.918,2.9766,3.0078,3.0078,3.0078,3.0038,2.9947,3.0097,3.0312,3.5315,3.6007,3.6231,3.6231,3.5238,3.3744,3.2083,3.0621,2.9006,2.7005,2.6428,2.6077,2.5423,2.5577,2.6615,2.9038,2.9467,3.0583,3.3744,3.5853,3.7969,4.0431,4.3816,4.597,4.6086,4.6855,4.7009,4.6163,0.0,0.0,4.5633,4.5594,4.5594,4.5594,4.5594,4.5594,4.5594,4.5594,4.5594,4.5594,4.5056,4.4624,4.4278,4.3778,0.0,0.0,0.0,0.0,0.0,4.1564,4.159,4.1602,4.1696,4.1528,4.1223,4.1263,4.1047,4.0742,4.0742,4.0688,4.0604,4.0604,4.067,4.0742,4.0742,4.0106,3.9224,3.8373,3.8102,3.7986,3.745,3.736,3.7302,3.6763,3.6386,3.6203,3.6273,3.6006,3.5777,3.5804,3.5871,3.5767,3.522,3.5153,3.4883,3.4023,3.3906,3.3594,3.2773,3.2656,3.2422,3.1914,3.1562,3.1172,3.0625,3.0273,2.9844,2.9336,2.9297,2.9297,2.9297,2.9805,3.0078,3.0078,3.0625,3.0898,3.0898,3.0857,3.0767,3.0646,3.0563,3.065,0.0,3.4584,3.5192,3.5154,3.4545,3.3506,3.1968,3.0923,0.0,2.7198,2.7351,2.739,2.5769,2.6154,2.7044,2.8088,2.8319,2.9781,3.3821,3.5353,3.7846,4.2777,4.4124,4.5278,4.6808,4.774,4.7817,4.6962,0.0,0.0,4.565,4.562,4.562,4.5599,4.5599,4.5629,4.5594,4.5594,4.5603,4.562,4.562,4.5197,4.4405,4.4405,0.0,0.0,0.0,0.0,0.0,4.3359,4.3405,4.3405,4.3413,4.2907,4.2202,4.2209,4.1696,4.0988,4.0945,4.0902,4.0898,4.0828,4.0828,4.0832,4.0839,4.0291,3.9512,3.8698,3.8465,3.8465,3.8429,3.8393,3.8397,3.8319,3.7699,3.7133,3.7267,3.665,3.6074,3.6093,3.6094,3.6055,3.6016,3.6016,3.5742,3.4922,3.4805,3.4492,3.3594,3.3476,3.3476,3.3398,3.2734,3.2305,3.2305,3.1484,3.0976,3.0898,3.1016,3.1055,3.0976,3.1055,3.1094,3.1094,3.1055,3.1054,3.1054,3.0919,3.0834,3.0766,3.0711,3.1056,3.1192,0.0,3.2423,3.1769,3.1423,3.1192,0.0,3.0044,2.9044,2.7852,2.778,2.7775,2.7351,2.7467,2.8506,3.1275,3.2275,3.3506,3.5776,3.9123,4.247,4.5624,4.7317,4.8086,4.7855,4.8586,4.8471,4.7,0.0,4.6549,4.5786,4.5754,4.5783,4.5825,4.5831,4.5751,4.5594,4.5594,4.564,4.5754,4.5754,4.5674,4.552,4.552,0.0,0.0,0.0,0.0,4.3368,4.3393,4.3405,4.3413,4.3518,4.3419,4.3268,4.3304,4.318,4.2832,4.2169,4.1896,4.1692,4.1134,4.0955,4.0964,4.1078,4.0845,4.047,4.028,4.0202,4.0085,3.9466,3.9321,3.9202,3.8543,3.8297,3.8236,3.8279,3.8123,3.7772,3.7109,3.6992,3.6797,3.6094,3.6016,3.5937,3.5742,3.5703,3.5391,3.4492,3.4375,3.4141,3.3476,3.3242,3.3125,3.3125,3.2383,3.1601,3.0937,3.2109,3.2539,3.1914,3.25,3.2812,3.2812,3.2763,3.2751,3.2751,3.2565,3.2464,3.2438,3.2353,3.2428,3.0402,3.1038,3.1583,3.1115,3.1,3.1,3.1,3.037,2.9496,2.8686,2.8848,2.8887,2.8117,2.8663,2.9902,3.2106,3.3156,3.4985,3.8608,4.2153,4.5279,4.7827,4.8946,4.9489,0.0,4.9899,4.9628,0.0,0.0,4.7863,4.7068,4.6679,4.6478,4.6506,4.6117,4.5852,4.5718,4.5757,4.5764,4.5853,4.5853,4.5852,4.5879,4.5879,4.565,0.0,0.0,0.0,4.4637,4.4712,4.4723,4.4725,4.4827,4.4599,4.4248,4.4296,4.4021,4.3583,4.3114,4.2907,4.2774,4.2366,4.1981,4.1671,4.1718,4.1396,4.0968,4.0968,4.0968,4.0892,4.0465,4.0366,4.0262,3.9795,3.9412,3.9219,3.9219,3.8867,3.8476,3.8008,3.7891,3.7734,3.7266,3.7187,3.7187,3.7187,3.6836,3.6445,3.5937,3.5547,3.5117,3.4648,3.4258,3.3984,3.3984,3.3594,3.2969,3.2109,3.2891,3.3203,3.2773,3.3164,3.3398,3.3351,3.3334,3.3271,3.3242,3.3067,3.3016,3.3011,3.292,3.3122,3.0765,3.1466,3.2039,3.1625,3.1713,3.1852,3.1576,3.1009,3.0276,2.9423,3.0072,3.0356,2.8929,3.0216,3.1735,3.2556,3.3729,3.6459,4.1845,4.4697,4.7062,4.9349,4.9737,5.0138,5.1001,5.1089,5.0744,0.0,0.0,4.9443,4.8569,4.7825,4.7443,4.7458,4.6753,4.636,4.636,4.6173,4.6126,4.6142,4.6142,4.6072,4.5971,4.5971,4.5971,0.0,0.0,0.0,4.6144,4.6248,4.6289,4.6289,4.6289,4.5859,4.5195,4.5195,4.4726,4.4062,4.3945,4.3828,4.3711,4.3711,4.3203,4.2617,4.2617,4.2109,4.1562,4.1562,4.1406,4.1211,4.1211,4.1211,4.1211,4.1211,4.0625,4.0117,4.0117,3.9531,3.8945,3.8828,3.8789,3.875,3.8633,3.8594,3.8594,3.8594,3.7969,3.75,3.75,3.6836,3.6367,3.6211,3.5547,3.5039,3.4922,3.4883,3.457,3.3828,3.3789,3.3789,3.3788,3.3788,3.3742,3.3663,3.3652,3.3618,3.3584,3.3437,3.3372,3.3367,3.3332,3.3699,3.2354,3.34,3.3534,3.1258,3.1856,3.2584,3.1093,3.0672,3.0335,2.9524,3.0622,3.1604,3.1373,3.3331,3.5287,3.6102,3.8796,4.1905,4.4941,4.6921,4.8516,4.9639,5.0407,5.0913,5.1089,5.1089,0.0,0.0,0.0,4.9477,4.8691,4.8538,4.8521,4.8629,4.8511,4.8433,4.8433,4.7492,4.7061,4.717,4.717,4.6845,4.6246,4.6246,4.6246,0.0,0.0,4.6288,4.6288,4.6289,4.6289,4.6289,4.6289,4.6211,4.6094,4.6094,4.6016,4.5781,4.5078,4.4336,4.3711,4.3711,4.3594,4.3516,4.3516,4.3398,4.332,4.332,4.2305,4.1211,4.1211,4.1211,4.1211,4.1211,4.1094,4.1016,4.1016,4.0898,4.0586,3.9844,3.9687,3.9453,3.8711,3.8594,3.8594,3.8594,3.8476,3.8398,3.8398,3.8281,3.793,3.7187,3.6992,3.6601,3.5859,3.5781,3.5742,3.5625,3.5586,3.5584,3.5522,3.5521,3.5461,3.5314,3.527,3.5248,3.5229,3.5154,3.511,3.511,3.5129,3.5154,3.1576,3.3156,3.4153,3.2447,3.3643,3.5045,3.4221,3.3746,3.3343,3.2994,3.3558,3.4118,3.4118,3.5876,3.8026,4.0252,4.3142,4.5668,4.7223,4.8542,4.9634,5.0452,5.0913,5.1164,5.1245,5.1247,0.0,0.0,0.0,0.0,5.0187,4.9757,4.9527,4.9609,4.9141,4.9141,4.9609,4.9086,4.8608,4.8195,4.8195,4.7809,4.6992,4.6992,4.6758,4.6289,0.0,4.6289,4.6289,4.6289,4.6289,4.6289,4.6289,4.6289,4.6289,4.6289,4.6289,4.625,4.5859,4.543,4.5117,4.5117,4.4805,4.4414,4.4414,4.4062,4.3711,4.3711,4.3164,4.2539,4.2539,4.2187,4.1836,4.1836,4.1523,4.1211,4.1211,4.1211,4.1094,4.0664,4.0586,4.0469,4.0078,4.0,4.0,4.0,3.9609,3.9297,3.9297,3.8906,3.8437,3.8047,3.7925,3.7721,3.7331,3.7271,3.6877,3.6004,3.5966,3.5913,3.578,3.5777,3.5743,3.5642,3.5621,3.5588,3.5546,3.5502,3.5731,3.6154,3.6154,3.6385,3.1469,3.3049,3.4517,3.4048,3.5197,3.6611,3.7237,3.6606,3.6158,3.6978,3.7185,3.7226,3.7226,3.8789,4.1094,4.4101,4.6641,4.8397,4.896,4.9776,5.0557,5.1183,5.1261,5.1274,5.1406,0.0,0.0,0.0,0.0,0.0,5.1406,5.082,5.0469,5.0469,4.9844,4.9805,5.0469,5.0469,5.0039,4.9219,4.9219,4.875,4.7891,4.7891,4.7539,4.6914,4.668,4.6601,4.6601,4.6367,4.6406,4.6562,4.6367,4.6289,4.6289,4.6289,4.6289,4.6289,4.6289,4.6289,4.6289,4.6289,4.5859,4.5312,4.5312,4.4844,4.4297,4.4297,4.4297,4.4219,4.3828,4.3203,4.2695,4.2695,4.2226,4.1797,4.1797,4.1797,4.1719,4.1523,4.1484,4.1406,4.1211,4.1211,4.1211,4.1211,4.0625,4.0195,4.0195,3.9609,3.9141,3.8945,3.8773,3.8625,3.8415,3.8316,3.775,3.6518,3.6458,3.6398,3.6274,3.627,3.6215,3.6157,3.6157,3.6137,3.6077,3.6077,3.6385,3.7,3.7,3.7353,3.3984,3.4531,3.4883,3.5625,3.5312,3.5507,3.7929,3.7187,3.6914,4.0156,4.082,4.082,4.082,4.2851,4.5156,4.7031,4.8828,5.0039,5.0078,5.0781,5.1328,5.1367,5.1406,5.1406,5.1406,0.0,0.0,0.0,0.0,0.0,5.1406,5.1367,5.1328,5.1328,5.125,5.125,5.1328,5.1328,5.0898,5.0117,5.0117,4.9648,4.8828,4.8828,4.8789,4.8672,4.7851,4.75,4.7422,4.6641,4.6797,4.7422,4.6601,4.6289,4.6289,4.6289,4.6289,4.6289,4.6289,4.6289,4.6289,4.6289,4.625,4.6211,4.6211,4.6172,4.6094,4.6094,4.6094,4.5742,4.4101,4.3633,4.3594,4.3594,4.3555,4.3516,4.3516,4.3516,4.3281,4.2461,4.2305,4.207,4.1328,4.1211,4.1211,4.1211,4.1133,4.1094,4.1094,4.1055,4.0703,3.9883,3.9673,3.9231,3.8369,3.8311,3.8192,3.7942,3.8076,3.808,3.7926,3.792,3.7891,3.7837,3.7837,3.7829,3.7815,3.7815,3.7853,3.7892,3.7892,3.793,3.2969,3.4297,3.5586,3.5937,3.6953,3.832,3.9883,4.0937,4.2266,4.4687,4.5195,4.5,4.4453,4.5586,4.6992,4.8203,5.0273,5.1758,5.1758,5.2031,5.2226,5.2226,5.1719,5.1406,0.0,0.0,0.0,0.0,0.0,0.0,5.1406,5.1406,5.1406,5.1406,5.1406,5.1406,5.1406,5.1406,5.125,5.0937,5.0937,5.0508,4.9726,4.9726,4.9414,4.8867,4.8555,4.8398,4.8398,4.8047,4.8125,4.8398,4.8047,4.793,4.793,4.793,4.793,4.7851,4.7305,4.7109,4.7031,4.6484,4.6289,4.6289,4.6289,4.6289,4.6289,4.6289,4.6289,4.6133,4.5508,4.4922,4.4492,4.4492,4.4101,4.3711,4.3711,4.3711,4.3594,4.3281,4.3203,4.3125,4.2812,4.2734,4.2734,4.2734,4.2734,4.2734,4.2734,4.2261,4.1742,4.143,4.076,4.0136,3.9714,3.9657,3.9638,3.9616,3.8711,3.8109,3.8035,3.8028,3.804,3.8007,3.8007,3.8007,3.8007,3.8007,3.8277,3.8815,3.8815,3.9084,3.3047,3.4453,3.6055,3.6328,3.8398,4.0742,4.2422,4.4141,4.6133,4.8672,4.8789,4.8242,4.7656,4.7773,4.8398,4.9492,5.1367,5.2812,5.3086,5.3125,5.3008,5.2734,5.2187,5.1719,0.0,0.0,0.0,0.0,0.0,0.0,0.0,5.1406,5.1406,0.0,5.1406,5.1406,5.1406,5.1406,5.1406,5.1406,5.1406,5.1094,5.0586,5.0586,5.0234,4.9687,4.9414,4.9297,4.9297,4.9023,4.8906,4.8945,4.9219,4.9141,4.8906,4.8906,4.8906,4.8828,4.8203,4.8008,4.7891,4.7305,4.7109,4.7109,4.7109,4.7109,4.7109,4.7109,4.7109,4.7109,4.7109,4.6289,4.5391,4.5391,4.4961,4.4531,4.4531,4.4531,4.4453,4.4141,4.4101,4.4023,4.375,4.3711,4.3711,4.3711,4.367,4.3667,4.3667,4.3051,4.2613,4.2588,4.1709,4.1055,4.0916,4.0669,4.0516,4.0516,3.9469,3.8826,3.8784,3.8777,3.8777,3.8777,3.8777,3.8777,3.8777,3.8777,3.9084,3.9669,3.9669,3.9977,3.4922,3.5351,3.6211,3.7109,3.9297,4.2148,4.5547,4.6328,4.7578,5.1836,5.1406,5.0234,5.0234,4.9531,4.9492,5.1133,5.2148,5.3047,5.3906,5.4023,5.3672,5.2812,5.2695,5.2344,0.0,0.0,0.0,0.0,0.0,0.0,0.0,5.1406,5.1406,0.0,5.1406,5.1406,5.1406,5.1406,5.1406,5.1406,5.1406,5.1406,5.1406,5.1406,5.1406,5.1367,5.0547,5.0195,5.0156,4.9297,4.8906,4.9023,4.9883,4.9687,4.8906,4.8906,4.8906,4.8906,4.8906,4.8906,4.8906,4.8906,4.8906,4.8906,4.8906,4.8906,4.8906,4.8906,4.8906,4.8906,4.8906,4.7617,4.6328,4.6328,4.6328,4.6328,4.6289,4.6289,4.6055,4.5195,4.5,4.4726,4.3867,4.3711,4.3711,4.3711,4.3656,4.3626,4.3624,4.3477,4.3365,4.3221,4.2473,4.1944,4.1832,4.1008,4.0516,4.0516,4.0516,4.0516,4.0516,4.0516,4.0516,4.0516,4.0516,4.0516,4.0516,4.0516,4.0516,4.0516,4.0516,4.0516,3.4023,3.5312,3.7266,3.875,4.2422,4.6289,4.8516,4.9492,5.0781,5.3906,5.3633,5.2695,5.207,5.1758,5.1758,5.2226,5.3555,5.4609,5.4883,5.4922,5.4805,5.457,5.3437,0.0,0.0,0.0,0.0,0.0,0.0,0.0,0.0,5.1406,0.0,0.0,5.1406,5.1406,5.1406,5.1406,5.1406,5.1406,5.1406,5.1406,5.1406,5.1406,5.1406,5.1406,5.1133,5.1055,5.1016,5.0781,5.0664,5.0664,5.0937,5.0898,5.0664,5.0664,5.0664,5.0586,5.0,4.9805,4.9726,4.9101,4.8906,4.8906,4.8906,4.8906,4.8906,4.8906,4.8906,4.8906,4.8906,4.8516,4.7969,4.7344,4.7226,4.7031,4.6445,4.6289,4.6211,4.5976,4.5853,4.5682,4.5447,4.5299,4.5264,4.5264,4.5241,4.4962,4.4336,4.4206,4.3924,4.3196,4.2903,4.2765,4.2701,4.247,4.2316,4.2316,4.2316,4.1777,4.0554,4.0516,4.0516,4.0516,4.0516,4.0516,4.0516,4.0516,4.0823,4.1393,4.1393,4.1739,3.5937,3.7617,3.9922,4.2344,4.5547,4.8828,5.1601,5.2617,5.3476,5.543,5.4844,5.3945,5.3789,5.3164,5.293,5.3633,5.4609,5.543,5.5781,5.582,5.5703,5.5351,5.4375,0.0,0.0,0.0,0.0,0.0,0.0,0.0,0.0,5.2422,0.0,0.0,5.2422,5.2266,5.1914,5.1914,5.1758,5.1406,5.1406,5.1406,5.1406,5.1406,5.1406,5.1406,5.1406,5.1406,5.1406,5.1406,5.1406,5.1406,5.1406,5.1406,5.1406,5.1406,5.1406,5.1328,5.0859,5.0664,5.0586,5.0078,4.9883,4.9883,4.9883,4.9883,4.9883,4.9883,4.9842,4.9797,4.9797,4.9788,4.9466,4.831,4.8038,4.7762,4.685,4.6649,4.6571,4.6222,4.6077,4.6008,4.6008,4.5963,4.5879,4.5879,4.5877,4.5636,4.5037,4.4938,4.4739,4.4141,4.3778,4.3585,4.3585,4.3278,4.3085,4.3085,4.3085,4.2624,4.1593,4.12,4.1162,4.1516,4.12,4.12,4.1516,4.1516,4.1816,4.2316,4.2316,4.2497,3.9219,4.0937,4.3164,4.6719,4.8555,5.0547,5.4492,5.543,5.5625,5.6445,5.5351,5.4492,5.5273,5.4101,5.3555,5.5156,5.543,5.5703,5.6484,5.6523,5.6211,5.5508,5.5273,0.0,0.0,0.0,0.0,0.0,0.0,0.0,0.0,0.0,0.0,5.3984,5.3984,5.3633,5.2812,5.2812,5.2383,0.0,5.1523,5.1523,5.1523,5.1445,5.1406,5.1406,5.1406,5.1406,5.1406,5.1406,5.1406,5.1406,5.1406,5.1406,5.1406,5.1406,5.1406,5.1406,5.1406,5.1406,5.1406,5.1406,5.1406,5.1406,5.1406,5.1367,5.1367,5.1366,5.127,5.1194,5.1194,5.1133,5.0728,4.925,4.8842,4.8515,4.7531,4.731,4.7042,4.6191,4.6026,4.5978,4.5905,4.5896,4.5886,4.5886,4.5813,4.5733,4.562,4.5594,4.5594,4.5594,4.4893,4.4432,4.4432,4.3739,4.3316,4.3316,4.3316,4.3316,4.3316,4.2431,4.2277,4.3085,4.2316,4.2316,4.3085,4.3085,4.3124,4.3201,4.3175,4.3014,3.7578,3.9609,4.2461,4.6562,5.0781,5.4336,5.5937,5.6328,5.6367,5.6562,5.6289,5.6094,5.6289,5.6015,5.5898,5.625,5.6328,5.6406,5.6562,5.6015,5.5742,5.625,5.5117,0.0,0.0,0.0,0.0,0.0,0.0,0.0,5.3984,0.0,0.0,5.3984,5.3984,5.3906,5.3711,5.3711,5.3281,0.0,5.2422,5.2422,5.2383,5.1719,5.1406,5.1406,5.1406,5.1406,5.1406,5.1406,5.1406,5.1406,5.1406,5.1406,5.1406,5.1406,5.1406,5.1406,5.1406,5.1406,5.1406,5.1406,5.1406,5.1367,5.127,5.1221,5.1213,5.119,5.1152,5.1131,5.1131,5.1113,5.0996,5.0518,4.9959,4.9322,4.8395,4.8234,4.7967,4.7081,4.684,4.6558,4.595,4.5722,4.5658,4.5658,4.5657,4.5646,4.5603,4.5594,4.5594,4.5594,4.5441,4.5325,4.5325,4.5171,4.5056,4.5056,4.5056,4.5056,4.5056,4.3624,4.2893,4.3085,4.2931,4.2893,4.3085,4.3085,4.3431,4.4047,4.3762,4.3975,3.8476,4.1055,4.4258,4.9375,5.332,5.6055,5.6484,5.6601,5.6601,5.6601,5.6601,5.6601,5.6601,5.6601,5.6445,5.6055,5.6328,5.6445,5.6055,5.5586,5.5625,5.6484,5.543,0.0,0.0,0.0,0.0,0.0,0.0,5.5234,5.5234,5.5234,5.5234,5.5234,5.5234,5.5039,5.4648,5.4609,5.418,5.332,5.332,5.332,5.332,5.2851,5.2656,5.2656,5.2656,5.2656,5.2656,5.2656,5.2656,5.2656,5.2656,5.2383,5.2031,5.2031,5.1758,5.1406,5.1406,5.1406,5.1406,5.1406,5.1406,5.1406,5.132,5.1263,5.1196,5.1151,5.1099,5.099,5.099,5.0966,5.0874,5.0803,5.0548,5.0067,4.9121,4.8945,4.8558,4.7287,4.7016,4.6677,4.5835,4.5632,4.5594,4.5594,4.5594,4.5594,4.5594,4.5594,4.5594,4.5594,4.5594,4.5594,4.5594,4.5594,4.5594,4.5594,4.5594,4.5594,4.5594,4.4748,4.4278,4.4278,4.3893,4.3893,4.4278,4.4278,4.4418,4.4672,4.4493,4.4501,3.9453,4.293,4.6797,5.2383,5.5078,5.6406,5.6562,5.6601,5.6601,5.6601,5.6601,5.6601,5.6601,5.6601,5.6328,5.543,5.6015,5.625,5.5234,5.5195,5.5586,5.6289,0.0,0.0,0.0,0.0,0.0,0.0,0.0,5.6601,5.6601,5.6601,5.6601,5.6601,5.6601,5.625,5.5547,5.5508,5.5078,5.4219,5.4062,5.3905,5.3705,5.4021,5.4101,5.3984,5.3984,5.3984,5.3984,5.3984,5.3984,5.3984,5.3984,5.3437,5.2655,5.2655,5.2106,5.1361,5.1361,5.1361,5.1361,5.1361,5.1361,5.1321,5.1317,5.1249,5.1122,5.1105,5.0992,5.0875,5.0875,5.0782,5.0712,5.0712,5.0782,5.0634,4.9787,4.9625,4.9163,4.7625,4.7077,4.6624,4.5748,4.5594,4.5594,4.5594,4.5594,4.5594,4.5594,4.5594,4.5825,4.6441,4.6479,4.6364,4.6056,4.6133,4.6018,4.5633,4.5748,4.5748,4.5594,4.5594,4.5671,4.5825,4.497,4.4893,4.5594,4.555,4.5457,4.5295,4.5194,4.4851,3.7266,4.2422,4.8164,5.1914,5.418,5.5664,5.6445,5.6601,5.6601,5.6601,5.6601,5.6601,5.6601,5.6601,5.6328,5.543,5.6015,5.6015,5.4414,5.4805,5.5351,5.5469,0.0,0.0,0.0,0.0,0.0,0.0,5.6601,5.6601,5.6601,5.6601,5.6601,5.6601,5.6601,5.6523,5.6445,5.6445,5.5976,5.5117,5.4375,5.3499,5.2593,5.4189,5.4592,5.3984,5.3984,5.3984,5.3984,5.3984,5.3984,5.3984,5.3984,5.3393,5.2544,5.2544,5.1957,5.1139,5.1139,5.1139,5.1139,5.1139,5.1139,5.1122,5.1002,5.0946,5.0932,5.0795,5.0729,5.0721,5.0721,5.0693,5.0712,5.0712,5.0693,5.0673,5.0558,5.0519,5.025,4.924,4.7894,4.6624,4.5748,4.5594,4.5594,4.5594,4.5594,4.5594,4.5594,4.5594,4.6749,4.9711,5.0019,4.9394,4.7894,4.824,4.7711,4.571,4.6317,4.6394,4.5633,4.5594,4.597,4.6701,4.5855,4.5479,4.5594,4.5293,4.5491,4.6111,4.5495,4.5491,3.8906,4.3789,4.8555,5.2461,5.4375,5.5547,5.6406,5.6601,5.6601,5.6601,5.6601,5.6601,5.6601,5.6211,5.5586,5.4726,5.4883,5.4726,5.3437,5.4023,5.4765,5.5234,0.0,0.0,0.0,0.0,0.0,0.0,5.6601,5.6601,5.6601,5.6601,5.6601,5.6601,5.6516,5.6506,5.6506,5.5933,5.5213,5.4357,5.3964,5.377,5.3789,5.4619,5.4819,5.4546,5.5012,5.4973,5.4507,5.4507,5.4507,5.4507,5.4507,5.4248,5.3779,5.3315,5.2542,5.1711,5.1245,5.1089,5.1089,5.1089,5.1089,5.1079,5.102,5.0972,5.0874,5.0819,5.0776,5.0712,5.0712,5.0712,5.0712,5.0712,5.0712,5.0712,5.0712,5.0712,5.0442,4.9586,4.8394,4.7355,4.6672,4.6556,4.6326,4.571,4.5594,4.5594,4.5594,4.5594,4.6903,5.0327,5.0712,5.0404,4.9625,4.9788,4.9519,4.8519,4.7625,4.7086,4.7009,4.7009,4.7163,4.7548,4.674,4.6547,4.7009,4.6619,4.6537,4.6683,4.6143,4.596,3.9407,4.3236,4.6596,5.0935,5.3162,5.4569,5.5703,5.6289,5.6601,5.6601,5.6601,5.6601,5.6601,5.6055,5.5351,5.4453,5.4531,5.4297,5.3164,5.3984,5.4805,5.5234,0.0,0.0,0.0,0.0,0.0,0.0,5.6601,5.6601,5.6601,5.6561,5.6559,5.6559,5.6402,5.6244,5.601,5.5043,5.4124,5.3236,5.3234,5.348,5.3831,5.4068,5.4296,5.4531,5.5697,5.5847,5.5224,5.5224,5.5224,5.5224,5.5224,5.4925,5.4418,5.3802,5.284,5.1793,5.1211,5.0978,5.0978,5.0978,5.0978,5.0978,5.0978,5.108,5.1153,5.1153,5.1227,5.1318,5.1318,5.1318,5.1318,5.1318,5.1164,5.0933,5.075,5.0712,5.0442,4.9586,4.8817,4.8125,4.7441,4.7057,4.6595,4.5748,4.6326,4.6903,4.6903,4.6903,4.7865,5.0442,5.0712,5.0712,5.0712,5.0712,5.0712,5.0712,4.8903,4.7894,4.8086,4.8086,4.8164,4.8288,4.7674,4.7559,4.7943,4.7568,4.7314,4.7183,4.6754,4.6555,3.6306,3.8608,4.1084,4.5514,4.9075,5.1973,5.3749,5.539,5.6601,5.6601,5.6601,5.6601,5.6601,5.6562,5.625,5.5351,5.5937,5.5859,5.418,5.539,5.6172,5.539,0.0,0.0,0.0,0.0,0.0,0.0,5.6601,5.6601,5.6601,5.6465,5.6397,5.6397,5.6269,5.5818,5.5006,5.4105,5.318,5.2165,5.2325,5.1845,5.0952,5.1826,5.2614,5.3388,5.5365,5.6153,5.6114,5.6114,5.6114,5.6114,5.6114,5.5022,5.3475,5.3436,5.2305,5.0789,5.075,5.0712,5.0712,5.0712,5.0712,5.0712,5.0712,5.1231,5.1866,5.1866,5.2443,5.3087,5.3087,5.3087,5.3087,5.3087,5.2423,5.1625,5.0856,5.0712,5.0442,4.9586,4.9163,4.8596,4.748,4.6402,4.5671,4.5594,4.8365,5.0442,5.0442,5.0442,5.0519,5.0673,5.0712,5.0712,5.0712,5.0712,5.0712,5.0712,4.9817,4.8933,4.8125,4.8086,4.8306,4.875,4.8712,4.8319,4.7545,4.72,4.7243,4.7669,4.7259,4.7462,3.5593,3.7894,4.0513,4.4295,4.6989,4.9328,5.1612,5.3445,5.4843,5.5386,5.6009,5.6462,5.6462,5.6089,5.5664,5.5351,5.5078,5.4726,5.4101,5.5039,5.5664,5.5351,0.0,0.0,0.0,0.0,0.0,0.0,0.0,0.0,5.6319,5.6285,5.626,5.626,5.5584,5.4512,5.2978,5.2669,5.2086,5.1198,5.1236,5.134,5.151,5.2406,5.3254,5.4098,5.5334,5.5599,5.5058,5.4517,5.4594,5.5058,5.4478,5.4503,5.4815,5.4313,5.3716,5.3049,5.251,5.2318,5.2318,5.2318,5.2318,5.2318,5.2318,5.251,5.2731,5.2731,5.2972,5.3203,5.3203,5.3203,5.3203,5.3203,5.3241,5.3087,5.2433,5.1471,5.0596,5.0289,5.0173,4.9981,4.9558,4.9134,4.8865,4.8865,4.9904,5.0712,5.0712,5.0712,5.0712,5.0712,5.0712,5.0712,5.0712,5.0712,5.1174,5.2241,5.1702,5.1356,5.1356,5.0846,5.0614,5.0779,5.0015,4.9353,4.8764,4.8408,4.8317,4.8451,4.8053,4.7993,3.4097,3.6082,3.8697,4.2408,4.4245,4.6156,5.0183,5.1974,5.3176,5.4606,5.5641,5.6347,5.6347,5.5981,5.5699,5.5742,5.5234,5.4883,5.4883,5.5351,5.5742,5.5742,0.0,0.0,0.0,0.0,0.0,0.0,0.0,0.0,5.6256,5.6169,5.5935,5.5641,5.4699,5.3463,5.1923,5.1615,5.1241,5.0712,5.0712,5.1125,5.1923,5.25,5.3395,5.4511,5.5049,5.5164,5.4857,5.428,5.4395,5.4857,5.428,5.4549,5.5241,5.4703,5.4318,5.3972,5.3395,5.3203,5.3203,5.3203,5.3203,5.3203,5.3203,5.3395,5.3626,5.3626,5.3818,5.4049,5.4049,5.4049,5.3972,5.3703,5.3895,5.3972,5.3356,5.2318,5.1548,5.1548,5.1097,5.0712,5.0712,5.0712,5.0712,5.0712,5.0712,5.0712,5.0712,5.0712,5.0712,5.0712,5.0712,5.0712,5.0712,5.0712,5.1318,5.2856,5.2472,5.251,5.3164,5.2521,5.1924,5.1526,5.0582,4.9753,4.9092,4.8945,4.8847,4.8711,4.8715,4.8893,0.0,0.0,0.0,3.9491,4.0599,4.2392,4.9274,5.0831,5.1624,5.4246,5.5447,5.6069,5.6186,5.6289,5.6448,5.6561,5.6601,5.6601,5.6601,5.6601,5.6601,5.6601,0.0,0.0,0.0,0.0,0.0,0.0,0.0,5.6341,5.638,5.6071,5.5466,5.4521,5.3664,5.2818,5.1962,5.1164,5.0789,5.0789,5.0789,5.1164,5.1923,5.1962,5.2895,5.4511,5.4511,5.4972,5.5703,5.5665,5.5665,5.5703,5.5665,5.5203,5.4549,5.4549,5.401,5.328,5.328,5.328,5.328,5.328,5.328,5.328,5.328,5.3857,5.4549,5.4549,5.5088,5.5703,5.5703,5.5703,5.5511,5.4703,5.4549,5.4318,5.3472,5.328,5.328,5.3203,5.1895,5.0789,5.0789,5.0827,5.0866,5.0866,5.0866,5.0866,5.0866,5.075,5.0712,5.0712,5.0712,5.075,5.0827,5.0789,5.1289,5.2405,5.2164,5.2346,5.322,5.2853,5.2077,5.0892,5.0364,4.9527,4.8362,4.8729,4.8656,4.8343,4.915,4.9978,3.2929,0.0,0.0,0.0,0.0,0.0,4.3494,4.4868,4.6576,5.0966,5.2128,5.3119,5.5542,5.6113,5.626,5.6289,5.6463,5.6601,5.6601,5.6601,5.6561,5.646,0.0,0.0,0.0,0.0,0.0,0.0,5.545,5.5285,5.5866,5.5817,5.5363,5.4511,5.428,5.3703,5.2856,5.2626,5.251,5.251,5.251,5.2626,5.2856,5.351,5.4049,5.4511,5.5126,5.5472,5.5665,5.5049,5.5164,5.5626,5.5049,5.5049,5.5357,5.5357,5.5203,5.5011,5.5011,5.5011,5.5011,5.5011,5.5011,5.5011,5.5011,5.5164,5.5357,5.5357,5.5511,5.5703,5.5703,5.5703,5.5626,5.5434,5.5357,5.528,5.5049,5.5011,5.4664,5.3433,5.2818,5.251,5.251,5.351,5.4318,5.4318,5.4318,5.4318,5.4318,5.2212,5.0712,5.0712,5.0712,5.1674,5.4087,5.3203,5.3164,5.4703,5.4164,5.403,5.4536,5.3849,5.3166,5.2544,5.0908,4.9946,4.9599,4.8827,4.8402,4.8306,4.8563,4.8783,3.4468,3.5308,3.6846,3.743,0.0,0.0,4.2846,4.3508,4.4547,4.9634,5.0756,5.1623,5.4271,5.4924,5.5171,5.5514,5.6051,5.6448,5.6448,5.6448,5.6394,5.6344,0.0,0.0,0.0,5.5689,5.5514,5.6012,5.5432,5.5249,5.5675,5.5703,5.5318,5.4511,5.4511,5.4087,5.3203,5.3203,5.3203,5.3203,5.3203,5.3395,5.378,5.428,5.4664,5.5011,5.5511,5.5703,5.5665,5.5203,5.528,5.5665,5.5164,5.528,5.5703,5.5703,5.5703,5.5703,5.5703,5.5703,5.5703,5.5703,5.5934,5.6252,5.6252,5.6511,5.678,5.678,5.678,5.678,5.678,5.678,5.678,5.678,5.678,5.678,5.678,5.6588,5.5972,5.4511,5.4241,5.4241,5.4241,5.5049,5.5703,5.5703,5.5703,5.5703,5.5703,5.3972,5.279,5.279,5.279,5.3587,5.5511,5.478,5.4511,5.5164,5.4583,5.447,5.5082,5.4267,5.3509,5.2965,5.1266,5.0047,4.9343,4.8623,4.8489,4.882,4.882,4.9003,3.65,3.6654,0.0,0.0,3.82,0.0,4.4423,4.4239,4.4047,4.8865,4.9865,5.0433,5.2279,5.2824,5.3197,5.3855,5.5041,5.5925,5.6186,5.6191,5.6186,5.6169,0.0,0.0,5.6146,5.6141,5.6141,5.6141,5.5993,5.5834,5.5724,5.5703,5.5357,5.4664,5.4626,5.4241,5.351,5.3472,5.3472,5.3472,5.3472,5.3895,5.4626,5.4626,5.5011,5.5703,5.5703,5.5703,5.5703,5.5703,5.5703,5.5703,5.5703,5.5703,5.5703,5.5703,5.5742,5.5818,5.5818,5.5895,5.5972,5.5972,5.6511,5.7137,5.7137,5.7703,5.8319,5.8319,5.8319,5.8319,5.8319,5.8319,5.8319,5.8319,5.8319,5.8319,5.8319,5.7934,5.728,5.628,5.5857,5.5703,5.5703,5.5703,5.5703,5.5703,5.5703,5.5703,5.5703,5.5703,5.5703,5.5703,5.5703,5.5703,5.5703,5.5703,5.5385,5.4622,5.4166,5.4267,5.4922,5.42,5.3442,5.2698,5.1539,5.0178,4.86,4.8379,4.871,4.9463,4.9463,4.9848,3.9815,4.0162,4.0585,3.9738,0.0,0.0,3.97,3.9892,4.0893,4.397,4.4586,4.5509,4.8548,4.971,5.0017,4.9477,5.1865,5.434,5.5964,5.6191,5.6146,5.5962,0.0,0.0,5.5808,5.5789,5.5789,5.5789,5.5778,5.5728,5.5714,5.5703,5.5626,5.5472,5.5472,5.5395,5.5203,5.5203,5.5203,5.5203,5.5203,5.528,5.5472,5.5472,5.5549,5.5703,5.5703,5.5703,5.5703,5.5703,5.5703,5.5703,5.5703,5.5703,5.5703,5.5703,5.6126,5.6753,5.6753,5.7203,5.778,5.778,5.7896,5.805,5.805,5.8165,5.8319,5.8319,5.8319,5.8319,5.8319,5.8319,5.8319,5.8319,5.8319,5.8319,5.8319,5.855,5.8704,5.8473,5.6973,5.5703,5.5703,5.5703,5.5703,5.5703,5.5703,5.5703,5.5703,5.5703,5.5703,5.5703,5.5703,5.5703,5.5703,5.5703,5.5489,5.4995,5.4918,5.4614,5.4063,5.3887,5.3551,5.3097,5.2222,5.1279,5.0325,4.8967,4.8379,4.8563,4.8563,4.8636,4.2124,4.2124,4.2354,4.1893,0.0,0.0,0.0,4.0508,4.0746,4.3739,4.3355,4.3355,4.6317,4.6855,4.7009,4.7432,5.0346,5.2762,5.3352,5.4886,5.5921,5.5798,0.0,0.0,5.5724,5.5703,5.5703,5.5703,5.5703,5.5703,5.5703,5.5703,5.5703,5.5703,5.5703,5.5703,5.5703,5.5703,5.5703,5.5703,5.5703,5.5703,5.5703,5.5703,5.5703,5.5703,5.6165,5.6368,5.6368,5.6819,5.7011,5.6934,5.6511,5.6368,5.6406,5.6819,5.728,5.7665,5.7665,5.7934,5.8319,5.8319,5.8588,5.8896,5.8896,5.9204,5.955,5.955,5.955,5.955,5.955,5.955,5.955,5.955,5.955,5.955,5.955,5.9742,5.9935,5.9935,5.855,5.7319,5.7049,5.7011,5.6703,5.5818,5.5703,5.5703,5.5703,5.5703,5.5703,5.5703,5.5703,5.5703,5.5703,5.5703,5.5543,5.5134,5.4905,5.4516,5.3814,5.3624,5.3199,5.2601,5.2197,5.161,5.0802,4.9958,4.9554,4.9554,4.9554,4.9554,0.0,0.0,0.0,0.0,0.0,4.2016,0.0,0.0,0.0,4.3863,4.2854,4.2162,4.4248,4.4162,4.4239,4.547,0.0,0.0,0.0,5.2472,0.0,5.4934,0.0,0.0,0.0,5.5164,5.5164,5.5665,5.5241,5.5164,5.5665,5.5703,5.5703,5.5703,5.5703,5.5703,5.5703,5.5703,5.5703,5.5703,5.5857,5.5934,5.5972,5.6126,5.6203,5.6242,5.6934,5.7253,5.7291,5.8011,5.8319,5.8242,5.7511,5.7253,5.7319,5.805,5.8396,5.855,5.855,5.8627,5.8781,5.8781,5.9204,5.9742,5.9742,6.0242,6.0781,6.0781,6.0781,6.0781,6.0781,6.0781,6.0781,6.0781,6.0781,6.0781,6.0781,6.0781,6.0781,6.0781,6.005,5.9242,5.8627,5.8511,5.7934,5.6434,5.6472,5.6665,5.6665,5.6395,5.6242,5.6319,5.6242,5.6126,5.5972,5.589,5.5603,5.5026,5.4594,5.4153,5.3702,5.338,5.2894,5.2234,5.2234,5.1903,5.1279,5.1279,5.1096,5.0802,5.0802,5.0802,0.0,0.0,0.0,0.0,4.524,0.0,0.0,0.0,4.1354,4.0246,0.0,4.0746,4.1016,0.0,0.0,0.0,0.0,0.0,4.6287,4.8432,5.0664,5.2154,0.0,0.0,0.0,5.3241,5.328,5.5511,5.3626,5.3318,5.5588,5.5703,5.5703,5.5703,5.5703,5.5703,5.5703,5.5703,5.5703,5.5703,5.6483,5.6868,5.6868,5.7665,5.8011,5.8011,5.8127,5.8165,5.8165,5.828,5.8319,5.828,5.8204,5.8165,5.8165,5.828,5.8742,5.9358,5.9358,5.9858,6.0512,6.0512,6.0589,6.0666,6.0666,6.0704,6.0781,6.0781,6.0781,6.0781,6.0781,6.0781,6.0781,6.0781,6.0781,6.0781,6.0781,6.0781,6.0781,6.0781,6.0704,6.0319,5.9511,5.9165,5.8781,5.8127,5.9281,6.0204,6.0204,5.8934,5.8204,5.8665,5.828,5.7703,5.6907,5.6536,5.5826,5.4616,5.4135,5.3683,5.3293,5.3209,5.3188,5.3078,5.3078,5.3041,5.291,5.291,5.2197,5.0802,5.0802,5.0802,0.0,0.0,0.0,0.0,0.0,0.0,4.22,0.0,4.0969,0.0,0.0,0.0,0.0,0.0,0.0,0.0,4.3239,0.0,0.0,0.0,4.8779,0.0,0.0,0.0,0.0,0.0,0.0,0.0,0.0,5.301,5.5549,5.5703,5.5703,5.5703,5.5703,5.5703,5.5703,5.6214,5.6445,5.6483,5.7319,5.7742,5.778,5.8127,5.8319,5.8319,5.8781,5.9011,5.905,5.955,5.9742,5.9742,5.9742,5.9435,5.905,5.955,5.9973,6.0242,6.0242,6.0473,6.0781,6.0781,6.0781,6.0781,6.0781,6.0781,6.0781,6.0781,6.1166,6.155,6.155,6.155,6.155,6.155,6.1166,6.0781,6.0781,6.0781,6.0781,6.0781,6.0781,6.0666,6.0319,6.0165,6.0012,5.9781,6.0358,6.0781,6.0781,5.9627,5.8858,5.9088,5.8373,5.7762,5.7379,5.6925,5.6361,5.5544,5.5075,5.4764,5.4583,5.4583,5.4583,5.4583,5.4583,5.4363,5.3922,5.3922,5.3298,5.2197,5.2197,5.2197,4.9433,0.0,0.0,0.0,0.0,0.0,0.0,0.0,0.0,0.0,0.0,0.0,0.0,0.0,0.0,0.0,0.0,4.4008,0.0,4.4509,0.0,0.0,0.0,0.0,0.0,0.0,0.0,0.0,0.0,0.0,5.5203,5.5357,5.5472,5.5703,5.5934,5.6049,5.6049,5.6934,5.7368,5.7368,5.8204,5.8627,5.8627,5.8896,5.8973,5.9011,5.9588,5.9858,5.9896,6.055,6.0781,6.0781,6.0781,6.055,6.0242,6.0666,6.0781,6.0781,6.0781,6.0973,6.1166,6.1166,6.132,6.1473,6.1473,6.1473,6.1473,6.1473,6.1935,6.2435,6.2435,6.2435,6.2435,6.2435,6.1935,6.1473,6.1473,6.1358,6.1281,6.1281,6.1396,6.155,6.1704,6.1204,6.0781,6.0781,6.0781,6.0781,6.0781,6.0089,5.955,5.955,5.8782,5.8182,5.7939,5.7413,5.6762,5.6075,5.5754,5.5596,5.5596,5.5596,5.5596,5.5596,5.5596,5.5317,5.473,5.473,5.4436,5.3849,5.3408,5.3203,0.0,0.0,0.0,4.6903,0.0,0.0,0.0,0.0,4.4201,0.0,0.0,0.0,0.0,0.0,0.0,0.0,0.0,0.0,0.0,0.0,0.0,0.0,0.0,0.0,0.0,0.0,0.0,0.0,0.0,0.0,5.4318,5.4549,5.4895,5.5665,5.6522,5.6945,5.6945,5.7819,5.828,5.828,5.9088,5.9473,5.9473,6.0319,6.0704,6.0704,6.0742,6.0742,6.0742,6.0781,6.0781,6.0781,6.0781,6.1281,6.1908,6.1089,6.0781,6.0781,6.0781,6.137,6.2062,6.2062,6.2589,6.3243,6.3243,6.3243,6.3243,6.3243,6.3231,6.3281,6.3281,6.3281,6.3281,6.3281,6.3231,6.3243,6.3243,6.282,6.2435,6.2435,6.2858,6.3397,6.3974,6.2243,6.0781,6.0781,6.0781,6.0781,6.0781,6.0781,6.0742,6.0742,6.0288,5.9684,5.883,5.7951,5.6948,5.5677,5.5596,5.5596,5.5596,5.5596,5.5596,5.5596,5.5596,5.5574,5.5537,5.5537,5.5559,5.5486,5.3922,5.3203,0.0,0.0,5.4626,5.0096,0.0,0.0,0.0,0.0,0.0,0.0,0.0,0.0,0.0,0.0,0.0,0.0,0.0,0.0,0.0,0.0,0.0,0.0,4.4893,4.6432,0.0,0.0,0.0,0.0,4.8894,0.0,0.0,5.4511,5.5126,5.6522,5.6868,5.7291,5.7857,5.8665,5.9088,5.9088,5.9935,6.0358,6.0358,6.0666,6.0781,6.0781,6.0781,6.0781,6.0781,6.0781,6.1127,6.1678,6.1678,6.2166,6.2781,6.1973,6.2012,6.2435,6.2435,6.2666,6.2897,6.2897,6.3089,6.3308,6.3308,6.3308,6.3308,6.3308,6.3743,6.4166,6.4166,6.4166,6.4166,6.4166,6.3743,6.3308,6.3308,6.3166,6.3051,6.3051,6.3166,6.3346,6.3589,6.2974,6.2435,6.2435,6.2012,6.1678,6.1678,6.1166,6.0671,6.0365,5.9916,5.9379,5.88,5.8182,5.7671,5.7212,5.7189,5.7189,5.7189,5.7189,5.7189,5.7189,5.7189,5.6932,5.6381,5.6381,5.6124,5.5574,5.5023,5.4509,5.5588,5.6175,0.0,5.251,5.1587,0.0,4.7355,0.0,0.0,0.0,0.0,0.0,0.0,0.0,0.0,0.0,0.0,0.0,0.0,4.1585,0.0,0.0,4.3701,4.4701,4.4739,4.4739,4.5778,4.8317,4.7702,4.8933,0.0,0.0,5.4818,5.6483,5.7137,5.7857,5.8704,5.955,5.9973,5.9973,6.0512,6.0781,6.0781,6.0781,6.0781,6.0819,6.1127,6.1243,6.1281,6.155,6.2012,6.2512,6.2512,6.3012,6.3666,6.282,6.2858,6.3308,6.3308,6.3512,6.3782,6.3782,6.3974,6.4205,6.4205,6.4205,6.4205,6.4205,6.4628,6.5051,6.5051,6.5051,6.5051,6.5051,6.4628,6.4205,6.4205,6.4205,6.4205,6.4205,6.4205,6.4205,6.4205,6.4205,6.3962,6.318,6.2592,6.2207,6.2032,6.1506,6.1024,6.0729,6.0275,5.9812,5.9356,5.9034,5.8731,5.8437,5.8437,5.829,5.7997,5.7997,5.7997,5.7997,5.7997,5.774,5.7226,5.7226,5.6969,5.6455,5.6455,5.6014]}]]